<?xml version="1.0" encoding="UTF-8" standalone="no" ?>
<gpx xmlns="http://www.topografix.com/GPX/1/1" xmlns:xsi="http://www.w3.org/2001/XMLSchema-instance" xsi:schemaLocation="http://www.topografix.com/GPX/1/1 http://www.topografix.com/GPX/1/1/gpx.xsd" version="1.1" creator="VisuGPX - https://www.visugpx.com">
  <metadata>
    <name>S39-Parcours-75km-2000dv</name>
  </metadata>
  <trk>
    <name><![CDATA[S39-Parcours-75km-2000dv]]></name>
    <trkseg>
      <trkpt lat="45.68512" lon="4.59186">
        <ele>706.2</ele>
        <time>2019-08-30T18:45:06Z</time>
      </trkpt>
      <trkpt lat="45.68512" lon="4.59186">
        <ele>706.2</ele>
        <time>2019-08-30T18:45:06Z</time>
      </trkpt>
      <trkpt lat="45.68512" lon="4.59187">
        <ele>705.9</ele>
        <time>2019-08-30T18:42:57Z</time>
      </trkpt>
      <trkpt lat="45.68512" lon="4.59187">
        <ele>705.9</ele>
        <time>2019-08-30T18:42:57Z</time>
      </trkpt>
      <trkpt lat="45.68458" lon="4.59257">
        <ele>701.5</ele>
        <time>2019-08-30T18:42:57Z</time>
      </trkpt>
      <trkpt lat="45.68458" lon="4.59257">
        <ele>701.5</ele>
        <time>2019-08-30T18:42:57Z</time>
      </trkpt>
      <trkpt lat="45.68481" lon="4.59388">
        <ele>701</ele>
        <time>2019-08-30T18:42:57Z</time>
      </trkpt>
      <trkpt lat="45.68481" lon="4.59388">
        <ele>701</ele>
        <time>2019-08-30T18:42:57Z</time>
      </trkpt>
      <trkpt lat="45.68368" lon="4.59315">
        <ele>706.6</ele>
        <time>2019-08-30T18:42:57Z</time>
      </trkpt>
      <trkpt lat="45.68368" lon="4.59315">
        <ele>706.6</ele>
        <time>2019-08-30T18:42:57Z</time>
      </trkpt>
      <trkpt lat="45.68299" lon="4.5929">
        <ele>699.3</ele>
        <time>2019-08-30T18:42:57Z</time>
      </trkpt>
      <trkpt lat="45.68299" lon="4.5929">
        <ele>699.3</ele>
        <time>2019-08-30T18:42:57Z</time>
      </trkpt>
      <trkpt lat="45.68294" lon="4.59275">
        <ele>697.6</ele>
        <time>2019-08-30T18:42:57Z</time>
      </trkpt>
      <trkpt lat="45.68294" lon="4.59275">
        <ele>697.6</ele>
        <time>2019-08-30T18:42:57Z</time>
      </trkpt>
      <trkpt lat="45.68256" lon="4.59233">
        <ele>686.1</ele>
        <time>2019-08-30T18:42:57Z</time>
      </trkpt>
      <trkpt lat="45.68256" lon="4.59233">
        <ele>686.1</ele>
        <time>2019-08-30T18:42:57Z</time>
      </trkpt>
      <trkpt lat="45.68273" lon="4.59171">
        <ele>683.9</ele>
        <time>2019-08-30T18:42:57Z</time>
      </trkpt>
      <trkpt lat="45.68273" lon="4.59171">
        <ele>683.9</ele>
        <time>2019-08-30T18:42:57Z</time>
      </trkpt>
      <trkpt lat="45.68289" lon="4.5913">
        <ele>685.6</ele>
        <time>2019-08-30T18:42:57Z</time>
      </trkpt>
      <trkpt lat="45.68289" lon="4.5913">
        <ele>685.6</ele>
        <time>2019-08-30T18:42:57Z</time>
      </trkpt>
      <trkpt lat="45.68292" lon="4.59065">
        <ele>693.4</ele>
        <time>2019-08-30T18:42:57Z</time>
      </trkpt>
      <trkpt lat="45.68292" lon="4.59065">
        <ele>693.4</ele>
        <time>2019-08-30T18:42:57Z</time>
      </trkpt>
      <trkpt lat="45.68279" lon="4.59001">
        <ele>702.5</ele>
        <time>2019-08-30T18:42:57Z</time>
      </trkpt>
      <trkpt lat="45.68279" lon="4.59001">
        <ele>702.5</ele>
        <time>2019-08-30T18:42:57Z</time>
      </trkpt>
      <trkpt lat="45.68256" lon="4.58943">
        <ele>710.7</ele>
        <time>2019-08-30T18:42:57Z</time>
      </trkpt>
      <trkpt lat="45.68256" lon="4.58943">
        <ele>710.7</ele>
        <time>2019-08-30T18:42:57Z</time>
      </trkpt>
      <trkpt lat="45.68232" lon="4.58904">
        <ele>716.6</ele>
        <time>2019-08-30T18:42:57Z</time>
      </trkpt>
      <trkpt lat="45.68232" lon="4.58904">
        <ele>716.6</ele>
        <time>2019-08-30T18:42:57Z</time>
      </trkpt>
      <trkpt lat="45.6822" lon="4.5884">
        <ele>732</ele>
        <time>2019-08-30T18:42:57Z</time>
      </trkpt>
      <trkpt lat="45.6822" lon="4.5884">
        <ele>732</ele>
        <time>2019-08-30T18:42:57Z</time>
      </trkpt>
      <trkpt lat="45.68203" lon="4.58801">
        <ele>737.7</ele>
        <time>2019-08-30T18:42:57Z</time>
      </trkpt>
      <trkpt lat="45.68203" lon="4.58801">
        <ele>737.7</ele>
        <time>2019-08-30T18:42:57Z</time>
      </trkpt>
      <trkpt lat="45.68113" lon="4.58749">
        <ele>726.6</ele>
        <time>2019-08-30T18:42:57Z</time>
      </trkpt>
      <trkpt lat="45.68113" lon="4.58749">
        <ele>726.6</ele>
        <time>2019-08-30T18:42:57Z</time>
      </trkpt>
      <trkpt lat="45.68091" lon="4.58716">
        <ele>724.8</ele>
        <time>2019-08-30T18:42:57Z</time>
      </trkpt>
      <trkpt lat="45.68091" lon="4.58716">
        <ele>724.8</ele>
        <time>2019-08-30T18:42:57Z</time>
      </trkpt>
      <trkpt lat="45.68087" lon="4.58676">
        <ele>719.9</ele>
        <time>2019-08-30T18:42:57Z</time>
      </trkpt>
      <trkpt lat="45.68087" lon="4.58676">
        <ele>719.9</ele>
        <time>2019-08-30T18:42:57Z</time>
      </trkpt>
      <trkpt lat="45.68104" lon="4.58632">
        <ele>717.6</ele>
        <time>2019-08-30T18:42:57Z</time>
      </trkpt>
      <trkpt lat="45.68104" lon="4.58632">
        <ele>717.6</ele>
        <time>2019-08-30T18:42:57Z</time>
      </trkpt>
      <trkpt lat="45.68133" lon="4.58593">
        <ele>717.7</ele>
        <time>2019-08-30T18:42:57Z</time>
      </trkpt>
      <trkpt lat="45.68133" lon="4.58593">
        <ele>717.7</ele>
        <time>2019-08-30T18:42:57Z</time>
      </trkpt>
      <trkpt lat="45.68183" lon="4.58557">
        <ele>725</ele>
        <time>2019-08-30T18:42:57Z</time>
      </trkpt>
      <trkpt lat="45.68183" lon="4.58557">
        <ele>725</ele>
        <time>2019-08-30T18:42:57Z</time>
      </trkpt>
      <trkpt lat="45.68223" lon="4.58508">
        <ele>730.2</ele>
        <time>2019-08-30T18:42:57Z</time>
      </trkpt>
      <trkpt lat="45.68223" lon="4.58508">
        <ele>730.2</ele>
        <time>2019-08-30T18:42:57Z</time>
      </trkpt>
      <trkpt lat="45.68249" lon="4.58471">
        <ele>732.6</ele>
        <time>2019-08-30T18:42:57Z</time>
      </trkpt>
      <trkpt lat="45.68249" lon="4.58471">
        <ele>732.6</ele>
        <time>2019-08-30T18:42:57Z</time>
      </trkpt>
      <trkpt lat="45.68276" lon="4.58359">
        <ele>736.9</ele>
        <time>2019-08-30T18:42:57Z</time>
      </trkpt>
      <trkpt lat="45.68276" lon="4.58359">
        <ele>736.9</ele>
        <time>2019-08-30T18:42:57Z</time>
      </trkpt>
      <trkpt lat="45.68357" lon="4.58363">
        <ele>751.8</ele>
        <time>2019-08-30T18:42:57Z</time>
      </trkpt>
      <trkpt lat="45.68357" lon="4.58363">
        <ele>751.8</ele>
        <time>2019-08-30T18:42:57Z</time>
      </trkpt>
      <trkpt lat="45.68427" lon="4.58289">
        <ele>767.1</ele>
        <time>2019-08-30T18:42:57Z</time>
      </trkpt>
      <trkpt lat="45.68427" lon="4.58289">
        <ele>767.1</ele>
        <time>2019-08-30T18:42:57Z</time>
      </trkpt>
      <trkpt lat="45.68431" lon="4.58286">
        <ele>767.7</ele>
        <time>2013-09-14T05:09:43Z</time>
      </trkpt>
      <trkpt lat="45.68512" lon="4.58164">
        <ele>778.1</ele>
        <time>2013-09-14T05:10:03Z</time>
      </trkpt>
      <trkpt lat="45.6855" lon="4.57991">
        <ele>783.4</ele>
        <time>2013-09-14T05:10:23Z</time>
      </trkpt>
      <trkpt lat="45.68552" lon="4.57815">
        <ele>774.3</ele>
        <time>2013-09-14T05:10:43Z</time>
      </trkpt>
      <trkpt lat="45.68571" lon="4.57707">
        <ele>770.3</ele>
        <time>2013-09-14T05:11:03Z</time>
      </trkpt>
      <trkpt lat="45.68608" lon="4.57625">
        <ele>768.2</ele>
        <time>2013-09-14T05:11:23Z</time>
      </trkpt>
      <trkpt lat="45.6864" lon="4.57466">
        <ele>766</ele>
        <time>2013-09-14T05:11:43Z</time>
      </trkpt>
      <trkpt lat="45.68649" lon="4.57311">
        <ele>763.7</ele>
        <time>2013-09-14T05:12:03Z</time>
      </trkpt>
      <trkpt lat="45.68668" lon="4.57204">
        <ele>759.9</ele>
        <time>2013-09-14T05:12:23Z</time>
      </trkpt>
      <trkpt lat="45.68778" lon="4.57282">
        <ele>782.7</ele>
        <time>2013-09-14T05:12:43Z</time>
      </trkpt>
      <trkpt lat="45.68866" lon="4.57289">
        <ele>791.3</ele>
        <time>2013-09-14T05:13:03Z</time>
      </trkpt>
      <trkpt lat="45.68965" lon="4.5726">
        <ele>796.8</ele>
        <time>2013-09-14T05:13:23Z</time>
      </trkpt>
      <trkpt lat="45.69003" lon="4.57249">
        <ele>798.1</ele>
        <time>2013-09-14T05:13:43Z</time>
      </trkpt>
      <trkpt lat="45.69037" lon="4.57234">
        <ele>800</ele>
        <time>2013-09-14T05:14:03Z</time>
      </trkpt>
      <trkpt lat="45.69056" lon="4.57215">
        <ele>800.2</ele>
        <time>2013-09-14T05:14:23Z</time>
      </trkpt>
      <trkpt lat="45.69075" lon="4.57191">
        <ele>799.7</ele>
        <time>2013-09-14T05:14:43Z</time>
      </trkpt>
      <trkpt lat="45.69104" lon="4.57153">
        <ele>798.8</ele>
        <time>2013-09-14T05:15:03Z</time>
      </trkpt>
      <trkpt lat="45.6914" lon="4.56962">
        <ele>803.6</ele>
        <time>2013-09-14T05:15:23Z</time>
      </trkpt>
      <trkpt lat="45.69145" lon="4.56812">
        <ele>812.3</ele>
        <time>2013-09-14T05:15:43Z</time>
      </trkpt>
      <trkpt lat="45.6916" lon="4.5673">
        <ele>817.2</ele>
        <time>2013-09-14T05:16:03Z</time>
      </trkpt>
      <trkpt lat="45.69258" lon="4.56649">
        <ele>832.3</ele>
        <time>2013-09-14T05:16:23Z</time>
      </trkpt>
      <trkpt lat="45.69358" lon="4.56689">
        <ele>841.5</ele>
        <time>2013-09-14T05:16:43Z</time>
      </trkpt>
      <trkpt lat="45.69465" lon="4.56657">
        <ele>845.5</ele>
        <time>2013-09-14T05:17:03Z</time>
      </trkpt>
      <trkpt lat="45.69504" lon="4.56799">
        <ele>840</ele>
        <time>2013-09-14T05:17:23Z</time>
      </trkpt>
      <trkpt lat="45.6959" lon="4.56942">
        <ele>864.4</ele>
        <time>2013-09-14T05:17:43Z</time>
      </trkpt>
      <trkpt lat="45.69681" lon="4.56919">
        <ele>887.1</ele>
        <time>2013-09-14T05:18:03Z</time>
      </trkpt>
      <trkpt lat="45.6979" lon="4.56823">
        <ele>905.3</ele>
        <time>2013-09-14T05:18:23Z</time>
      </trkpt>
      <trkpt lat="45.69852" lon="4.56742">
        <ele>900.3</ele>
        <time>2013-09-14T05:18:43Z</time>
      </trkpt>
      <trkpt lat="45.69902" lon="4.56692">
        <ele>895</ele>
        <time>2013-09-14T05:19:03Z</time>
      </trkpt>
      <trkpt lat="45.69931" lon="4.56646">
        <ele>891.7</ele>
        <time>2013-09-14T05:19:23Z</time>
      </trkpt>
      <trkpt lat="45.69956" lon="4.56612">
        <ele>890.5</ele>
        <time>2013-09-14T05:19:43Z</time>
      </trkpt>
      <trkpt lat="45.69984" lon="4.56571">
        <ele>885.8</ele>
        <time>2013-09-14T05:20:03Z</time>
      </trkpt>
      <trkpt lat="45.70004" lon="4.56534">
        <ele>883.8</ele>
        <time>2013-09-14T05:20:23Z</time>
      </trkpt>
      <trkpt lat="45.70036" lon="4.56472">
        <ele>880.3</ele>
        <time>2013-09-14T05:20:43Z</time>
      </trkpt>
      <trkpt lat="45.70078" lon="4.56442">
        <ele>878.7</ele>
        <time>2013-09-14T05:21:03Z</time>
      </trkpt>
      <trkpt lat="45.7011" lon="4.56425">
        <ele>877.8</ele>
        <time>2013-09-14T05:21:23Z</time>
      </trkpt>
      <trkpt lat="45.70111" lon="4.56423">
        <ele>877.7</ele>
        <time>2013-09-14T05:21:43Z</time>
      </trkpt>
      <trkpt lat="45.70111" lon="4.56423">
        <ele>877.6</ele>
        <time>2013-09-14T05:22:03Z</time>
      </trkpt>
      <trkpt lat="45.70112" lon="4.56422">
        <ele>877.6</ele>
        <time>2013-09-14T05:22:23Z</time>
      </trkpt>
      <trkpt lat="45.70112" lon="4.56421">
        <ele>877.6</ele>
        <time>2013-09-14T05:22:43Z</time>
      </trkpt>
      <trkpt lat="45.70112" lon="4.56421">
        <ele>877.6</ele>
        <time>2013-09-14T05:23:03Z</time>
      </trkpt>
      <trkpt lat="45.70112" lon="4.56421">
        <ele>877.6</ele>
        <time>2013-09-14T05:23:23Z</time>
      </trkpt>
      <trkpt lat="45.70113" lon="4.5642">
        <ele>877.5</ele>
        <time>2013-09-14T05:23:43Z</time>
      </trkpt>
      <trkpt lat="45.70113" lon="4.5642">
        <ele>877.5</ele>
        <time>2013-09-14T05:24:03Z</time>
      </trkpt>
      <trkpt lat="45.70114" lon="4.56419">
        <ele>877.4</ele>
        <time>2013-09-14T05:24:23Z</time>
      </trkpt>
      <trkpt lat="45.70114" lon="4.56419">
        <ele>877.4</ele>
        <time>2013-09-14T05:24:43Z</time>
      </trkpt>
      <trkpt lat="45.70111" lon="4.56415">
        <ele>877.2</ele>
        <time>2013-09-14T05:25:03Z</time>
      </trkpt>
      <trkpt lat="45.70111" lon="4.56415">
        <ele>877.2</ele>
        <time>2013-09-14T05:25:23Z</time>
      </trkpt>
      <trkpt lat="45.70111" lon="4.56415">
        <ele>877.1</ele>
        <time>2013-09-14T05:25:43Z</time>
      </trkpt>
      <trkpt lat="45.70111" lon="4.56415">
        <ele>877.1</ele>
        <time>2013-09-14T05:26:03Z</time>
      </trkpt>
      <trkpt lat="45.70127" lon="4.56418">
        <ele>877.5</ele>
        <time>2013-09-14T05:26:23Z</time>
      </trkpt>
      <trkpt lat="45.70147" lon="4.56414">
        <ele>875.9</ele>
        <time>2013-09-14T05:26:43Z</time>
      </trkpt>
      <trkpt lat="45.70168" lon="4.56372">
        <ele>870.7</ele>
        <time>2013-09-14T05:27:03Z</time>
      </trkpt>
      <trkpt lat="45.70203" lon="4.5634">
        <ele>865.4</ele>
        <time>2013-09-14T05:27:23Z</time>
      </trkpt>
      <trkpt lat="45.70277" lon="4.56337">
        <ele>858.4</ele>
        <time>2013-09-14T05:27:43Z</time>
      </trkpt>
      <trkpt lat="45.70348" lon="4.56306">
        <ele>856.2</ele>
        <time>2013-09-14T05:28:03Z</time>
      </trkpt>
      <trkpt lat="45.70438" lon="4.56242">
        <ele>861.1</ele>
        <time>2013-09-14T05:28:23Z</time>
      </trkpt>
      <trkpt lat="45.70493" lon="4.56173">
        <ele>865</ele>
        <time>2013-09-14T05:28:43Z</time>
      </trkpt>
      <trkpt lat="45.70559" lon="4.56058">
        <ele>875.6</ele>
        <time>2013-09-14T05:29:03Z</time>
      </trkpt>
      <trkpt lat="45.70643" lon="4.55947">
        <ele>889.3</ele>
        <time>2013-09-14T05:29:23Z</time>
      </trkpt>
      <trkpt lat="45.70689" lon="4.5586">
        <ele>890.9</ele>
        <time>2013-09-14T05:29:43Z</time>
      </trkpt>
      <trkpt lat="45.70711" lon="4.55897">
        <ele>892.7</ele>
        <time>2013-09-14T05:30:03Z</time>
      </trkpt>
      <trkpt lat="45.7073" lon="4.55953">
        <ele>892.7</ele>
        <time>2013-09-14T05:30:23Z</time>
      </trkpt>
      <trkpt lat="45.70742" lon="4.55999">
        <ele>889.6</ele>
        <time>2013-09-14T05:30:43Z</time>
      </trkpt>
      <trkpt lat="45.70762" lon="4.56033">
        <ele>887.4</ele>
        <time>2013-09-14T05:31:03Z</time>
      </trkpt>
      <trkpt lat="45.70792" lon="4.56048">
        <ele>886.9</ele>
        <time>2013-09-14T05:31:23Z</time>
      </trkpt>
      <trkpt lat="45.70844" lon="4.56078">
        <ele>886.3</ele>
        <time>2013-09-14T05:31:43Z</time>
      </trkpt>
      <trkpt lat="45.70967" lon="4.56144">
        <ele>886.3</ele>
        <time>2013-09-14T05:32:03Z</time>
      </trkpt>
      <trkpt lat="45.70983" lon="4.56175">
        <ele>883.3</ele>
        <time>2013-09-14T05:32:23Z</time>
      </trkpt>
      <trkpt lat="45.70998" lon="4.56206">
        <ele>881</ele>
        <time>2013-09-14T05:32:43Z</time>
      </trkpt>
      <trkpt lat="45.71007" lon="4.56245">
        <ele>876</ele>
        <time>2013-09-14T05:33:03Z</time>
      </trkpt>
      <trkpt lat="45.70998" lon="4.56287">
        <ele>867</ele>
        <time>2013-09-14T05:33:23Z</time>
      </trkpt>
      <trkpt lat="45.70996" lon="4.56329">
        <ele>860.1</ele>
        <time>2013-09-14T05:33:43Z</time>
      </trkpt>
      <trkpt lat="45.70992" lon="4.56367">
        <ele>853.9</ele>
        <time>2013-09-14T05:34:03Z</time>
      </trkpt>
      <trkpt lat="45.70994" lon="4.5641">
        <ele>850.4</ele>
        <time>2013-09-14T05:34:23Z</time>
      </trkpt>
      <trkpt lat="45.70996" lon="4.56454">
        <ele>847.2</ele>
        <time>2013-09-14T05:34:43Z</time>
      </trkpt>
      <trkpt lat="45.70999" lon="4.56493">
        <ele>844.3</ele>
        <time>2013-09-14T05:35:03Z</time>
      </trkpt>
      <trkpt lat="45.71002" lon="4.56536">
        <ele>841.2</ele>
        <time>2013-09-14T05:35:23Z</time>
      </trkpt>
      <trkpt lat="45.71015" lon="4.56587">
        <ele>840.9</ele>
        <time>2013-09-14T05:35:43Z</time>
      </trkpt>
      <trkpt lat="45.71027" lon="4.56647">
        <ele>840.2</ele>
        <time>2013-09-14T05:36:03Z</time>
      </trkpt>
      <trkpt lat="45.71046" lon="4.56709">
        <ele>841.2</ele>
        <time>2013-09-14T05:36:23Z</time>
      </trkpt>
      <trkpt lat="45.71078" lon="4.56756">
        <ele>841.4</ele>
        <time>2013-09-14T05:36:43Z</time>
      </trkpt>
      <trkpt lat="45.71117" lon="4.56786">
        <ele>847.4</ele>
        <time>2013-09-14T05:37:03Z</time>
      </trkpt>
      <trkpt lat="45.71155" lon="4.56802">
        <ele>847.8</ele>
        <time>2013-09-14T05:37:23Z</time>
      </trkpt>
      <trkpt lat="45.71189" lon="4.56808">
        <ele>848.5</ele>
        <time>2013-09-14T05:37:43Z</time>
      </trkpt>
      <trkpt lat="45.71224" lon="4.56784">
        <ele>850.2</ele>
        <time>2013-09-14T05:38:03Z</time>
      </trkpt>
      <trkpt lat="45.71258" lon="4.56754">
        <ele>849.1</ele>
        <time>2013-09-14T05:38:23Z</time>
      </trkpt>
      <trkpt lat="45.71302" lon="4.56725">
        <ele>846.5</ele>
        <time>2013-09-14T05:38:43Z</time>
      </trkpt>
      <trkpt lat="45.7136" lon="4.56699">
        <ele>834.1</ele>
        <time>2013-09-14T05:39:03Z</time>
      </trkpt>
      <trkpt lat="45.71408" lon="4.56607">
        <ele>830.6</ele>
        <time>2013-09-14T05:39:23Z</time>
      </trkpt>
      <trkpt lat="45.71425" lon="4.56487">
        <ele>831.5</ele>
        <time>2013-09-14T05:39:43Z</time>
      </trkpt>
      <trkpt lat="45.7145" lon="4.56403">
        <ele>824.9</ele>
        <time>2013-09-14T05:40:03Z</time>
      </trkpt>
      <trkpt lat="45.71507" lon="4.56524">
        <ele>825.2</ele>
        <time>2013-09-14T05:40:23Z</time>
      </trkpt>
      <trkpt lat="45.716" lon="4.56661">
        <ele>834.3</ele>
        <time>2013-09-14T05:40:43Z</time>
      </trkpt>
      <trkpt lat="45.71661" lon="4.56711">
        <ele>842.3</ele>
        <time>2013-09-14T05:41:03Z</time>
      </trkpt>
      <trkpt lat="45.7174" lon="4.56666">
        <ele>854.9</ele>
        <time>2013-09-14T05:41:23Z</time>
      </trkpt>
      <trkpt lat="45.71787" lon="4.56667">
        <ele>861.2</ele>
        <time>2013-09-14T05:41:43Z</time>
      </trkpt>
      <trkpt lat="45.71825" lon="4.56686">
        <ele>859.9</ele>
        <time>2013-09-14T05:42:03Z</time>
      </trkpt>
      <trkpt lat="45.71853" lon="4.56693">
        <ele>860</ele>
        <time>2013-09-14T05:42:23Z</time>
      </trkpt>
      <trkpt lat="45.71876" lon="4.56701">
        <ele>859.2</ele>
        <time>2013-09-14T05:42:43Z</time>
      </trkpt>
      <trkpt lat="45.71903" lon="4.56717">
        <ele>854</ele>
        <time>2013-09-14T05:43:03Z</time>
      </trkpt>
      <trkpt lat="45.71928" lon="4.56742">
        <ele>846.1</ele>
        <time>2013-09-14T05:43:23Z</time>
      </trkpt>
      <trkpt lat="45.71969" lon="4.5676">
        <ele>839.6</ele>
        <time>2013-09-14T05:43:43Z</time>
      </trkpt>
      <trkpt lat="45.7201" lon="4.56762">
        <ele>834.4</ele>
        <time>2013-09-14T05:44:03Z</time>
      </trkpt>
      <trkpt lat="45.72047" lon="4.56762">
        <ele>829.5</ele>
        <time>2013-09-14T05:44:23Z</time>
      </trkpt>
      <trkpt lat="45.72068" lon="4.56803">
        <ele>820.2</ele>
        <time>2013-09-14T05:44:43Z</time>
      </trkpt>
      <trkpt lat="45.72094" lon="4.5686">
        <ele>812.6</ele>
        <time>2013-09-14T05:45:03Z</time>
      </trkpt>
      <trkpt lat="45.72089" lon="4.56944">
        <ele>808</ele>
        <time>2013-09-14T05:45:23Z</time>
      </trkpt>
      <trkpt lat="45.72084" lon="4.5712">
        <ele>799.7</ele>
        <time>2013-09-14T05:45:43Z</time>
      </trkpt>
      <trkpt lat="45.72066" lon="4.57422">
        <ele>810.7</ele>
        <time>2013-09-14T05:46:03Z</time>
      </trkpt>
      <trkpt lat="45.72148" lon="4.57694">
        <ele>831.6</ele>
        <time>2013-09-14T05:46:23Z</time>
      </trkpt>
      <trkpt lat="45.72234" lon="4.57872">
        <ele>853</ele>
        <time>2013-09-14T05:46:43Z</time>
      </trkpt>
      <trkpt lat="45.72272" lon="4.57933">
        <ele>857.6</ele>
        <time>2013-09-14T05:47:03Z</time>
      </trkpt>
      <trkpt lat="45.72292" lon="4.5798">
        <ele>856.7</ele>
        <time>2013-09-14T05:47:23Z</time>
      </trkpt>
      <trkpt lat="45.72311" lon="4.58017">
        <ele>854.2</ele>
        <time>2013-09-14T05:47:43Z</time>
      </trkpt>
      <trkpt lat="45.72325" lon="4.58048">
        <ele>850.7</ele>
        <time>2013-09-14T05:48:03Z</time>
      </trkpt>
      <trkpt lat="45.72354" lon="4.58081">
        <ele>845</ele>
        <time>2013-09-14T05:48:23Z</time>
      </trkpt>
      <trkpt lat="45.72372" lon="4.58123">
        <ele>836.9</ele>
        <time>2013-09-14T05:48:43Z</time>
      </trkpt>
      <trkpt lat="45.7238" lon="4.58167">
        <ele>832.8</ele>
        <time>2013-09-14T05:49:03Z</time>
      </trkpt>
      <trkpt lat="45.72391" lon="4.58212">
        <ele>827.8</ele>
        <time>2013-09-14T05:49:23Z</time>
      </trkpt>
      <trkpt lat="45.72393" lon="4.5827">
        <ele>829.4</ele>
        <time>2013-09-14T05:49:43Z</time>
      </trkpt>
      <trkpt lat="45.72406" lon="4.58378">
        <ele>828.2</ele>
        <time>2013-09-14T05:50:03Z</time>
      </trkpt>
      <trkpt lat="45.72412" lon="4.58546">
        <ele>838.4</ele>
        <time>2013-09-14T05:50:23Z</time>
      </trkpt>
      <trkpt lat="45.7244" lon="4.58661">
        <ele>836.4</ele>
        <time>2013-09-14T05:50:43Z</time>
      </trkpt>
      <trkpt lat="45.72468" lon="4.58784">
        <ele>834.9</ele>
        <time>2013-09-14T05:51:03Z</time>
      </trkpt>
      <trkpt lat="45.72443" lon="4.58917">
        <ele>839</ele>
        <time>2013-09-14T05:51:23Z</time>
      </trkpt>
      <trkpt lat="45.72353" lon="4.5907">
        <ele>837.4</ele>
        <time>2013-09-14T05:51:43Z</time>
      </trkpt>
      <trkpt lat="45.72293" lon="4.59273">
        <ele>830.1</ele>
        <time>2013-09-14T05:52:03Z</time>
      </trkpt>
      <trkpt lat="45.72296" lon="4.59408">
        <ele>826.8</ele>
        <time>2013-09-14T05:52:23Z</time>
      </trkpt>
      <trkpt lat="45.72332" lon="4.5956">
        <ele>825.8</ele>
        <time>2013-09-14T05:52:43Z</time>
      </trkpt>
      <trkpt lat="45.72383" lon="4.59708">
        <ele>828.9</ele>
        <time>2013-09-14T05:53:03Z</time>
      </trkpt>
      <trkpt lat="45.72444" lon="4.59834">
        <ele>829.6</ele>
        <time>2013-09-14T05:53:23Z</time>
      </trkpt>
      <trkpt lat="45.72475" lon="4.59898">
        <ele>830.9</ele>
        <time>2013-09-14T05:53:43Z</time>
      </trkpt>
      <trkpt lat="45.7251" lon="4.59958">
        <ele>831.9</ele>
        <time>2013-09-14T05:54:03Z</time>
      </trkpt>
      <trkpt lat="45.72552" lon="4.60009">
        <ele>832.9</ele>
        <time>2013-09-14T05:54:23Z</time>
      </trkpt>
      <trkpt lat="45.72599" lon="4.60062">
        <ele>830.2</ele>
        <time>2013-09-14T05:54:43Z</time>
      </trkpt>
      <trkpt lat="45.72676" lon="4.60091">
        <ele>830.9</ele>
        <time>2013-09-14T05:55:03Z</time>
      </trkpt>
      <trkpt lat="45.72747" lon="4.6009">
        <ele>832.8</ele>
        <time>2013-09-14T05:55:23Z</time>
      </trkpt>
      <trkpt lat="45.72804" lon="4.60081">
        <ele>833.7</ele>
        <time>2013-09-14T05:55:43Z</time>
      </trkpt>
      <trkpt lat="45.72859" lon="4.60063">
        <ele>836.2</ele>
        <time>2013-09-14T05:56:03Z</time>
      </trkpt>
      <trkpt lat="45.72911" lon="4.6005">
        <ele>838.2</ele>
        <time>2013-09-14T05:56:23Z</time>
      </trkpt>
      <trkpt lat="45.72954" lon="4.60039">
        <ele>839.6</ele>
        <time>2013-09-14T05:56:43Z</time>
      </trkpt>
      <trkpt lat="45.72976" lon="4.60043">
        <ele>836.6</ele>
        <time>2013-09-14T05:57:03Z</time>
      </trkpt>
      <trkpt lat="45.72989" lon="4.60049">
        <ele>833.8</ele>
        <time>2013-09-14T05:57:23Z</time>
      </trkpt>
      <trkpt lat="45.73021" lon="4.60069">
        <ele>826.1</ele>
        <time>2013-09-14T05:57:43Z</time>
      </trkpt>
      <trkpt lat="45.73055" lon="4.60105">
        <ele>818.7</ele>
        <time>2013-09-14T05:58:03Z</time>
      </trkpt>
      <trkpt lat="45.73079" lon="4.60137">
        <ele>816</ele>
        <time>2013-09-14T05:58:23Z</time>
      </trkpt>
      <trkpt lat="45.73112" lon="4.60175">
        <ele>812.3</ele>
        <time>2013-09-14T05:58:43Z</time>
      </trkpt>
      <trkpt lat="45.73141" lon="4.60217">
        <ele>810</ele>
        <time>2013-09-14T05:59:03Z</time>
      </trkpt>
      <trkpt lat="45.73191" lon="4.60274">
        <ele>812.8</ele>
        <time>2013-09-14T05:59:23Z</time>
      </trkpt>
      <trkpt lat="45.73271" lon="4.60386">
        <ele>819</ele>
        <time>2013-09-14T05:59:43Z</time>
      </trkpt>
      <trkpt lat="45.73369" lon="4.60439">
        <ele>837.6</ele>
        <time>2013-09-14T06:00:03Z</time>
      </trkpt>
      <trkpt lat="45.73442" lon="4.60449">
        <ele>842.7</ele>
        <time>2013-09-14T06:00:23Z</time>
      </trkpt>
      <trkpt lat="45.7349" lon="4.60442">
        <ele>843.5</ele>
        <time>2013-09-14T06:00:43Z</time>
      </trkpt>
      <trkpt lat="45.73521" lon="4.60437">
        <ele>842.2</ele>
        <time>2013-09-14T06:01:03Z</time>
      </trkpt>
      <trkpt lat="45.73545" lon="4.6044">
        <ele>840.2</ele>
        <time>2013-09-14T06:01:23Z</time>
      </trkpt>
      <trkpt lat="45.7357" lon="4.60448">
        <ele>837.1</ele>
        <time>2013-09-14T06:01:43Z</time>
      </trkpt>
      <trkpt lat="45.73591" lon="4.60453">
        <ele>834.8</ele>
        <time>2013-09-14T06:02:03Z</time>
      </trkpt>
      <trkpt lat="45.73628" lon="4.60453">
        <ele>832.7</ele>
        <time>2013-09-14T06:02:23Z</time>
      </trkpt>
      <trkpt lat="45.73673" lon="4.60432">
        <ele>833.8</ele>
        <time>2013-09-14T06:02:43Z</time>
      </trkpt>
      <trkpt lat="45.73715" lon="4.60443">
        <ele>830.2</ele>
        <time>2013-09-14T06:03:03Z</time>
      </trkpt>
      <trkpt lat="45.73795" lon="4.60286">
        <ele>829.5</ele>
        <time>2013-09-14T06:03:23Z</time>
      </trkpt>
      <trkpt lat="45.73835" lon="4.60219">
        <ele>824.6</ele>
        <time>2013-09-14T06:03:43Z</time>
      </trkpt>
      <trkpt lat="45.73913" lon="4.60276">
        <ele>832.1</ele>
        <time>2013-09-14T06:04:03Z</time>
      </trkpt>
      <trkpt lat="45.73972" lon="4.60308">
        <ele>838.3</ele>
        <time>2013-09-14T06:04:23Z</time>
      </trkpt>
      <trkpt lat="45.74018" lon="4.6033">
        <ele>840</ele>
        <time>2013-09-14T06:04:43Z</time>
      </trkpt>
      <trkpt lat="45.7405" lon="4.60329">
        <ele>840.2</ele>
        <time>2013-09-14T06:05:03Z</time>
      </trkpt>
      <trkpt lat="45.74081" lon="4.60309">
        <ele>838.1</ele>
        <time>2013-09-14T06:05:23Z</time>
      </trkpt>
      <trkpt lat="45.74116" lon="4.60292">
        <ele>836.5</ele>
        <time>2013-09-14T06:05:43Z</time>
      </trkpt>
      <trkpt lat="45.74142" lon="4.60279">
        <ele>830.5</ele>
        <time>2013-09-14T06:06:03Z</time>
      </trkpt>
      <trkpt lat="45.74167" lon="4.60276">
        <ele>823</ele>
        <time>2013-09-14T06:06:23Z</time>
      </trkpt>
      <trkpt lat="45.74173" lon="4.60309">
        <ele>819.6</ele>
        <time>2013-09-14T06:06:43Z</time>
      </trkpt>
      <trkpt lat="45.74174" lon="4.60346">
        <ele>816.4</ele>
        <time>2013-09-14T06:07:03Z</time>
      </trkpt>
      <trkpt lat="45.74174" lon="4.60381">
        <ele>813.9</ele>
        <time>2013-09-14T06:07:23Z</time>
      </trkpt>
      <trkpt lat="45.74182" lon="4.6041">
        <ele>810.8</ele>
        <time>2013-09-14T06:07:43Z</time>
      </trkpt>
      <trkpt lat="45.74192" lon="4.60442">
        <ele>806.8</ele>
        <time>2013-09-14T06:08:03Z</time>
      </trkpt>
      <trkpt lat="45.74199" lon="4.60451">
        <ele>804.1</ele>
        <time>2013-09-14T06:08:23Z</time>
      </trkpt>
      <trkpt lat="45.74209" lon="4.60462">
        <ele>801.1</ele>
        <time>2013-09-14T06:08:43Z</time>
      </trkpt>
      <trkpt lat="45.74223" lon="4.60471">
        <ele>795.8</ele>
        <time>2013-09-14T06:09:03Z</time>
      </trkpt>
      <trkpt lat="45.74229" lon="4.60484">
        <ele>794.5</ele>
        <time>2013-09-14T06:09:23Z</time>
      </trkpt>
      <trkpt lat="45.7423" lon="4.60485">
        <ele>794</ele>
        <time>2013-09-14T06:09:43Z</time>
      </trkpt>
      <trkpt lat="45.74235" lon="4.60488">
        <ele>792.3</ele>
        <time>2013-09-14T06:10:03Z</time>
      </trkpt>
      <trkpt lat="45.74247" lon="4.60501">
        <ele>788.5</ele>
        <time>2013-09-14T06:10:23Z</time>
      </trkpt>
      <trkpt lat="45.74262" lon="4.60523">
        <ele>784.5</ele>
        <time>2013-09-14T06:10:43Z</time>
      </trkpt>
      <trkpt lat="45.74273" lon="4.6054">
        <ele>781.9</ele>
        <time>2013-09-14T06:11:03Z</time>
      </trkpt>
      <trkpt lat="45.74294" lon="4.60552">
        <ele>775.9</ele>
        <time>2013-09-14T06:11:23Z</time>
      </trkpt>
      <trkpt lat="45.74316" lon="4.60555">
        <ele>770.5</ele>
        <time>2013-09-14T06:11:43Z</time>
      </trkpt>
      <trkpt lat="45.74341" lon="4.60562">
        <ele>764.8</ele>
        <time>2013-09-14T06:12:03Z</time>
      </trkpt>
      <trkpt lat="45.74367" lon="4.60577">
        <ele>760.9</ele>
        <time>2013-09-14T06:12:23Z</time>
      </trkpt>
      <trkpt lat="45.74391" lon="4.60597">
        <ele>757.5</ele>
        <time>2013-09-14T06:12:43Z</time>
      </trkpt>
      <trkpt lat="45.74417" lon="4.60625">
        <ele>754.1</ele>
        <time>2013-09-14T06:13:03Z</time>
      </trkpt>
      <trkpt lat="45.7444" lon="4.60643">
        <ele>749.3</ele>
        <time>2013-09-14T06:13:23Z</time>
      </trkpt>
      <trkpt lat="45.74463" lon="4.60662">
        <ele>745.1</ele>
        <time>2013-09-14T06:13:43Z</time>
      </trkpt>
      <trkpt lat="45.74488" lon="4.60681">
        <ele>740.6</ele>
        <time>2013-09-14T06:14:03Z</time>
      </trkpt>
      <trkpt lat="45.74512" lon="4.60699">
        <ele>736</ele>
        <time>2013-09-14T06:14:23Z</time>
      </trkpt>
      <trkpt lat="45.74532" lon="4.60722">
        <ele>733</ele>
        <time>2013-09-14T06:14:43Z</time>
      </trkpt>
      <trkpt lat="45.74551" lon="4.60756">
        <ele>730.8</ele>
        <time>2013-09-14T06:15:03Z</time>
      </trkpt>
      <trkpt lat="45.74567" lon="4.60801">
        <ele>730.5</ele>
        <time>2013-09-14T06:15:23Z</time>
      </trkpt>
      <trkpt lat="45.74588" lon="4.60861">
        <ele>730.6</ele>
        <time>2013-09-14T06:15:43Z</time>
      </trkpt>
      <trkpt lat="45.74712" lon="4.61052">
        <ele>722.2</ele>
        <time>2013-09-14T06:16:03Z</time>
      </trkpt>
      <trkpt lat="45.74792" lon="4.61129">
        <ele>727.6</ele>
        <time>2013-09-14T06:16:23Z</time>
      </trkpt>
      <trkpt lat="45.74834" lon="4.61136">
        <ele>732.9</ele>
        <time>2013-09-14T06:16:43Z</time>
      </trkpt>
      <trkpt lat="45.74917" lon="4.61081">
        <ele>737.2</ele>
        <time>2013-09-14T06:17:03Z</time>
      </trkpt>
      <trkpt lat="45.7502" lon="4.61034">
        <ele>748.2</ele>
        <time>2013-09-14T06:17:23Z</time>
      </trkpt>
      <trkpt lat="45.75106" lon="4.61026">
        <ele>747.6</ele>
        <time>2013-09-14T06:17:43Z</time>
      </trkpt>
      <trkpt lat="45.752" lon="4.61107">
        <ele>755.2</ele>
        <time>2013-09-14T06:18:03Z</time>
      </trkpt>
      <trkpt lat="45.75293" lon="4.61251">
        <ele>763.5</ele>
        <time>2013-09-14T06:18:23Z</time>
      </trkpt>
      <trkpt lat="45.7532" lon="4.61472">
        <ele>779.7</ele>
        <time>2013-09-14T06:18:43Z</time>
      </trkpt>
      <trkpt lat="45.75357" lon="4.61578">
        <ele>783.2</ele>
        <time>2013-09-14T06:19:03Z</time>
      </trkpt>
      <trkpt lat="45.75404" lon="4.616">
        <ele>783</ele>
        <time>2013-09-14T06:19:23Z</time>
      </trkpt>
      <trkpt lat="45.75448" lon="4.61626">
        <ele>781.9</ele>
        <time>2013-09-14T06:19:43Z</time>
      </trkpt>
      <trkpt lat="45.75483" lon="4.61641">
        <ele>778.1</ele>
        <time>2013-09-14T06:20:03Z</time>
      </trkpt>
      <trkpt lat="45.75511" lon="4.61663">
        <ele>774</ele>
        <time>2013-09-14T06:20:23Z</time>
      </trkpt>
      <trkpt lat="45.75544" lon="4.61689">
        <ele>770.3</ele>
        <time>2013-09-14T06:20:43Z</time>
      </trkpt>
      <trkpt lat="45.75571" lon="4.61726">
        <ele>765.8</ele>
        <time>2013-09-14T06:21:03Z</time>
      </trkpt>
      <trkpt lat="45.756" lon="4.61764">
        <ele>762</ele>
        <time>2013-09-14T06:21:23Z</time>
      </trkpt>
      <trkpt lat="45.75635" lon="4.61804">
        <ele>759.5</ele>
        <time>2013-09-14T06:21:43Z</time>
      </trkpt>
      <trkpt lat="45.75678" lon="4.61907">
        <ele>758.1</ele>
        <time>2013-09-14T06:22:03Z</time>
      </trkpt>
      <trkpt lat="45.7569" lon="4.62012">
        <ele>765.4</ele>
        <time>2013-09-14T06:22:23Z</time>
      </trkpt>
      <trkpt lat="45.75694" lon="4.62137">
        <ele>764.3</ele>
        <time>2013-09-14T06:22:43Z</time>
      </trkpt>
      <trkpt lat="45.757" lon="4.62246">
        <ele>761.9</ele>
        <time>2013-09-14T06:23:03Z</time>
      </trkpt>
      <trkpt lat="45.75706" lon="4.62357">
        <ele>759.7</ele>
        <time>2013-09-14T06:23:23Z</time>
      </trkpt>
      <trkpt lat="45.75714" lon="4.62488">
        <ele>759.7</ele>
        <time>2013-09-14T06:23:43Z</time>
      </trkpt>
      <trkpt lat="45.75722" lon="4.62595">
        <ele>757.9</ele>
        <time>2013-09-14T06:24:03Z</time>
      </trkpt>
      <trkpt lat="45.75735" lon="4.62681">
        <ele>759</ele>
        <time>2013-09-14T06:24:23Z</time>
      </trkpt>
      <trkpt lat="45.7576" lon="4.62761">
        <ele>760.4</ele>
        <time>2013-09-14T06:24:43Z</time>
      </trkpt>
      <trkpt lat="45.75815" lon="4.628">
        <ele>765.9</ele>
        <time>2013-09-14T06:25:03Z</time>
      </trkpt>
      <trkpt lat="45.75879" lon="4.62815">
        <ele>767.9</ele>
        <time>2013-09-14T06:25:23Z</time>
      </trkpt>
      <trkpt lat="45.75928" lon="4.6281">
        <ele>765.4</ele>
        <time>2013-09-14T06:25:43Z</time>
      </trkpt>
      <trkpt lat="45.75971" lon="4.62771">
        <ele>764.8</ele>
        <time>2013-09-14T06:26:03Z</time>
      </trkpt>
      <trkpt lat="45.76011" lon="4.62703">
        <ele>764.5</ele>
        <time>2013-09-14T06:26:23Z</time>
      </trkpt>
      <trkpt lat="45.7604" lon="4.6266">
        <ele>761.8</ele>
        <time>2013-09-14T06:26:43Z</time>
      </trkpt>
      <trkpt lat="45.76079" lon="4.62661">
        <ele>758.8</ele>
        <time>2013-09-14T06:27:03Z</time>
      </trkpt>
      <trkpt lat="45.76112" lon="4.6268">
        <ele>756.8</ele>
        <time>2013-09-14T06:27:23Z</time>
      </trkpt>
      <trkpt lat="45.76121" lon="4.62719">
        <ele>756.3</ele>
        <time>2013-09-14T06:27:43Z</time>
      </trkpt>
      <trkpt lat="45.76095" lon="4.62739">
        <ele>756.8</ele>
        <time>2013-09-14T06:28:03Z</time>
      </trkpt>
      <trkpt lat="45.76078" lon="4.62767">
        <ele>757.2</ele>
        <time>2013-09-14T06:28:23Z</time>
      </trkpt>
      <trkpt lat="45.76079" lon="4.62812">
        <ele>753.9</ele>
        <time>2013-09-14T06:28:43Z</time>
      </trkpt>
      <trkpt lat="45.76077" lon="4.62825">
        <ele>753</ele>
        <time>2013-09-14T06:29:03Z</time>
      </trkpt>
      <trkpt lat="45.76108" lon="4.62794">
        <ele>752</ele>
        <time>2013-09-14T06:29:23Z</time>
      </trkpt>
      <trkpt lat="45.76148" lon="4.62768">
        <ele>749.4</ele>
        <time>2013-09-14T06:29:43Z</time>
      </trkpt>
      <trkpt lat="45.7618" lon="4.62783">
        <ele>745.2</ele>
        <time>2013-09-14T06:30:03Z</time>
      </trkpt>
      <trkpt lat="45.76208" lon="4.62827">
        <ele>737.4</ele>
        <time>2013-09-14T06:30:23Z</time>
      </trkpt>
      <trkpt lat="45.7625" lon="4.62857">
        <ele>732.9</ele>
        <time>2013-09-14T06:30:43Z</time>
      </trkpt>
      <trkpt lat="45.7629" lon="4.62863">
        <ele>732.1</ele>
        <time>2013-09-14T06:31:03Z</time>
      </trkpt>
      <trkpt lat="45.76333" lon="4.62894">
        <ele>723.5</ele>
        <time>2013-09-14T06:31:23Z</time>
      </trkpt>
      <trkpt lat="45.76416" lon="4.62975">
        <ele>723.9</ele>
        <time>2013-09-14T06:31:43Z</time>
      </trkpt>
      <trkpt lat="45.76479" lon="4.63032">
        <ele>730.4</ele>
        <time>2013-09-14T06:32:03Z</time>
      </trkpt>
      <trkpt lat="45.76549" lon="4.63058">
        <ele>732.9</ele>
        <time>2013-09-14T06:32:23Z</time>
      </trkpt>
      <trkpt lat="45.76614" lon="4.6307">
        <ele>730.2</ele>
        <time>2013-09-14T06:32:43Z</time>
      </trkpt>
      <trkpt lat="45.7667" lon="4.63081">
        <ele>730</ele>
        <time>2013-09-14T06:33:03Z</time>
      </trkpt>
      <trkpt lat="45.76712" lon="4.63119">
        <ele>730.6</ele>
        <time>2013-09-14T06:33:23Z</time>
      </trkpt>
      <trkpt lat="45.76765" lon="4.63205">
        <ele>729.7</ele>
        <time>2013-09-14T06:33:43Z</time>
      </trkpt>
      <trkpt lat="45.76796" lon="4.63266">
        <ele>726</ele>
        <time>2013-09-14T06:34:03Z</time>
      </trkpt>
      <trkpt lat="45.76824" lon="4.63326">
        <ele>720</ele>
        <time>2013-09-14T06:34:23Z</time>
      </trkpt>
      <trkpt lat="45.76857" lon="4.63385">
        <ele>718.5</ele>
        <time>2013-09-14T06:34:43Z</time>
      </trkpt>
      <trkpt lat="45.76881" lon="4.63438">
        <ele>717.5</ele>
        <time>2013-09-14T06:35:03Z</time>
      </trkpt>
      <trkpt lat="45.76902" lon="4.63495">
        <ele>716.4</ele>
        <time>2013-09-14T06:35:23Z</time>
      </trkpt>
      <trkpt lat="45.76929" lon="4.63546">
        <ele>718.1</ele>
        <time>2013-09-14T06:35:43Z</time>
      </trkpt>
      <trkpt lat="45.76959" lon="4.63603">
        <ele>719.6</ele>
        <time>2013-09-14T06:36:03Z</time>
      </trkpt>
      <trkpt lat="45.76984" lon="4.63646">
        <ele>719</ele>
        <time>2013-09-14T06:36:23Z</time>
      </trkpt>
      <trkpt lat="45.77014" lon="4.63666">
        <ele>718.9</ele>
        <time>2013-09-14T06:36:43Z</time>
      </trkpt>
      <trkpt lat="45.77043" lon="4.63673">
        <ele>719.7</ele>
        <time>2013-09-14T06:37:03Z</time>
      </trkpt>
      <trkpt lat="45.77067" lon="4.63677">
        <ele>718</ele>
        <time>2013-09-14T06:37:23Z</time>
      </trkpt>
      <trkpt lat="45.77095" lon="4.63674">
        <ele>717.5</ele>
        <time>2013-09-14T06:37:43Z</time>
      </trkpt>
      <trkpt lat="45.77118" lon="4.63683">
        <ele>714.9</ele>
        <time>2013-09-14T06:38:03Z</time>
      </trkpt>
      <trkpt lat="45.77147" lon="4.63692">
        <ele>708.5</ele>
        <time>2013-09-14T06:38:23Z</time>
      </trkpt>
      <trkpt lat="45.77166" lon="4.63695">
        <ele>704.3</ele>
        <time>2013-09-14T06:38:43Z</time>
      </trkpt>
      <trkpt lat="45.77184" lon="4.63699">
        <ele>700.3</ele>
        <time>2013-09-14T06:39:03Z</time>
      </trkpt>
      <trkpt lat="45.77204" lon="4.63709">
        <ele>694.5</ele>
        <time>2013-09-14T06:39:23Z</time>
      </trkpt>
      <trkpt lat="45.77225" lon="4.63723">
        <ele>689.3</ele>
        <time>2013-09-14T06:39:43Z</time>
      </trkpt>
      <trkpt lat="45.77248" lon="4.63744">
        <ele>683.5</ele>
        <time>2013-09-14T06:40:03Z</time>
      </trkpt>
      <trkpt lat="45.77265" lon="4.63774">
        <ele>678.3</ele>
        <time>2013-09-14T06:40:23Z</time>
      </trkpt>
      <trkpt lat="45.77282" lon="4.638">
        <ele>674.7</ele>
        <time>2013-09-14T06:40:43Z</time>
      </trkpt>
      <trkpt lat="45.77304" lon="4.63816">
        <ele>671.3</ele>
        <time>2013-09-14T06:41:03Z</time>
      </trkpt>
      <trkpt lat="45.77326" lon="4.63821">
        <ele>668.7</ele>
        <time>2013-09-14T06:41:23Z</time>
      </trkpt>
      <trkpt lat="45.77353" lon="4.63817">
        <ele>666.1</ele>
        <time>2013-09-14T06:41:43Z</time>
      </trkpt>
      <trkpt lat="45.77378" lon="4.63803">
        <ele>663.2</ele>
        <time>2013-09-14T06:42:03Z</time>
      </trkpt>
      <trkpt lat="45.77398" lon="4.63786">
        <ele>658.1</ele>
        <time>2013-09-14T06:42:23Z</time>
      </trkpt>
      <trkpt lat="45.77423" lon="4.63772">
        <ele>651.3</ele>
        <time>2013-09-14T06:42:43Z</time>
      </trkpt>
      <trkpt lat="45.77441" lon="4.63765">
        <ele>646</ele>
        <time>2013-09-14T06:43:03Z</time>
      </trkpt>
      <trkpt lat="45.77456" lon="4.63749">
        <ele>640.8</ele>
        <time>2013-09-14T06:43:23Z</time>
      </trkpt>
      <trkpt lat="45.77473" lon="4.63738">
        <ele>635.6</ele>
        <time>2013-09-14T06:43:43Z</time>
      </trkpt>
      <trkpt lat="45.77491" lon="4.63739">
        <ele>631.8</ele>
        <time>2013-09-14T06:44:03Z</time>
      </trkpt>
      <trkpt lat="45.77516" lon="4.63753">
        <ele>627.7</ele>
        <time>2013-09-14T06:44:23Z</time>
      </trkpt>
      <trkpt lat="45.77536" lon="4.63776">
        <ele>625.9</ele>
        <time>2013-09-14T06:44:43Z</time>
      </trkpt>
      <trkpt lat="45.77558" lon="4.63794">
        <ele>622.4</ele>
        <time>2013-09-14T06:45:03Z</time>
      </trkpt>
      <trkpt lat="45.77586" lon="4.63822">
        <ele>615.7</ele>
        <time>2013-09-14T06:45:23Z</time>
      </trkpt>
      <trkpt lat="45.77624" lon="4.63859">
        <ele>608.8</ele>
        <time>2013-09-14T06:45:43Z</time>
      </trkpt>
      <trkpt lat="45.77709" lon="4.63919">
        <ele>603.1</ele>
        <time>2013-09-14T06:46:03Z</time>
      </trkpt>
      <trkpt lat="45.77755" lon="4.63938">
        <ele>603.2</ele>
        <time>2013-09-14T06:46:23Z</time>
      </trkpt>
      <trkpt lat="45.77794" lon="4.63984">
        <ele>603.3</ele>
        <time>2013-09-14T06:46:43Z</time>
      </trkpt>
      <trkpt lat="45.77818" lon="4.64043">
        <ele>602.5</ele>
        <time>2013-09-14T06:47:03Z</time>
      </trkpt>
      <trkpt lat="45.77835" lon="4.64145">
        <ele>596.6</ele>
        <time>2013-09-14T06:47:23Z</time>
      </trkpt>
      <trkpt lat="45.77848" lon="4.6427">
        <ele>593.3</ele>
        <time>2013-09-14T06:47:43Z</time>
      </trkpt>
      <trkpt lat="45.77832" lon="4.64423">
        <ele>592</ele>
        <time>2013-09-14T06:48:03Z</time>
      </trkpt>
      <trkpt lat="45.77833" lon="4.64507">
        <ele>593.3</ele>
        <time>2013-09-14T06:48:23Z</time>
      </trkpt>
      <trkpt lat="45.77839" lon="4.64565">
        <ele>593.1</ele>
        <time>2013-09-14T06:48:43Z</time>
      </trkpt>
      <trkpt lat="45.77837" lon="4.64616">
        <ele>587.4</ele>
        <time>2013-09-14T06:49:03Z</time>
      </trkpt>
      <trkpt lat="45.77831" lon="4.64707">
        <ele>580.6</ele>
        <time>2013-09-14T06:49:23Z</time>
      </trkpt>
      <trkpt lat="45.77824" lon="4.6477">
        <ele>578.9</ele>
        <time>2013-09-14T06:49:43Z</time>
      </trkpt>
      <trkpt lat="45.77814" lon="4.64818">
        <ele>575.8</ele>
        <time>2013-09-14T06:50:03Z</time>
      </trkpt>
      <trkpt lat="45.77806" lon="4.64871">
        <ele>573.8</ele>
        <time>2013-09-14T06:50:23Z</time>
      </trkpt>
      <trkpt lat="45.778" lon="4.64932">
        <ele>572.1</ele>
        <time>2013-09-14T06:50:43Z</time>
      </trkpt>
      <trkpt lat="45.778" lon="4.64986">
        <ele>573.3</ele>
        <time>2013-09-14T06:51:03Z</time>
      </trkpt>
      <trkpt lat="45.77799" lon="4.65059">
        <ele>573.5</ele>
        <time>2013-09-14T06:51:23Z</time>
      </trkpt>
      <trkpt lat="45.77811" lon="4.6515">
        <ele>575.2</ele>
        <time>2013-09-14T06:51:43Z</time>
      </trkpt>
      <trkpt lat="45.77816" lon="4.65194">
        <ele>573.6</ele>
        <time>2013-09-14T06:52:03Z</time>
      </trkpt>
      <trkpt lat="45.77816" lon="4.65196">
        <ele>573.5</ele>
        <time>2013-09-14T06:52:23Z</time>
      </trkpt>
      <trkpt lat="45.77816" lon="4.65196">
        <ele>573.6</ele>
        <time>2013-09-14T06:52:43Z</time>
      </trkpt>
      <trkpt lat="45.77816" lon="4.65196">
        <ele>573.6</ele>
        <time>2013-09-14T06:53:03Z</time>
      </trkpt>
      <trkpt lat="45.77824" lon="4.65223">
        <ele>573.9</ele>
        <time>2013-09-14T06:53:23Z</time>
      </trkpt>
      <trkpt lat="45.77832" lon="4.65272">
        <ele>573</ele>
        <time>2013-09-14T06:53:43Z</time>
      </trkpt>
      <trkpt lat="45.77844" lon="4.65319">
        <ele>572.8</ele>
        <time>2013-09-14T06:54:03Z</time>
      </trkpt>
      <trkpt lat="45.77835" lon="4.65363">
        <ele>568.5</ele>
        <time>2013-09-14T06:54:23Z</time>
      </trkpt>
      <trkpt lat="45.77822" lon="4.65404">
        <ele>564.8</ele>
        <time>2013-09-14T06:54:43Z</time>
      </trkpt>
      <trkpt lat="45.77806" lon="4.65449">
        <ele>561.6</ele>
        <time>2013-09-14T06:55:03Z</time>
      </trkpt>
      <trkpt lat="45.77791" lon="4.65491">
        <ele>559.5</ele>
        <time>2013-09-14T06:55:23Z</time>
      </trkpt>
      <trkpt lat="45.7777" lon="4.65524">
        <ele>557.2</ele>
        <time>2013-09-14T06:55:43Z</time>
      </trkpt>
      <trkpt lat="45.77759" lon="4.65562">
        <ele>556.4</ele>
        <time>2013-09-14T06:56:03Z</time>
      </trkpt>
      <trkpt lat="45.77761" lon="4.65608">
        <ele>556.1</ele>
        <time>2013-09-14T06:56:23Z</time>
      </trkpt>
      <trkpt lat="45.77768" lon="4.65638">
        <ele>555.3</ele>
        <time>2013-09-14T06:56:43Z</time>
      </trkpt>
      <trkpt lat="45.77773" lon="4.65666">
        <ele>553.5</ele>
        <time>2013-09-14T06:57:03Z</time>
      </trkpt>
      <trkpt lat="45.77788" lon="4.65693">
        <ele>552</ele>
        <time>2013-09-14T06:57:23Z</time>
      </trkpt>
      <trkpt lat="45.77795" lon="4.65715">
        <ele>550.1</ele>
        <time>2013-09-14T06:57:43Z</time>
      </trkpt>
      <trkpt lat="45.7781" lon="4.6574">
        <ele>546.6</ele>
        <time>2013-09-14T06:58:03Z</time>
      </trkpt>
      <trkpt lat="45.77816" lon="4.65764">
        <ele>543.6</ele>
        <time>2013-09-14T06:58:23Z</time>
      </trkpt>
      <trkpt lat="45.77825" lon="4.65786">
        <ele>540.2</ele>
        <time>2013-09-14T06:58:43Z</time>
      </trkpt>
      <trkpt lat="45.77839" lon="4.65806">
        <ele>536</ele>
        <time>2013-09-14T06:59:03Z</time>
      </trkpt>
      <trkpt lat="45.77859" lon="4.65823">
        <ele>531.5</ele>
        <time>2013-09-14T06:59:23Z</time>
      </trkpt>
      <trkpt lat="45.77862" lon="4.65857">
        <ele>527.3</ele>
        <time>2013-09-14T06:59:43Z</time>
      </trkpt>
      <trkpt lat="45.77871" lon="4.65895">
        <ele>520.5</ele>
        <time>2013-09-14T07:00:03Z</time>
      </trkpt>
      <trkpt lat="45.7789" lon="4.65935">
        <ele>511.2</ele>
        <time>2013-09-14T07:00:23Z</time>
      </trkpt>
      <trkpt lat="45.77901" lon="4.65976">
        <ele>505.6</ele>
        <time>2013-09-14T07:00:43Z</time>
      </trkpt>
      <trkpt lat="45.77931" lon="4.66033">
        <ele>503.1</ele>
        <time>2013-09-14T07:01:03Z</time>
      </trkpt>
      <trkpt lat="45.77946" lon="4.66081">
        <ele>502.8</ele>
        <time>2013-09-14T07:01:23Z</time>
      </trkpt>
      <trkpt lat="45.77957" lon="4.66118">
        <ele>503.9</ele>
        <time>2013-09-14T07:01:43Z</time>
      </trkpt>
      <trkpt lat="45.77963" lon="4.66159">
        <ele>500.1</ele>
        <time>2013-09-14T07:02:03Z</time>
      </trkpt>
      <trkpt lat="45.77969" lon="4.66207">
        <ele>494.7</ele>
        <time>2013-09-14T07:02:23Z</time>
      </trkpt>
      <trkpt lat="45.77967" lon="4.66266">
        <ele>490.7</ele>
        <time>2013-09-14T07:02:43Z</time>
      </trkpt>
      <trkpt lat="45.77961" lon="4.6632">
        <ele>490.4</ele>
        <time>2013-09-14T07:03:03Z</time>
      </trkpt>
      <trkpt lat="45.77959" lon="4.66387">
        <ele>490.8</ele>
        <time>2013-09-14T07:03:23Z</time>
      </trkpt>
      <trkpt lat="45.77965" lon="4.66435">
        <ele>488.6</ele>
        <time>2013-09-14T07:03:43Z</time>
      </trkpt>
      <trkpt lat="45.77968" lon="4.66487">
        <ele>485.7</ele>
        <time>2013-09-14T07:04:03Z</time>
      </trkpt>
      <trkpt lat="45.77965" lon="4.66527">
        <ele>483.3</ele>
        <time>2013-09-14T07:04:23Z</time>
      </trkpt>
      <trkpt lat="45.77953" lon="4.6656">
        <ele>479.3</ele>
        <time>2013-09-14T07:04:43Z</time>
      </trkpt>
      <trkpt lat="45.77932" lon="4.66587">
        <ele>472.3</ele>
        <time>2013-09-14T07:05:03Z</time>
      </trkpt>
      <trkpt lat="45.77913" lon="4.6661">
        <ele>466.1</ele>
        <time>2013-09-14T07:05:23Z</time>
      </trkpt>
      <trkpt lat="45.77888" lon="4.66624">
        <ele>460.7</ele>
        <time>2013-09-14T07:05:43Z</time>
      </trkpt>
      <trkpt lat="45.77857" lon="4.66618">
        <ele>456.9</ele>
        <time>2013-09-14T07:06:03Z</time>
      </trkpt>
      <trkpt lat="45.77827" lon="4.66612">
        <ele>452.6</ele>
        <time>2013-09-14T07:06:23Z</time>
      </trkpt>
      <trkpt lat="45.77802" lon="4.66617">
        <ele>447.7</ele>
        <time>2013-09-14T07:06:43Z</time>
      </trkpt>
      <trkpt lat="45.77785" lon="4.66606">
        <ele>445.6</ele>
        <time>2013-09-14T07:07:03Z</time>
      </trkpt>
      <trkpt lat="45.77787" lon="4.66643">
        <ele>443</ele>
        <time>2013-09-14T07:07:23Z</time>
      </trkpt>
      <trkpt lat="45.77793" lon="4.66685">
        <ele>441.5</ele>
        <time>2013-09-14T07:07:43Z</time>
      </trkpt>
      <trkpt lat="45.77802" lon="4.6673">
        <ele>439.3</ele>
        <time>2013-09-14T07:08:03Z</time>
      </trkpt>
      <trkpt lat="45.77809" lon="4.66775">
        <ele>436.1</ele>
        <time>2013-09-14T07:08:23Z</time>
      </trkpt>
      <trkpt lat="45.77809" lon="4.66814">
        <ele>433.1</ele>
        <time>2013-09-14T07:08:43Z</time>
      </trkpt>
      <trkpt lat="45.77802" lon="4.66863">
        <ele>429.8</ele>
        <time>2013-09-14T07:09:03Z</time>
      </trkpt>
      <trkpt lat="45.7775" lon="4.66896">
        <ele>425.1</ele>
        <time>2013-09-14T07:09:23Z</time>
      </trkpt>
      <trkpt lat="45.77722" lon="4.66983">
        <ele>422.9</ele>
        <time>2013-09-14T07:09:43Z</time>
      </trkpt>
      <trkpt lat="45.77688" lon="4.67048">
        <ele>421.1</ele>
        <time>2013-09-14T07:10:03Z</time>
      </trkpt>
      <trkpt lat="45.77652" lon="4.67089">
        <ele>418.7</ele>
        <time>2013-09-14T07:10:23Z</time>
      </trkpt>
      <trkpt lat="45.77619" lon="4.6713">
        <ele>417.6</ele>
        <time>2013-09-14T07:10:43Z</time>
      </trkpt>
      <trkpt lat="45.77583" lon="4.67162">
        <ele>415.7</ele>
        <time>2013-09-14T07:11:03Z</time>
      </trkpt>
      <trkpt lat="45.77549" lon="4.67194">
        <ele>414.8</ele>
        <time>2013-09-14T07:11:23Z</time>
      </trkpt>
      <trkpt lat="45.77519" lon="4.6723">
        <ele>410.7</ele>
        <time>2013-09-14T07:11:43Z</time>
      </trkpt>
      <trkpt lat="45.7749" lon="4.67265">
        <ele>406.1</ele>
        <time>2013-09-14T07:12:03Z</time>
      </trkpt>
      <trkpt lat="45.77454" lon="4.67295">
        <ele>402.4</ele>
        <time>2013-09-14T07:12:23Z</time>
      </trkpt>
      <trkpt lat="45.7742" lon="4.67326">
        <ele>397.6</ele>
        <time>2013-09-14T07:12:43Z</time>
      </trkpt>
      <trkpt lat="45.77387" lon="4.67359">
        <ele>394</ele>
        <time>2013-09-14T07:13:03Z</time>
      </trkpt>
      <trkpt lat="45.77353" lon="4.67389">
        <ele>390.7</ele>
        <time>2013-09-14T07:13:23Z</time>
      </trkpt>
      <trkpt lat="45.7732" lon="4.67422">
        <ele>387.4</ele>
        <time>2013-09-14T07:13:43Z</time>
      </trkpt>
      <trkpt lat="45.77288" lon="4.67455">
        <ele>384.8</ele>
        <time>2013-09-14T07:14:03Z</time>
      </trkpt>
      <trkpt lat="45.77251" lon="4.67486">
        <ele>380.8</ele>
        <time>2013-09-14T07:14:23Z</time>
      </trkpt>
      <trkpt lat="45.77215" lon="4.67516">
        <ele>377.3</ele>
        <time>2013-09-14T07:14:43Z</time>
      </trkpt>
      <trkpt lat="45.77178" lon="4.67549">
        <ele>373.8</ele>
        <time>2013-09-14T07:15:03Z</time>
      </trkpt>
      <trkpt lat="45.7714" lon="4.67581">
        <ele>370.4</ele>
        <time>2013-09-14T07:15:23Z</time>
      </trkpt>
      <trkpt lat="45.77106" lon="4.67608">
        <ele>367.9</ele>
        <time>2013-09-14T07:15:43Z</time>
      </trkpt>
      <trkpt lat="45.77066" lon="4.67632">
        <ele>365.7</ele>
        <time>2013-09-14T07:16:03Z</time>
      </trkpt>
      <trkpt lat="45.77025" lon="4.67671">
        <ele>362.3</ele>
        <time>2013-09-14T07:16:23Z</time>
      </trkpt>
      <trkpt lat="45.76996" lon="4.6771">
        <ele>358</ele>
        <time>2013-09-14T07:16:43Z</time>
      </trkpt>
      <trkpt lat="45.76974" lon="4.67755">
        <ele>353.8</ele>
        <time>2013-09-14T07:17:03Z</time>
      </trkpt>
      <trkpt lat="45.76955" lon="4.67808">
        <ele>350.1</ele>
        <time>2013-09-14T07:17:23Z</time>
      </trkpt>
      <trkpt lat="45.76934" lon="4.67861">
        <ele>346.4</ele>
        <time>2013-09-14T07:17:43Z</time>
      </trkpt>
      <trkpt lat="45.7692" lon="4.67912">
        <ele>344.1</ele>
        <time>2013-09-14T07:18:03Z</time>
      </trkpt>
      <trkpt lat="45.76906" lon="4.67964">
        <ele>342.4</ele>
        <time>2013-09-14T07:18:23Z</time>
      </trkpt>
      <trkpt lat="45.76878" lon="4.68002">
        <ele>340.6</ele>
        <time>2013-09-14T07:18:43Z</time>
      </trkpt>
      <trkpt lat="45.76852" lon="4.68026">
        <ele>340.8</ele>
        <time>2013-09-14T07:19:03Z</time>
      </trkpt>
      <trkpt lat="45.76822" lon="4.68048">
        <ele>341.1</ele>
        <time>2013-09-14T07:19:23Z</time>
      </trkpt>
      <trkpt lat="45.76762" lon="4.681">
        <ele>340.4</ele>
        <time>2013-09-14T07:19:43Z</time>
      </trkpt>
      <trkpt lat="45.76705" lon="4.68197">
        <ele>336.6</ele>
        <time>2013-09-14T07:20:03Z</time>
      </trkpt>
      <trkpt lat="45.76631" lon="4.68244">
        <ele>336.1</ele>
        <time>2013-09-14T07:20:23Z</time>
      </trkpt>
      <trkpt lat="45.7657" lon="4.68314">
        <ele>335</ele>
        <time>2013-09-14T07:20:43Z</time>
      </trkpt>
      <trkpt lat="45.76501" lon="4.68362">
        <ele>336.1</ele>
        <time>2013-09-14T07:21:03Z</time>
      </trkpt>
      <trkpt lat="45.76432" lon="4.68405">
        <ele>335.9</ele>
        <time>2013-09-14T07:21:23Z</time>
      </trkpt>
      <trkpt lat="45.76367" lon="4.68416">
        <ele>332.5</ele>
        <time>2013-09-14T07:21:43Z</time>
      </trkpt>
      <trkpt lat="45.76291" lon="4.68437">
        <ele>331</ele>
        <time>2013-09-14T07:22:03Z</time>
      </trkpt>
      <trkpt lat="45.76176" lon="4.68498">
        <ele>333.5</ele>
        <time>2013-09-14T07:22:23Z</time>
      </trkpt>
      <trkpt lat="45.76075" lon="4.68656">
        <ele>336.8</ele>
        <time>2013-09-14T07:22:43Z</time>
      </trkpt>
      <trkpt lat="45.75995" lon="4.68741">
        <ele>338.3</ele>
        <time>2013-09-14T07:23:03Z</time>
      </trkpt>
      <trkpt lat="45.75929" lon="4.68813">
        <ele>336.8</ele>
        <time>2013-09-14T07:23:23Z</time>
      </trkpt>
      <trkpt lat="45.75877" lon="4.68866">
        <ele>335.4</ele>
        <time>2013-09-14T07:23:43Z</time>
      </trkpt>
      <trkpt lat="45.75798" lon="4.68861">
        <ele>336.6</ele>
        <time>2013-09-14T07:24:03Z</time>
      </trkpt>
      <trkpt lat="45.75722" lon="4.68847">
        <ele>333.7</ele>
        <time>2013-09-14T07:24:23Z</time>
      </trkpt>
      <trkpt lat="45.75659" lon="4.68844">
        <ele>329.9</ele>
        <time>2013-09-14T07:24:43Z</time>
      </trkpt>
      <trkpt lat="45.75616" lon="4.68843">
        <ele>326.8</ele>
        <time>2013-09-14T07:25:03Z</time>
      </trkpt>
      <trkpt lat="45.75579" lon="4.68843">
        <ele>323.1</ele>
        <time>2013-09-14T07:25:23Z</time>
      </trkpt>
      <trkpt lat="45.75545" lon="4.68844">
        <ele>319.7</ele>
        <time>2013-09-14T07:25:43Z</time>
      </trkpt>
      <trkpt lat="45.75519" lon="4.68846">
        <ele>315.9</ele>
        <time>2013-09-14T07:26:03Z</time>
      </trkpt>
      <trkpt lat="45.75494" lon="4.68857">
        <ele>311.8</ele>
        <time>2013-09-14T07:26:23Z</time>
      </trkpt>
      <trkpt lat="45.75471" lon="4.68865">
        <ele>308.2</ele>
        <time>2013-09-14T07:26:43Z</time>
      </trkpt>
      <trkpt lat="45.7545" lon="4.68877">
        <ele>307.2</ele>
        <time>2013-09-14T07:27:03Z</time>
      </trkpt>
      <trkpt lat="45.75429" lon="4.68889">
        <ele>309.7</ele>
        <time>2013-09-14T07:27:23Z</time>
      </trkpt>
      <trkpt lat="45.75412" lon="4.68902">
        <ele>311.7</ele>
        <time>2013-09-14T07:27:43Z</time>
      </trkpt>
      <trkpt lat="45.754" lon="4.68941">
        <ele>312</ele>
        <time>2013-09-14T07:28:03Z</time>
      </trkpt>
      <trkpt lat="45.75371" lon="4.68954">
        <ele>315.6</ele>
        <time>2013-09-14T07:28:23Z</time>
      </trkpt>
      <trkpt lat="45.75269" lon="4.68985">
        <ele>326.5</ele>
        <time>2013-09-14T07:28:43Z</time>
      </trkpt>
      <trkpt lat="45.75122" lon="4.69041">
        <ele>337.1</ele>
        <time>2013-09-14T07:29:03Z</time>
      </trkpt>
      <trkpt lat="45.75016" lon="4.69019">
        <ele>340.9</ele>
        <time>2013-09-14T07:29:23Z</time>
      </trkpt>
      <trkpt lat="45.74953" lon="4.68996">
        <ele>342.7</ele>
        <time>2013-09-14T07:29:43Z</time>
      </trkpt>
      <trkpt lat="45.74945" lon="4.68994">
        <ele>342.9</ele>
        <time>2013-09-14T07:30:03Z</time>
      </trkpt>
      <trkpt lat="45.74945" lon="4.68994">
        <ele>342.9</ele>
        <time>2013-09-14T07:30:23Z</time>
      </trkpt>
      <trkpt lat="45.74905" lon="4.68994">
        <ele>343.5</ele>
        <time>2013-09-14T07:30:43Z</time>
      </trkpt>
      <trkpt lat="45.74839" lon="4.68988">
        <ele>341.5</ele>
        <time>2013-09-14T07:31:03Z</time>
      </trkpt>
      <trkpt lat="45.74762" lon="4.68984">
        <ele>335.7</ele>
        <time>2013-09-14T07:31:23Z</time>
      </trkpt>
      <trkpt lat="45.74723" lon="4.68939">
        <ele>333.8</ele>
        <time>2013-09-14T07:31:43Z</time>
      </trkpt>
      <trkpt lat="45.74677" lon="4.68795">
        <ele>333.5</ele>
        <time>2013-09-14T07:32:03Z</time>
      </trkpt>
      <trkpt lat="45.74612" lon="4.68628">
        <ele>336</ele>
        <time>2013-09-14T07:32:23Z</time>
      </trkpt>
      <trkpt lat="45.74545" lon="4.68468">
        <ele>334.9</ele>
        <time>2013-09-14T07:32:43Z</time>
      </trkpt>
      <trkpt lat="45.74519" lon="4.68316">
        <ele>337.7</ele>
        <time>2013-09-14T07:33:03Z</time>
      </trkpt>
      <trkpt lat="45.74583" lon="4.68125">
        <ele>348</ele>
        <time>2013-09-14T07:33:23Z</time>
      </trkpt>
      <trkpt lat="45.74551" lon="4.67993">
        <ele>345</ele>
        <time>2013-09-14T07:33:43Z</time>
      </trkpt>
      <trkpt lat="45.74522" lon="4.67868">
        <ele>343</ele>
        <time>2013-09-14T07:34:03Z</time>
      </trkpt>
      <trkpt lat="45.74534" lon="4.67691">
        <ele>348</ele>
        <time>2013-09-14T07:34:23Z</time>
      </trkpt>
      <trkpt lat="45.74526" lon="4.67589">
        <ele>349</ele>
        <time>2013-09-14T07:34:43Z</time>
      </trkpt>
      <trkpt lat="45.74519" lon="4.67495">
        <ele>350.9</ele>
        <time>2013-09-14T07:35:03Z</time>
      </trkpt>
      <trkpt lat="45.7444" lon="4.67414">
        <ele>358.2</ele>
        <time>2013-09-14T07:35:23Z</time>
      </trkpt>
      <trkpt lat="45.74342" lon="4.67169">
        <ele>374.2</ele>
        <time>2013-09-14T07:35:43Z</time>
      </trkpt>
      <trkpt lat="45.74241" lon="4.66888">
        <ele>399</ele>
        <time>2013-09-14T07:36:03Z</time>
      </trkpt>
      <trkpt lat="45.74087" lon="4.6675">
        <ele>423.6</ele>
        <time>2013-09-14T07:36:23Z</time>
      </trkpt>
      <trkpt lat="45.73936" lon="4.66764">
        <ele>432</ele>
        <time>2013-09-14T07:36:43Z</time>
      </trkpt>
      <trkpt lat="45.73849" lon="4.6673">
        <ele>427.3</ele>
        <time>2013-09-14T07:37:03Z</time>
      </trkpt>
      <trkpt lat="45.7378" lon="4.6664">
        <ele>426.3</ele>
        <time>2013-09-14T07:37:23Z</time>
      </trkpt>
      <trkpt lat="45.73821" lon="4.66507">
        <ele>439.8</ele>
        <time>2013-09-14T07:37:43Z</time>
      </trkpt>
      <trkpt lat="45.73842" lon="4.66388">
        <ele>448.7</ele>
        <time>2013-09-14T07:38:03Z</time>
      </trkpt>
      <trkpt lat="45.73801" lon="4.66319">
        <ele>443.3</ele>
        <time>2013-09-14T07:38:23Z</time>
      </trkpt>
      <trkpt lat="45.73842" lon="4.66277">
        <ele>448.2</ele>
        <time>2013-09-14T07:38:43Z</time>
      </trkpt>
      <trkpt lat="45.73864" lon="4.66206">
        <ele>447.1</ele>
        <time>2013-09-14T07:39:03Z</time>
      </trkpt>
      <trkpt lat="45.73889" lon="4.6612">
        <ele>442.7</ele>
        <time>2013-09-14T07:39:23Z</time>
      </trkpt>
      <trkpt lat="45.73923" lon="4.66031">
        <ele>437</ele>
        <time>2013-09-14T07:39:43Z</time>
      </trkpt>
      <trkpt lat="45.73988" lon="4.65912">
        <ele>437.7</ele>
        <time>2013-09-14T07:40:03Z</time>
      </trkpt>
      <trkpt lat="45.74004" lon="4.65783">
        <ele>439.5</ele>
        <time>2013-09-14T07:40:23Z</time>
      </trkpt>
      <trkpt lat="45.74041" lon="4.65699">
        <ele>441.6</ele>
        <time>2013-09-14T07:40:43Z</time>
      </trkpt>
      <trkpt lat="45.74033" lon="4.65685">
        <ele>440</ele>
        <time>2013-09-14T07:41:03Z</time>
      </trkpt>
      <trkpt lat="45.74012" lon="4.65678">
        <ele>436.7</ele>
        <time>2013-09-14T07:41:23Z</time>
      </trkpt>
      <trkpt lat="45.73984" lon="4.6567">
        <ele>432.7</ele>
        <time>2013-09-14T07:41:43Z</time>
      </trkpt>
      <trkpt lat="45.73955" lon="4.65687">
        <ele>429</ele>
        <time>2013-09-14T07:42:03Z</time>
      </trkpt>
      <trkpt lat="45.7393" lon="4.65708">
        <ele>426.2</ele>
        <time>2013-09-14T07:42:23Z</time>
      </trkpt>
      <trkpt lat="45.73898" lon="4.65715">
        <ele>422.1</ele>
        <time>2013-09-14T07:42:43Z</time>
      </trkpt>
      <trkpt lat="45.73869" lon="4.65711">
        <ele>418.5</ele>
        <time>2013-09-14T07:43:03Z</time>
      </trkpt>
      <trkpt lat="45.73838" lon="4.65709">
        <ele>415.9</ele>
        <time>2013-09-14T07:43:23Z</time>
      </trkpt>
      <trkpt lat="45.7381" lon="4.65681">
        <ele>412.1</ele>
        <time>2013-09-14T07:43:43Z</time>
      </trkpt>
      <trkpt lat="45.73783" lon="4.65668">
        <ele>408.4</ele>
        <time>2013-09-14T07:44:03Z</time>
      </trkpt>
      <trkpt lat="45.73759" lon="4.65658">
        <ele>404.4</ele>
        <time>2013-09-14T07:44:23Z</time>
      </trkpt>
      <trkpt lat="45.7373" lon="4.6565">
        <ele>400.1</ele>
        <time>2013-09-14T07:44:43Z</time>
      </trkpt>
      <trkpt lat="45.73705" lon="4.65656">
        <ele>397.2</ele>
        <time>2013-09-14T07:45:03Z</time>
      </trkpt>
      <trkpt lat="45.73672" lon="4.65649">
        <ele>394</ele>
        <time>2013-09-14T07:45:23Z</time>
      </trkpt>
      <trkpt lat="45.73642" lon="4.65648">
        <ele>391.3</ele>
        <time>2013-09-14T07:45:43Z</time>
      </trkpt>
      <trkpt lat="45.7361" lon="4.65644">
        <ele>388</ele>
        <time>2013-09-14T07:46:03Z</time>
      </trkpt>
      <trkpt lat="45.73576" lon="4.65642">
        <ele>384.1</ele>
        <time>2013-09-14T07:46:23Z</time>
      </trkpt>
      <trkpt lat="45.73543" lon="4.65641">
        <ele>380.3</ele>
        <time>2013-09-14T07:46:43Z</time>
      </trkpt>
      <trkpt lat="45.73511" lon="4.6564">
        <ele>376.4</ele>
        <time>2013-09-14T07:47:03Z</time>
      </trkpt>
      <trkpt lat="45.73477" lon="4.65633">
        <ele>371.8</ele>
        <time>2013-09-14T07:47:23Z</time>
      </trkpt>
      <trkpt lat="45.73442" lon="4.65632">
        <ele>368.3</ele>
        <time>2013-09-14T07:47:43Z</time>
      </trkpt>
      <trkpt lat="45.73406" lon="4.65639">
        <ele>365.7</ele>
        <time>2013-09-14T07:48:03Z</time>
      </trkpt>
      <trkpt lat="45.73371" lon="4.65658">
        <ele>363.4</ele>
        <time>2013-09-14T07:48:23Z</time>
      </trkpt>
      <trkpt lat="45.73337" lon="4.65681">
        <ele>362.6</ele>
        <time>2013-09-14T07:48:43Z</time>
      </trkpt>
      <trkpt lat="45.73305" lon="4.65655">
        <ele>363.5</ele>
        <time>2013-09-14T07:49:03Z</time>
      </trkpt>
      <trkpt lat="45.73271" lon="4.65617">
        <ele>367.5</ele>
        <time>2013-09-14T07:49:23Z</time>
      </trkpt>
      <trkpt lat="45.73139" lon="4.65631">
        <ele>376.4</ele>
        <time>2013-09-14T07:49:43Z</time>
      </trkpt>
      <trkpt lat="45.73011" lon="4.65582">
        <ele>385.6</ele>
        <time>2013-09-14T07:50:03Z</time>
      </trkpt>
      <trkpt lat="45.72919" lon="4.65564">
        <ele>386.4</ele>
        <time>2013-09-14T07:50:23Z</time>
      </trkpt>
      <trkpt lat="45.72844" lon="4.65538">
        <ele>390.4</ele>
        <time>2013-09-14T07:50:43Z</time>
      </trkpt>
      <trkpt lat="45.72838" lon="4.65313">
        <ele>418.7</ele>
        <time>2013-09-14T07:51:03Z</time>
      </trkpt>
      <trkpt lat="45.72841" lon="4.65105">
        <ele>434.2</ele>
        <time>2013-09-14T07:51:23Z</time>
      </trkpt>
      <trkpt lat="45.72843" lon="4.64953">
        <ele>433.4</ele>
        <time>2013-09-14T07:51:43Z</time>
      </trkpt>
      <trkpt lat="45.72904" lon="4.64812">
        <ele>443.2</ele>
        <time>2013-09-14T07:52:03Z</time>
      </trkpt>
      <trkpt lat="45.72872" lon="4.64733">
        <ele>437.8</ele>
        <time>2013-09-14T07:52:23Z</time>
      </trkpt>
      <trkpt lat="45.72847" lon="4.64683">
        <ele>435.4</ele>
        <time>2013-09-14T07:52:43Z</time>
      </trkpt>
      <trkpt lat="45.72825" lon="4.64629">
        <ele>436.1</ele>
        <time>2013-09-14T07:53:03Z</time>
      </trkpt>
      <trkpt lat="45.72745" lon="4.64429">
        <ele>453.3</ele>
        <time>2013-09-14T07:53:23Z</time>
      </trkpt>
      <trkpt lat="45.72646" lon="4.64241">
        <ele>456.6</ele>
        <time>2013-09-14T07:53:43Z</time>
      </trkpt>
      <trkpt lat="45.7262" lon="4.64162">
        <ele>450.7</ele>
        <time>2013-09-14T07:54:03Z</time>
      </trkpt>
      <trkpt lat="45.72605" lon="4.64106">
        <ele>447.7</ele>
        <time>2013-09-14T07:54:23Z</time>
      </trkpt>
      <trkpt lat="45.72606" lon="4.64046">
        <ele>449.1</ele>
        <time>2013-09-14T07:54:43Z</time>
      </trkpt>
      <trkpt lat="45.72594" lon="4.64051">
        <ele>447.3</ele>
        <time>2013-09-14T07:55:03Z</time>
      </trkpt>
      <trkpt lat="45.72558" lon="4.64126">
        <ele>441.2</ele>
        <time>2013-09-14T07:55:23Z</time>
      </trkpt>
      <trkpt lat="45.72498" lon="4.64163">
        <ele>438.2</ele>
        <time>2013-09-14T07:55:43Z</time>
      </trkpt>
      <trkpt lat="45.72448" lon="4.64182">
        <ele>435.6</ele>
        <time>2013-09-14T07:56:03Z</time>
      </trkpt>
      <trkpt lat="45.72412" lon="4.64231">
        <ele>431.9</ele>
        <time>2013-09-14T07:56:23Z</time>
      </trkpt>
      <trkpt lat="45.72387" lon="4.64234">
        <ele>427.9</ele>
        <time>2013-09-14T07:56:43Z</time>
      </trkpt>
      <trkpt lat="45.7236" lon="4.64237">
        <ele>423.7</ele>
        <time>2013-09-14T07:57:03Z</time>
      </trkpt>
      <trkpt lat="45.72336" lon="4.6424">
        <ele>420.2</ele>
        <time>2013-09-14T07:57:23Z</time>
      </trkpt>
      <trkpt lat="45.72311" lon="4.64244">
        <ele>416.5</ele>
        <time>2013-09-14T07:57:43Z</time>
      </trkpt>
      <trkpt lat="45.72286" lon="4.64247">
        <ele>412.6</ele>
        <time>2013-09-14T07:58:03Z</time>
      </trkpt>
      <trkpt lat="45.72261" lon="4.6425">
        <ele>408.1</ele>
        <time>2013-09-14T07:58:23Z</time>
      </trkpt>
      <trkpt lat="45.72234" lon="4.64266">
        <ele>403.7</ele>
        <time>2013-09-14T07:58:43Z</time>
      </trkpt>
      <trkpt lat="45.72211" lon="4.64286">
        <ele>400.2</ele>
        <time>2013-09-14T07:59:03Z</time>
      </trkpt>
      <trkpt lat="45.72189" lon="4.64303">
        <ele>395.9</ele>
        <time>2013-09-14T07:59:23Z</time>
      </trkpt>
      <trkpt lat="45.72161" lon="4.64317">
        <ele>390.2</ele>
        <time>2013-09-14T07:59:43Z</time>
      </trkpt>
      <trkpt lat="45.72137" lon="4.6434">
        <ele>385.6</ele>
        <time>2013-09-14T08:00:03Z</time>
      </trkpt>
      <trkpt lat="45.7212" lon="4.64362">
        <ele>382.1</ele>
        <time>2013-09-14T08:00:23Z</time>
      </trkpt>
      <trkpt lat="45.72113" lon="4.64392">
        <ele>379.7</ele>
        <time>2013-09-14T08:00:43Z</time>
      </trkpt>
      <trkpt lat="45.72111" lon="4.64436">
        <ele>377.4</ele>
        <time>2013-09-14T08:01:03Z</time>
      </trkpt>
      <trkpt lat="45.72104" lon="4.64476">
        <ele>373.9</ele>
        <time>2013-09-14T08:01:23Z</time>
      </trkpt>
      <trkpt lat="45.72091" lon="4.64514">
        <ele>370</ele>
        <time>2013-09-14T08:01:43Z</time>
      </trkpt>
      <trkpt lat="45.72068" lon="4.64534">
        <ele>367.1</ele>
        <time>2013-09-14T08:02:03Z</time>
      </trkpt>
      <trkpt lat="45.72033" lon="4.64558">
        <ele>366.4</ele>
        <time>2013-09-14T08:02:23Z</time>
      </trkpt>
      <trkpt lat="45.71901" lon="4.64562">
        <ele>390.4</ele>
        <time>2013-09-14T08:02:43Z</time>
      </trkpt>
      <trkpt lat="45.71801" lon="4.64635">
        <ele>411.3</ele>
        <time>2013-09-14T08:03:03Z</time>
      </trkpt>
      <trkpt lat="45.71762" lon="4.64665">
        <ele>415.7</ele>
        <time>2013-09-14T08:03:23Z</time>
      </trkpt>
      <trkpt lat="45.71739" lon="4.64756">
        <ele>416.9</ele>
        <time>2013-09-14T08:03:43Z</time>
      </trkpt>
      <trkpt lat="45.71731" lon="4.64943">
        <ele>432.8</ele>
        <time>2013-09-14T08:04:03Z</time>
      </trkpt>
      <trkpt lat="45.71664" lon="4.6506">
        <ele>445.2</ele>
        <time>2013-09-14T08:04:23Z</time>
      </trkpt>
      <trkpt lat="45.71547" lon="4.65166">
        <ele>461.4</ele>
        <time>2013-09-14T08:04:43Z</time>
      </trkpt>
      <trkpt lat="45.71422" lon="4.65215">
        <ele>491.9</ele>
        <time>2013-09-14T08:05:03Z</time>
      </trkpt>
      <trkpt lat="45.71407" lon="4.65286">
        <ele>486</ele>
        <time>2013-09-14T08:05:23Z</time>
      </trkpt>
      <trkpt lat="45.7139" lon="4.65335">
        <ele>484.6</ele>
        <time>2013-09-14T08:05:43Z</time>
      </trkpt>
      <trkpt lat="45.71394" lon="4.65368">
        <ele>477.3</ele>
        <time>2013-09-14T08:06:03Z</time>
      </trkpt>
      <trkpt lat="45.71437" lon="4.65418">
        <ele>461</ele>
        <time>2013-09-14T08:06:23Z</time>
      </trkpt>
      <trkpt lat="45.71438" lon="4.65522">
        <ele>461.4</ele>
        <time>2013-09-14T08:06:43Z</time>
      </trkpt>
      <trkpt lat="45.71401" lon="4.65593">
        <ele>477</ele>
        <time>2013-09-14T08:07:03Z</time>
      </trkpt>
      <trkpt lat="45.71363" lon="4.65746">
        <ele>499.5</ele>
        <time>2013-09-14T08:07:23Z</time>
      </trkpt>
      <trkpt lat="45.7136" lon="4.6582">
        <ele>499.1</ele>
        <time>2013-09-14T08:07:43Z</time>
      </trkpt>
      <trkpt lat="45.71368" lon="4.65869">
        <ele>495.4</ele>
        <time>2013-09-14T08:08:03Z</time>
      </trkpt>
      <trkpt lat="45.71392" lon="4.65892">
        <ele>489.6</ele>
        <time>2013-09-14T08:08:23Z</time>
      </trkpt>
      <trkpt lat="45.71416" lon="4.65914">
        <ele>484.2</ele>
        <time>2013-09-14T08:08:43Z</time>
      </trkpt>
      <trkpt lat="45.7144" lon="4.65932">
        <ele>479.2</ele>
        <time>2013-09-14T08:09:03Z</time>
      </trkpt>
      <trkpt lat="45.71465" lon="4.65953">
        <ele>474.5</ele>
        <time>2013-09-14T08:09:23Z</time>
      </trkpt>
      <trkpt lat="45.71491" lon="4.65975">
        <ele>469.6</ele>
        <time>2013-09-14T08:09:43Z</time>
      </trkpt>
      <trkpt lat="45.71515" lon="4.66">
        <ele>465.4</ele>
        <time>2013-09-14T08:10:03Z</time>
      </trkpt>
      <trkpt lat="45.7154" lon="4.66024">
        <ele>460.8</ele>
        <time>2013-09-14T08:10:23Z</time>
      </trkpt>
      <trkpt lat="45.71564" lon="4.66045">
        <ele>457.1</ele>
        <time>2013-09-14T08:10:43Z</time>
      </trkpt>
      <trkpt lat="45.71589" lon="4.66075">
        <ele>453.9</ele>
        <time>2013-09-14T08:11:03Z</time>
      </trkpt>
      <trkpt lat="45.71612" lon="4.66117">
        <ele>450.6</ele>
        <time>2013-09-14T08:11:23Z</time>
      </trkpt>
      <trkpt lat="45.7164" lon="4.66159">
        <ele>445.6</ele>
        <time>2013-09-14T08:11:43Z</time>
      </trkpt>
      <trkpt lat="45.71658" lon="4.66218">
        <ele>443.7</ele>
        <time>2013-09-14T08:12:03Z</time>
      </trkpt>
      <trkpt lat="45.71632" lon="4.66302">
        <ele>443.4</ele>
        <time>2013-09-14T08:12:23Z</time>
      </trkpt>
      <trkpt lat="45.71597" lon="4.66368">
        <ele>440.6</ele>
        <time>2013-09-14T08:12:43Z</time>
      </trkpt>
      <trkpt lat="45.71562" lon="4.66435">
        <ele>434.4</ele>
        <time>2013-09-14T08:13:03Z</time>
      </trkpt>
      <trkpt lat="45.71531" lon="4.66465">
        <ele>432.9</ele>
        <time>2013-09-14T08:13:23Z</time>
      </trkpt>
      <trkpt lat="45.71486" lon="4.66497">
        <ele>431.2</ele>
        <time>2013-09-14T08:13:43Z</time>
      </trkpt>
      <trkpt lat="45.71423" lon="4.66525">
        <ele>430.6</ele>
        <time>2013-09-14T08:14:03Z</time>
      </trkpt>
      <trkpt lat="45.71365" lon="4.6656">
        <ele>428.7</ele>
        <time>2013-09-14T08:14:23Z</time>
      </trkpt>
      <trkpt lat="45.71273" lon="4.66583">
        <ele>425.8</ele>
        <time>2013-09-14T08:14:43Z</time>
      </trkpt>
      <trkpt lat="45.7121" lon="4.66615">
        <ele>423.1</ele>
        <time>2013-09-14T08:15:03Z</time>
      </trkpt>
      <trkpt lat="45.71152" lon="4.66646">
        <ele>417.7</ele>
        <time>2013-09-14T08:15:23Z</time>
      </trkpt>
      <trkpt lat="45.71092" lon="4.66655">
        <ele>414.7</ele>
        <time>2013-09-14T08:15:43Z</time>
      </trkpt>
      <trkpt lat="45.71041" lon="4.66656">
        <ele>412.9</ele>
        <time>2013-09-14T08:16:03Z</time>
      </trkpt>
      <trkpt lat="45.70985" lon="4.66676">
        <ele>411.2</ele>
        <time>2013-09-14T08:16:23Z</time>
      </trkpt>
      <trkpt lat="45.70928" lon="4.66712">
        <ele>408.8</ele>
        <time>2013-09-14T08:16:43Z</time>
      </trkpt>
      <trkpt lat="45.70862" lon="4.66758">
        <ele>407.1</ele>
        <time>2013-09-14T08:17:03Z</time>
      </trkpt>
      <trkpt lat="45.70761" lon="4.66766">
        <ele>402.5</ele>
        <time>2013-09-14T08:17:23Z</time>
      </trkpt>
      <trkpt lat="45.70686" lon="4.66679">
        <ele>397</ele>
        <time>2013-09-14T08:17:43Z</time>
      </trkpt>
      <trkpt lat="45.7067" lon="4.6654">
        <ele>397.8</ele>
        <time>2013-09-14T08:18:03Z</time>
      </trkpt>
      <trkpt lat="45.70687" lon="4.6635">
        <ele>408.9</ele>
        <time>2013-09-14T08:18:23Z</time>
      </trkpt>
      <trkpt lat="45.70678" lon="4.66252">
        <ele>418.5</ele>
        <time>2013-09-14T08:18:43Z</time>
      </trkpt>
      <trkpt lat="45.70591" lon="4.66244">
        <ele>415.6</ele>
        <time>2013-09-14T08:19:03Z</time>
      </trkpt>
      <trkpt lat="45.70547" lon="4.66282">
        <ele>413.1</ele>
        <time>2013-09-14T08:19:23Z</time>
      </trkpt>
      <trkpt lat="45.70524" lon="4.6634">
        <ele>410.7</ele>
        <time>2013-09-14T08:19:43Z</time>
      </trkpt>
      <trkpt lat="45.70509" lon="4.66402">
        <ele>408.8</ele>
        <time>2013-09-14T08:20:03Z</time>
      </trkpt>
      <trkpt lat="45.70497" lon="4.66447">
        <ele>407.2</ele>
        <time>2013-09-14T08:20:23Z</time>
      </trkpt>
      <trkpt lat="45.7048" lon="4.66498">
        <ele>403.1</ele>
        <time>2013-09-14T08:20:43Z</time>
      </trkpt>
      <trkpt lat="45.70463" lon="4.66568">
        <ele>396.8</ele>
        <time>2013-09-14T08:21:03Z</time>
      </trkpt>
      <trkpt lat="45.70445" lon="4.66639">
        <ele>390.7</ele>
        <time>2013-09-14T08:21:23Z</time>
      </trkpt>
      <trkpt lat="45.70426" lon="4.66699">
        <ele>386.8</ele>
        <time>2013-09-14T08:21:43Z</time>
      </trkpt>
      <trkpt lat="45.7041" lon="4.66751">
        <ele>383.3</ele>
        <time>2013-09-14T08:22:03Z</time>
      </trkpt>
      <trkpt lat="45.70398" lon="4.66811">
        <ele>379.2</ele>
        <time>2013-09-14T08:22:23Z</time>
      </trkpt>
      <trkpt lat="45.70389" lon="4.66866">
        <ele>375.6</ele>
        <time>2013-09-14T08:22:43Z</time>
      </trkpt>
      <trkpt lat="45.70395" lon="4.66893">
        <ele>373.9</ele>
        <time>2013-09-14T08:23:03Z</time>
      </trkpt>
      <trkpt lat="45.70395" lon="4.66918">
        <ele>372.3</ele>
        <time>2013-09-14T08:23:23Z</time>
      </trkpt>
      <trkpt lat="45.7039" lon="4.66952">
        <ele>370.2</ele>
        <time>2013-09-14T08:23:43Z</time>
      </trkpt>
      <trkpt lat="45.70388" lon="4.66997">
        <ele>365.8</ele>
        <time>2013-09-14T08:24:03Z</time>
      </trkpt>
      <trkpt lat="45.70388" lon="4.67048">
        <ele>361.1</ele>
        <time>2013-09-14T08:24:23Z</time>
      </trkpt>
      <trkpt lat="45.70376" lon="4.6713">
        <ele>360.9</ele>
        <time>2013-09-14T08:24:43Z</time>
      </trkpt>
      <trkpt lat="45.7038" lon="4.67265">
        <ele>359</ele>
        <time>2013-09-14T08:25:03Z</time>
      </trkpt>
      <trkpt lat="45.70359" lon="4.67428">
        <ele>359.2</ele>
        <time>2013-09-14T08:25:23Z</time>
      </trkpt>
      <trkpt lat="45.70322" lon="4.67519">
        <ele>358.2</ele>
        <time>2013-09-14T08:25:43Z</time>
      </trkpt>
      <trkpt lat="45.70287" lon="4.67588">
        <ele>356.7</ele>
        <time>2013-09-14T08:26:03Z</time>
      </trkpt>
      <trkpt lat="45.70251" lon="4.67678">
        <ele>352</ele>
        <time>2013-09-14T08:26:23Z</time>
      </trkpt>
      <trkpt lat="45.70209" lon="4.67781">
        <ele>348.3</ele>
        <time>2013-09-14T08:26:43Z</time>
      </trkpt>
      <trkpt lat="45.70168" lon="4.6789">
        <ele>347.5</ele>
        <time>2013-09-14T08:27:03Z</time>
      </trkpt>
      <trkpt lat="45.70133" lon="4.67989">
        <ele>346.7</ele>
        <time>2013-09-14T08:27:23Z</time>
      </trkpt>
      <trkpt lat="45.70091" lon="4.68053">
        <ele>344.8</ele>
        <time>2013-09-14T08:27:43Z</time>
      </trkpt>
      <trkpt lat="45.70036" lon="4.68052">
        <ele>341.7</ele>
        <time>2013-09-14T08:28:03Z</time>
      </trkpt>
      <trkpt lat="45.70014" lon="4.6813">
        <ele>339.1</ele>
        <time>2013-09-14T08:28:23Z</time>
      </trkpt>
      <trkpt lat="45.70004" lon="4.68176">
        <ele>337.3</ele>
        <time>2013-09-14T08:28:43Z</time>
      </trkpt>
      <trkpt lat="45.69997" lon="4.68216">
        <ele>335.4</ele>
        <time>2013-09-14T08:29:03Z</time>
      </trkpt>
      <trkpt lat="45.69989" lon="4.68264">
        <ele>332.2</ele>
        <time>2013-09-14T08:29:23Z</time>
      </trkpt>
      <trkpt lat="45.69985" lon="4.68336">
        <ele>328.5</ele>
        <time>2013-09-14T08:29:43Z</time>
      </trkpt>
      <trkpt lat="45.69992" lon="4.68412">
        <ele>325.7</ele>
        <time>2013-09-14T08:30:03Z</time>
      </trkpt>
      <trkpt lat="45.69991" lon="4.6849">
        <ele>323.1</ele>
        <time>2013-09-14T08:30:23Z</time>
      </trkpt>
      <trkpt lat="45.6997" lon="4.68599">
        <ele>319.8</ele>
        <time>2013-09-14T08:30:43Z</time>
      </trkpt>
      <trkpt lat="45.69942" lon="4.687">
        <ele>318.8</ele>
        <time>2013-09-14T08:31:03Z</time>
      </trkpt>
      <trkpt lat="45.69872" lon="4.68699">
        <ele>318.2</ele>
        <time>2013-09-14T08:31:23Z</time>
      </trkpt>
      <trkpt lat="45.69814" lon="4.68639">
        <ele>319.1</ele>
        <time>2013-09-14T08:31:43Z</time>
      </trkpt>
      <trkpt lat="45.6974" lon="4.68616">
        <ele>319.3</ele>
        <time>2013-09-14T08:32:03Z</time>
      </trkpt>
      <trkpt lat="45.69687" lon="4.68726">
        <ele>316.8</ele>
        <time>2013-09-14T08:32:23Z</time>
      </trkpt>
      <trkpt lat="45.69619" lon="4.68908">
        <ele>318.9</ele>
        <time>2013-09-14T08:32:43Z</time>
      </trkpt>
      <trkpt lat="45.69555" lon="4.69061">
        <ele>324.1</ele>
        <time>2013-09-14T08:33:03Z</time>
      </trkpt>
      <trkpt lat="45.69528" lon="4.69141">
        <ele>320.1</ele>
        <time>2013-09-14T08:33:23Z</time>
      </trkpt>
      <trkpt lat="45.6952" lon="4.69189">
        <ele>316.8</ele>
        <time>2013-09-14T08:33:43Z</time>
      </trkpt>
      <trkpt lat="45.69526" lon="4.69239">
        <ele>313.5</ele>
        <time>2013-09-14T08:34:03Z</time>
      </trkpt>
      <trkpt lat="45.69544" lon="4.69298">
        <ele>309.7</ele>
        <time>2013-09-14T08:34:23Z</time>
      </trkpt>
      <trkpt lat="45.6955" lon="4.69359">
        <ele>306.2</ele>
        <time>2013-09-14T08:34:43Z</time>
      </trkpt>
      <trkpt lat="45.69544" lon="4.69416">
        <ele>302.6</ele>
        <time>2013-09-14T08:35:03Z</time>
      </trkpt>
      <trkpt lat="45.69523" lon="4.69455">
        <ele>297.5</ele>
        <time>2013-09-14T08:35:23Z</time>
      </trkpt>
      <trkpt lat="45.69489" lon="4.69481">
        <ele>291.4</ele>
        <time>2013-09-14T08:35:43Z</time>
      </trkpt>
      <trkpt lat="45.69431" lon="4.69479">
        <ele>286.9</ele>
        <time>2013-09-14T08:36:03Z</time>
      </trkpt>
      <trkpt lat="45.69352" lon="4.69541">
        <ele>286.7</ele>
        <time>2013-09-14T08:36:23Z</time>
      </trkpt>
      <trkpt lat="45.693" lon="4.69689">
        <ele>288.6</ele>
        <time>2013-09-14T08:36:43Z</time>
      </trkpt>
      <trkpt lat="45.69302" lon="4.69858">
        <ele>292.8</ele>
        <time>2013-09-14T08:37:03Z</time>
      </trkpt>
      <trkpt lat="45.69361" lon="4.7001">
        <ele>297.2</ele>
        <time>2013-09-14T08:37:23Z</time>
      </trkpt>
      <trkpt lat="45.694" lon="4.70178">
        <ele>301.2</ele>
        <time>2013-09-14T08:37:43Z</time>
      </trkpt>
      <trkpt lat="45.69369" lon="4.70363">
        <ele>304.5</ele>
        <time>2013-09-14T08:38:03Z</time>
      </trkpt>
      <trkpt lat="45.69276" lon="4.7049">
        <ele>303.7</ele>
        <time>2013-09-14T08:38:23Z</time>
      </trkpt>
      <trkpt lat="45.69144" lon="4.70521">
        <ele>307.8</ele>
        <time>2013-09-14T08:38:43Z</time>
      </trkpt>
      <trkpt lat="45.69015" lon="4.70505">
        <ele>311.2</ele>
        <time>2013-09-14T08:39:03Z</time>
      </trkpt>
      <trkpt lat="45.689" lon="4.70577">
        <ele>313.8</ele>
        <time>2013-09-14T08:39:23Z</time>
      </trkpt>
      <trkpt lat="45.68844" lon="4.70686">
        <ele>315.8</ele>
        <time>2013-09-14T08:39:43Z</time>
      </trkpt>
      <trkpt lat="45.68785" lon="4.70855">
        <ele>321</ele>
        <time>2013-09-14T08:40:03Z</time>
      </trkpt>
      <trkpt lat="45.68735" lon="4.70948">
        <ele>324.5</ele>
        <time>2013-09-14T08:40:23Z</time>
      </trkpt>
      <trkpt lat="45.6882" lon="4.70977">
        <ele>321.6</ele>
        <time>2013-09-14T08:40:43Z</time>
      </trkpt>
      <trkpt lat="45.689" lon="4.71032">
        <ele>318.4</ele>
        <time>2013-09-14T08:41:03Z</time>
      </trkpt>
      <trkpt lat="45.68943" lon="4.71095">
        <ele>318.2</ele>
        <time>2013-09-14T08:41:23Z</time>
      </trkpt>
      <trkpt lat="45.68927" lon="4.71156">
        <ele>318</ele>
        <time>2013-09-14T08:41:43Z</time>
      </trkpt>
      <trkpt lat="45.68915" lon="4.71214">
        <ele>317.2</ele>
        <time>2013-09-14T08:42:03Z</time>
      </trkpt>
      <trkpt lat="45.68924" lon="4.71261">
        <ele>314.4</ele>
        <time>2013-09-14T08:42:23Z</time>
      </trkpt>
      <trkpt lat="45.68907" lon="4.7131">
        <ele>310.9</ele>
        <time>2013-09-14T08:42:43Z</time>
      </trkpt>
      <trkpt lat="45.68891" lon="4.71356">
        <ele>306.9</ele>
        <time>2013-09-14T08:43:03Z</time>
      </trkpt>
      <trkpt lat="45.68902" lon="4.71402">
        <ele>303.4</ele>
        <time>2013-09-14T08:43:23Z</time>
      </trkpt>
      <trkpt lat="45.68941" lon="4.71446">
        <ele>301.8</ele>
        <time>2013-09-14T08:43:43Z</time>
      </trkpt>
      <trkpt lat="45.6894" lon="4.71477">
        <ele>298.9</ele>
        <time>2013-09-14T08:44:03Z</time>
      </trkpt>
      <trkpt lat="45.68938" lon="4.71499">
        <ele>296.6</ele>
        <time>2013-09-14T08:44:23Z</time>
      </trkpt>
      <trkpt lat="45.68937" lon="4.71526">
        <ele>293.6</ele>
        <time>2013-09-14T08:44:43Z</time>
      </trkpt>
      <trkpt lat="45.68939" lon="4.7155">
        <ele>291.4</ele>
        <time>2013-09-14T08:45:03Z</time>
      </trkpt>
      <trkpt lat="45.68937" lon="4.71587">
        <ele>287.4</ele>
        <time>2013-09-14T08:45:23Z</time>
      </trkpt>
      <trkpt lat="45.68936" lon="4.7163">
        <ele>282.9</ele>
        <time>2013-09-14T08:45:43Z</time>
      </trkpt>
      <trkpt lat="45.68923" lon="4.71657">
        <ele>277.1</ele>
        <time>2013-09-14T08:46:03Z</time>
      </trkpt>
      <trkpt lat="45.68898" lon="4.71674">
        <ele>271</ele>
        <time>2013-09-14T08:46:23Z</time>
      </trkpt>
      <trkpt lat="45.68867" lon="4.71678">
        <ele>267.1</ele>
        <time>2013-09-14T08:46:43Z</time>
      </trkpt>
      <trkpt lat="45.68841" lon="4.71657">
        <ele>268.6</ele>
        <time>2013-09-14T08:47:03Z</time>
      </trkpt>
      <trkpt lat="45.68828" lon="4.71636">
        <ele>268.6</ele>
        <time>2013-09-14T08:47:23Z</time>
      </trkpt>
      <trkpt lat="45.68806" lon="4.71618">
        <ele>267.4</ele>
        <time>2013-09-14T08:47:43Z</time>
      </trkpt>
      <trkpt lat="45.68784" lon="4.71667">
        <ele>268.3</ele>
        <time>2013-09-14T08:48:03Z</time>
      </trkpt>
      <trkpt lat="45.68732" lon="4.71721">
        <ele>276.1</ele>
        <time>2013-09-14T08:48:23Z</time>
      </trkpt>
      <trkpt lat="45.68668" lon="4.71785">
        <ele>287.8</ele>
        <time>2013-09-14T08:48:43Z</time>
      </trkpt>
      <trkpt lat="45.68629" lon="4.71937">
        <ele>301.5</ele>
        <time>2013-09-14T08:49:03Z</time>
      </trkpt>
      <trkpt lat="45.6857" lon="4.72009">
        <ele>308.1</ele>
        <time>2013-09-14T08:49:23Z</time>
      </trkpt>
      <trkpt lat="45.6863" lon="4.72195">
        <ele>308.7</ele>
        <time>2013-09-14T08:49:43Z</time>
      </trkpt>
      <trkpt lat="45.68675" lon="4.72338">
        <ele>311</ele>
        <time>2013-09-14T08:50:03Z</time>
      </trkpt>
      <trkpt lat="45.68666" lon="4.72487">
        <ele>313</ele>
        <time>2013-09-14T08:50:23Z</time>
      </trkpt>
      <trkpt lat="45.68606" lon="4.7257">
        <ele>314.3</ele>
        <time>2013-09-14T08:50:43Z</time>
      </trkpt>
      <trkpt lat="45.68497" lon="4.72403">
        <ele>322.4</ele>
        <time>2013-09-14T08:51:03Z</time>
      </trkpt>
      <trkpt lat="45.68388" lon="4.72284">
        <ele>329.7</ele>
        <time>2013-09-14T08:51:23Z</time>
      </trkpt>
      <trkpt lat="45.68286" lon="4.722">
        <ele>328.8</ele>
        <time>2013-09-14T08:51:43Z</time>
      </trkpt>
      <trkpt lat="45.68193" lon="4.72104">
        <ele>329.2</ele>
        <time>2013-09-14T08:52:03Z</time>
      </trkpt>
      <trkpt lat="45.68105" lon="4.72007">
        <ele>330.7</ele>
        <time>2013-09-14T08:52:23Z</time>
      </trkpt>
      <trkpt lat="45.68036" lon="4.71924">
        <ele>328.9</ele>
        <time>2013-09-14T08:52:43Z</time>
      </trkpt>
      <trkpt lat="45.68" lon="4.71981">
        <ele>328.8</ele>
        <time>2013-09-14T08:53:03Z</time>
      </trkpt>
      <trkpt lat="45.67971" lon="4.72078">
        <ele>329.5</ele>
        <time>2013-09-14T08:53:23Z</time>
      </trkpt>
      <trkpt lat="45.67911" lon="4.72027">
        <ele>326.1</ele>
        <time>2013-09-14T08:53:43Z</time>
      </trkpt>
      <trkpt lat="45.67852" lon="4.7198">
        <ele>323.2</ele>
        <time>2013-09-14T08:54:03Z</time>
      </trkpt>
      <trkpt lat="45.67781" lon="4.71931">
        <ele>322.4</ele>
        <time>2013-09-14T08:54:23Z</time>
      </trkpt>
      <trkpt lat="45.67685" lon="4.71882">
        <ele>323</ele>
        <time>2013-09-14T08:54:43Z</time>
      </trkpt>
      <trkpt lat="45.67599" lon="4.71803">
        <ele>321.4</ele>
        <time>2013-09-14T08:55:03Z</time>
      </trkpt>
      <trkpt lat="45.67519" lon="4.71747">
        <ele>321.1</ele>
        <time>2013-09-14T08:55:23Z</time>
      </trkpt>
      <trkpt lat="45.67424" lon="4.71769">
        <ele>319.2</ele>
        <time>2013-09-14T08:55:43Z</time>
      </trkpt>
      <trkpt lat="45.67326" lon="4.71768">
        <ele>318.4</ele>
        <time>2013-09-14T08:56:03Z</time>
      </trkpt>
      <trkpt lat="45.67223" lon="4.71768">
        <ele>318.7</ele>
        <time>2013-09-14T08:56:23Z</time>
      </trkpt>
      <trkpt lat="45.67124" lon="4.71764">
        <ele>318</ele>
        <time>2013-09-14T08:56:43Z</time>
      </trkpt>
      <trkpt lat="45.67267" lon="4.71068">
        <ele>337.6</ele>
        <time>2019-08-30T18:20:54Z</time>
      </trkpt>
      <trkpt lat="45.67267" lon="4.71068">
        <ele>337.6</ele>
        <time>2019-08-30T18:20:54Z</time>
      </trkpt>
      <trkpt lat="45.67203" lon="4.71131">
        <ele>335.7</ele>
        <time>2019-08-30T18:20:54Z</time>
      </trkpt>
      <trkpt lat="45.67203" lon="4.71131">
        <ele>335.7</ele>
        <time>2019-08-30T18:20:54Z</time>
      </trkpt>
      <trkpt lat="45.67098" lon="4.71595">
        <ele>320</ele>
        <time>2019-08-30T18:20:54Z</time>
      </trkpt>
      <trkpt lat="45.67098" lon="4.71595">
        <ele>320</ele>
        <time>2019-08-30T18:20:54Z</time>
      </trkpt>
      <trkpt lat="45.67083" lon="4.71757">
        <ele>316.8</ele>
        <time>2019-08-30T18:20:54Z</time>
      </trkpt>
      <trkpt lat="45.67083" lon="4.71757">
        <ele>316.8</ele>
        <time>2019-08-30T18:20:54Z</time>
      </trkpt>
      <trkpt lat="45.67121" lon="4.71765">
        <ele>317.8</ele>
        <time>2019-08-30T18:20:54Z</time>
      </trkpt>
      <trkpt lat="45.67267" lon="4.71057">
        <ele>337.8</ele>
        <time>2019-08-30T18:45:06Z</time>
      </trkpt>
      <trkpt lat="45.67197" lon="4.7091">
        <ele>340</ele>
        <time>2019-08-30T18:45:26Z</time>
      </trkpt>
      <trkpt lat="45.67142" lon="4.70711">
        <ele>342</ele>
        <time>2019-08-30T18:45:46Z</time>
      </trkpt>
      <trkpt lat="45.6704" lon="4.70572">
        <ele>340.4</ele>
        <time>2019-08-30T18:46:06Z</time>
      </trkpt>
      <trkpt lat="45.66943" lon="4.70436">
        <ele>342</ele>
        <time>2019-08-30T18:46:26Z</time>
      </trkpt>
      <trkpt lat="45.66878" lon="4.70317">
        <ele>340.3</ele>
        <time>2019-08-30T18:46:46Z</time>
      </trkpt>
      <trkpt lat="45.66865" lon="4.7015">
        <ele>339.6</ele>
        <time>2019-08-30T18:47:06Z</time>
      </trkpt>
      <trkpt lat="45.6685" lon="4.69945">
        <ele>342.8</ele>
        <time>2019-08-30T18:47:26Z</time>
      </trkpt>
      <trkpt lat="45.66816" lon="4.69737">
        <ele>346.3</ele>
        <time>2019-08-30T18:47:46Z</time>
      </trkpt>
      <trkpt lat="45.66739" lon="4.69597">
        <ele>350.2</ele>
        <time>2019-08-30T18:48:06Z</time>
      </trkpt>
      <trkpt lat="45.66716" lon="4.69461">
        <ele>356.5</ele>
        <time>2019-08-30T18:48:26Z</time>
      </trkpt>
      <trkpt lat="45.66702" lon="4.69314">
        <ele>364.1</ele>
        <time>2019-08-30T18:48:46Z</time>
      </trkpt>
      <trkpt lat="45.66695" lon="4.69189">
        <ele>363.4</ele>
        <time>2019-08-30T18:49:06Z</time>
      </trkpt>
      <trkpt lat="45.66676" lon="4.69064">
        <ele>361.2</ele>
        <time>2019-08-30T18:49:26Z</time>
      </trkpt>
      <trkpt lat="45.66635" lon="4.68957">
        <ele>362.9</ele>
        <time>2019-08-30T18:49:46Z</time>
      </trkpt>
      <trkpt lat="45.66794" lon="4.68891">
        <ele>369.3</ele>
        <time>2019-08-30T18:50:06Z</time>
      </trkpt>
      <trkpt lat="45.66861" lon="4.68892">
        <ele>371.9</ele>
        <time>2019-08-30T18:50:26Z</time>
      </trkpt>
      <trkpt lat="45.66937" lon="4.68826">
        <ele>376.9</ele>
        <time>2019-08-30T18:50:46Z</time>
      </trkpt>
      <trkpt lat="45.66971" lon="4.68716">
        <ele>378.6</ele>
        <time>2019-08-30T18:51:06Z</time>
      </trkpt>
      <trkpt lat="45.6694" lon="4.68566">
        <ele>379.8</ele>
        <time>2019-08-30T18:51:26Z</time>
      </trkpt>
      <trkpt lat="45.66926" lon="4.68423">
        <ele>383</ele>
        <time>2019-08-30T18:51:46Z</time>
      </trkpt>
      <trkpt lat="45.66741" lon="4.68354">
        <ele>395</ele>
        <time>2019-08-30T18:52:06Z</time>
      </trkpt>
      <trkpt lat="45.6657" lon="4.68261">
        <ele>404.1</ele>
        <time>2019-08-30T18:52:26Z</time>
      </trkpt>
      <trkpt lat="45.66463" lon="4.68175">
        <ele>407.2</ele>
        <time>2019-08-30T18:52:46Z</time>
      </trkpt>
      <trkpt lat="45.66383" lon="4.68064">
        <ele>414.8</ele>
        <time>2019-08-30T18:53:06Z</time>
      </trkpt>
      <trkpt lat="45.663" lon="4.6805">
        <ele>416.7</ele>
        <time>2019-08-30T18:53:26Z</time>
      </trkpt>
      <trkpt lat="45.66228" lon="4.68113">
        <ele>415.7</ele>
        <time>2019-08-30T18:53:46Z</time>
      </trkpt>
      <trkpt lat="45.66164" lon="4.68138">
        <ele>410.2</ele>
        <time>2019-08-30T18:54:06Z</time>
      </trkpt>
      <trkpt lat="45.661" lon="4.68107">
        <ele>406.6</ele>
        <time>2019-08-30T18:54:26Z</time>
      </trkpt>
      <trkpt lat="45.66043" lon="4.6806">
        <ele>404.2</ele>
        <time>2019-08-30T18:54:46Z</time>
      </trkpt>
      <trkpt lat="45.6598" lon="4.68014">
        <ele>401.5</ele>
        <time>2019-08-30T18:55:06Z</time>
      </trkpt>
      <trkpt lat="45.65922" lon="4.67966">
        <ele>399.9</ele>
        <time>2019-08-30T18:55:26Z</time>
      </trkpt>
      <trkpt lat="45.65861" lon="4.67912">
        <ele>396.4</ele>
        <time>2019-08-30T18:55:46Z</time>
      </trkpt>
      <trkpt lat="45.65812" lon="4.67833">
        <ele>402.2</ele>
        <time>2019-08-30T18:56:06Z</time>
      </trkpt>
      <trkpt lat="45.6577" lon="4.67753">
        <ele>404.7</ele>
        <time>2019-08-30T18:56:26Z</time>
      </trkpt>
      <trkpt lat="45.65757" lon="4.67669">
        <ele>403.3</ele>
        <time>2019-08-30T18:56:46Z</time>
      </trkpt>
      <trkpt lat="45.65725" lon="4.67644">
        <ele>404.4</ele>
        <time>2019-08-30T18:57:06Z</time>
      </trkpt>
      <trkpt lat="45.65579" lon="4.67665">
        <ele>413.7</ele>
        <time>2019-08-30T18:57:26Z</time>
      </trkpt>
      <trkpt lat="45.65407" lon="4.6773">
        <ele>423.2</ele>
        <time>2019-08-30T18:57:46Z</time>
      </trkpt>
      <trkpt lat="45.65323" lon="4.67785">
        <ele>426.4</ele>
        <time>2019-08-30T18:58:06Z</time>
      </trkpt>
      <trkpt lat="45.6511" lon="4.67632">
        <ele>449.4</ele>
        <time>2019-08-30T18:58:26Z</time>
      </trkpt>
      <trkpt lat="45.64942" lon="4.67458">
        <ele>466.2</ele>
        <time>2019-08-30T18:58:46Z</time>
      </trkpt>
      <trkpt lat="45.64835" lon="4.67357">
        <ele>477.8</ele>
        <time>2019-08-30T18:59:06Z</time>
      </trkpt>
      <trkpt lat="45.64846" lon="4.67271">
        <ele>479.7</ele>
        <time>2019-08-30T18:59:26Z</time>
      </trkpt>
      <trkpt lat="45.64881" lon="4.67188">
        <ele>481.1</ele>
        <time>2019-08-30T18:59:46Z</time>
      </trkpt>
      <trkpt lat="45.64945" lon="4.67127">
        <ele>481.7</ele>
        <time>2019-08-30T19:00:06Z</time>
      </trkpt>
      <trkpt lat="45.65026" lon="4.67066">
        <ele>487</ele>
        <time>2019-08-30T19:00:26Z</time>
      </trkpt>
      <trkpt lat="45.65072" lon="4.6701">
        <ele>489.5</ele>
        <time>2019-08-30T19:00:46Z</time>
      </trkpt>
      <trkpt lat="45.65136" lon="4.66969">
        <ele>483.4</ele>
        <time>2019-08-30T19:01:06Z</time>
      </trkpt>
      <trkpt lat="45.6518" lon="4.66909">
        <ele>477.1</ele>
        <time>2019-08-30T19:01:26Z</time>
      </trkpt>
      <trkpt lat="45.65197" lon="4.66867">
        <ele>473.8</ele>
        <time>2019-08-30T19:01:46Z</time>
      </trkpt>
      <trkpt lat="45.65208" lon="4.66824">
        <ele>468.5</ele>
        <time>2019-08-30T19:02:06Z</time>
      </trkpt>
      <trkpt lat="45.65205" lon="4.66786">
        <ele>466.8</ele>
        <time>2019-08-30T19:02:26Z</time>
      </trkpt>
      <trkpt lat="45.65203" lon="4.66749">
        <ele>467.5</ele>
        <time>2019-08-30T19:02:46Z</time>
      </trkpt>
      <trkpt lat="45.65188" lon="4.66704">
        <ele>470.8</ele>
        <time>2019-08-30T19:03:06Z</time>
      </trkpt>
      <trkpt lat="45.65239" lon="4.6666">
        <ele>471.2</ele>
        <time>2019-08-30T19:03:26Z</time>
      </trkpt>
      <trkpt lat="45.65315" lon="4.66598">
        <ele>472.5</ele>
        <time>2019-08-30T19:03:46Z</time>
      </trkpt>
      <trkpt lat="45.65367" lon="4.66521">
        <ele>470.2</ele>
        <time>2019-08-30T19:04:06Z</time>
      </trkpt>
      <trkpt lat="45.65415" lon="4.66451">
        <ele>472.9</ele>
        <time>2019-08-30T19:04:26Z</time>
      </trkpt>
      <trkpt lat="45.65473" lon="4.66424">
        <ele>473.1</ele>
        <time>2019-08-30T19:04:46Z</time>
      </trkpt>
      <trkpt lat="45.65384" lon="4.66252">
        <ele>493.7</ele>
        <time>2019-08-30T19:05:06Z</time>
      </trkpt>
      <trkpt lat="45.65252" lon="4.66206">
        <ele>516.7</ele>
        <time>2019-08-30T19:05:26Z</time>
      </trkpt>
      <trkpt lat="45.65104" lon="4.66206">
        <ele>528.5</ele>
        <time>2019-08-30T19:05:46Z</time>
      </trkpt>
      <trkpt lat="45.65011" lon="4.66267">
        <ele>531.8</ele>
        <time>2019-08-30T19:06:06Z</time>
      </trkpt>
      <trkpt lat="45.64903" lon="4.66187">
        <ele>532.9</ele>
        <time>2019-08-30T19:06:26Z</time>
      </trkpt>
      <trkpt lat="45.64956" lon="4.66085">
        <ele>533</ele>
        <time>2019-08-30T19:06:46Z</time>
      </trkpt>
      <trkpt lat="45.65008" lon="4.65997">
        <ele>532.8</ele>
        <time>2019-08-30T19:07:06Z</time>
      </trkpt>
      <trkpt lat="45.65064" lon="4.65924">
        <ele>533.4</ele>
        <time>2019-08-30T19:07:26Z</time>
      </trkpt>
      <trkpt lat="45.65127" lon="4.65844">
        <ele>533.6</ele>
        <time>2019-08-30T19:07:46Z</time>
      </trkpt>
      <trkpt lat="45.65152" lon="4.65795">
        <ele>532.1</ele>
        <time>2019-08-30T19:08:06Z</time>
      </trkpt>
      <trkpt lat="45.65142" lon="4.65723">
        <ele>534.9</ele>
        <time>2019-08-30T19:08:26Z</time>
      </trkpt>
      <trkpt lat="45.65149" lon="4.65648">
        <ele>535.3</ele>
        <time>2019-08-30T19:08:46Z</time>
      </trkpt>
      <trkpt lat="45.65162" lon="4.65576">
        <ele>539.7</ele>
        <time>2019-08-30T19:09:06Z</time>
      </trkpt>
      <trkpt lat="45.65249" lon="4.65522">
        <ele>539.6</ele>
        <time>2019-08-30T19:09:26Z</time>
      </trkpt>
      <trkpt lat="45.65351" lon="4.65431">
        <ele>541.3</ele>
        <time>2019-08-30T19:09:46Z</time>
      </trkpt>
      <trkpt lat="45.65413" lon="4.65369">
        <ele>541</ele>
        <time>2019-08-30T19:10:06Z</time>
      </trkpt>
      <trkpt lat="45.65478" lon="4.65318">
        <ele>543</ele>
        <time>2019-08-30T19:10:26Z</time>
      </trkpt>
      <trkpt lat="45.65524" lon="4.6527">
        <ele>542.6</ele>
        <time>2019-08-30T19:10:46Z</time>
      </trkpt>
      <trkpt lat="45.6552" lon="4.65184">
        <ele>541.8</ele>
        <time>2019-08-30T19:11:06Z</time>
      </trkpt>
      <trkpt lat="45.65403" lon="4.6503">
        <ele>550</ele>
        <time>2019-08-30T19:11:26Z</time>
      </trkpt>
      <trkpt lat="45.65339" lon="4.64951">
        <ele>549</ele>
        <time>2019-08-30T19:11:46Z</time>
      </trkpt>
      <trkpt lat="45.65257" lon="4.6486">
        <ele>545.9</ele>
        <time>2019-08-30T19:12:06Z</time>
      </trkpt>
      <trkpt lat="45.65178" lon="4.64753">
        <ele>544.7</ele>
        <time>2019-08-30T19:12:26Z</time>
      </trkpt>
      <trkpt lat="45.65134" lon="4.64624">
        <ele>545.2</ele>
        <time>2019-08-30T19:12:46Z</time>
      </trkpt>
      <trkpt lat="45.65074" lon="4.64497">
        <ele>542.6</ele>
        <time>2019-08-30T19:13:06Z</time>
      </trkpt>
      <trkpt lat="45.64968" lon="4.64295">
        <ele>553.6</ele>
        <time>2019-08-30T19:13:26Z</time>
      </trkpt>
      <trkpt lat="45.64915" lon="4.64246">
        <ele>550.4</ele>
        <time>2019-08-30T19:13:46Z</time>
      </trkpt>
      <trkpt lat="45.64877" lon="4.64218">
        <ele>547.8</ele>
        <time>2019-08-30T19:14:06Z</time>
      </trkpt>
      <trkpt lat="45.64855" lon="4.64165">
        <ele>549.8</ele>
        <time>2019-08-30T19:14:26Z</time>
      </trkpt>
      <trkpt lat="45.64803" lon="4.64129">
        <ele>548.5</ele>
        <time>2019-08-30T19:14:46Z</time>
      </trkpt>
      <trkpt lat="45.64751" lon="4.64129">
        <ele>545.8</ele>
        <time>2019-08-30T19:15:06Z</time>
      </trkpt>
      <trkpt lat="45.64702" lon="4.64151">
        <ele>542.2</ele>
        <time>2019-08-30T19:15:26Z</time>
      </trkpt>
      <trkpt lat="45.6465" lon="4.6414">
        <ele>543.1</ele>
        <time>2019-08-30T19:15:46Z</time>
      </trkpt>
      <trkpt lat="45.64556" lon="4.64227">
        <ele>540.8</ele>
        <time>2019-08-30T19:16:06Z</time>
      </trkpt>
      <trkpt lat="45.64489" lon="4.64247">
        <ele>532.9</ele>
        <time>2019-08-30T19:16:26Z</time>
      </trkpt>
      <trkpt lat="45.64494" lon="4.64108">
        <ele>541.1</ele>
        <time>2019-08-30T19:16:46Z</time>
      </trkpt>
      <trkpt lat="45.64439" lon="4.64002">
        <ele>554.7</ele>
        <time>2019-08-30T19:17:06Z</time>
      </trkpt>
      <trkpt lat="45.64339" lon="4.6399">
        <ele>552.9</ele>
        <time>2019-08-30T19:17:26Z</time>
      </trkpt>
      <trkpt lat="45.64276" lon="4.63979">
        <ele>547.1</ele>
        <time>2019-08-30T19:17:46Z</time>
      </trkpt>
      <trkpt lat="45.64235" lon="4.63967">
        <ele>538.9</ele>
        <time>2019-08-30T19:18:06Z</time>
      </trkpt>
      <trkpt lat="45.64205" lon="4.63945">
        <ele>531.3</ele>
        <time>2019-08-30T19:18:26Z</time>
      </trkpt>
      <trkpt lat="45.64184" lon="4.63914">
        <ele>523.8</ele>
        <time>2019-08-30T19:18:46Z</time>
      </trkpt>
      <trkpt lat="45.6418" lon="4.63876">
        <ele>520.9</ele>
        <time>2019-08-30T19:19:06Z</time>
      </trkpt>
      <trkpt lat="45.64181" lon="4.63845">
        <ele>519.1</ele>
        <time>2019-08-30T19:19:26Z</time>
      </trkpt>
      <trkpt lat="45.64162" lon="4.63859">
        <ele>514.8</ele>
        <time>2019-08-30T19:19:46Z</time>
      </trkpt>
      <trkpt lat="45.64142" lon="4.63895">
        <ele>510.9</ele>
        <time>2019-08-30T19:20:06Z</time>
      </trkpt>
      <trkpt lat="45.64123" lon="4.63921">
        <ele>506.8</ele>
        <time>2019-08-30T19:20:26Z</time>
      </trkpt>
      <trkpt lat="45.64117" lon="4.63886">
        <ele>504.4</ele>
        <time>2019-08-30T19:20:46Z</time>
      </trkpt>
      <trkpt lat="45.64109" lon="4.63844">
        <ele>503.4</ele>
        <time>2019-08-30T19:21:06Z</time>
      </trkpt>
      <trkpt lat="45.64101" lon="4.63807">
        <ele>503.7</ele>
        <time>2019-08-30T19:21:26Z</time>
      </trkpt>
      <trkpt lat="45.64103" lon="4.63768">
        <ele>506.1</ele>
        <time>2019-08-30T19:21:46Z</time>
      </trkpt>
      <trkpt lat="45.64122" lon="4.63723">
        <ele>509.1</ele>
        <time>2019-08-30T19:22:06Z</time>
      </trkpt>
      <trkpt lat="45.64092" lon="4.63659">
        <ele>515.4</ele>
        <time>2019-08-30T19:22:26Z</time>
      </trkpt>
      <trkpt lat="45.64091" lon="4.63626">
        <ele>517.8</ele>
        <time>2019-08-30T19:22:46Z</time>
      </trkpt>
      <trkpt lat="45.64036" lon="4.63689">
        <ele>516.7</ele>
        <time>2019-08-30T19:23:06Z</time>
      </trkpt>
      <trkpt lat="45.64002" lon="4.63745">
        <ele>510.4</ele>
        <time>2019-08-30T19:23:26Z</time>
      </trkpt>
      <trkpt lat="45.63963" lon="4.63766">
        <ele>508.1</ele>
        <time>2019-08-30T19:23:46Z</time>
      </trkpt>
      <trkpt lat="45.63917" lon="4.63786">
        <ele>512.1</ele>
        <time>2019-08-30T19:24:06Z</time>
      </trkpt>
      <trkpt lat="45.63892" lon="4.63859">
        <ele>506.4</ele>
        <time>2019-08-30T19:24:26Z</time>
      </trkpt>
      <trkpt lat="45.63874" lon="4.63936">
        <ele>499.4</ele>
        <time>2019-08-30T19:24:46Z</time>
      </trkpt>
      <trkpt lat="45.63858" lon="4.63996">
        <ele>494</ele>
        <time>2019-08-30T19:25:06Z</time>
      </trkpt>
      <trkpt lat="45.63841" lon="4.64052">
        <ele>488</ele>
        <time>2019-08-30T19:25:26Z</time>
      </trkpt>
      <trkpt lat="45.63831" lon="4.64103">
        <ele>484.4</ele>
        <time>2019-08-30T19:25:46Z</time>
      </trkpt>
      <trkpt lat="45.63812" lon="4.64142">
        <ele>480.8</ele>
        <time>2019-08-30T19:26:06Z</time>
      </trkpt>
      <trkpt lat="45.63795" lon="4.64177">
        <ele>478</ele>
        <time>2019-08-30T19:26:26Z</time>
      </trkpt>
      <trkpt lat="45.6377" lon="4.64207">
        <ele>473.7</ele>
        <time>2019-08-30T19:26:46Z</time>
      </trkpt>
      <trkpt lat="45.63737" lon="4.64182">
        <ele>470.7</ele>
        <time>2019-08-30T19:27:06Z</time>
      </trkpt>
      <trkpt lat="45.63685" lon="4.64103">
        <ele>477.2</ele>
        <time>2019-08-30T19:27:26Z</time>
      </trkpt>
      <trkpt lat="45.63555" lon="4.64049">
        <ele>479</ele>
        <time>2019-08-30T19:27:46Z</time>
      </trkpt>
      <trkpt lat="45.63478" lon="4.63987">
        <ele>478.3</ele>
        <time>2019-08-30T19:28:06Z</time>
      </trkpt>
      <trkpt lat="45.63417" lon="4.63959">
        <ele>476</ele>
        <time>2019-08-30T19:28:26Z</time>
      </trkpt>
      <trkpt lat="45.63369" lon="4.63977">
        <ele>472.7</ele>
        <time>2019-08-30T19:28:46Z</time>
      </trkpt>
      <trkpt lat="45.63326" lon="4.63982">
        <ele>468.4</ele>
        <time>2019-08-30T19:29:06Z</time>
      </trkpt>
      <trkpt lat="45.63296" lon="4.63967">
        <ele>466</ele>
        <time>2019-08-30T19:29:26Z</time>
      </trkpt>
      <trkpt lat="45.63263" lon="4.63979">
        <ele>459.3</ele>
        <time>2019-08-30T19:29:46Z</time>
      </trkpt>
      <trkpt lat="45.63245" lon="4.63989">
        <ele>455.4</ele>
        <time>2019-08-30T19:30:06Z</time>
      </trkpt>
      <trkpt lat="45.63222" lon="4.64001">
        <ele>450.7</ele>
        <time>2019-08-30T19:30:26Z</time>
      </trkpt>
      <trkpt lat="45.63199" lon="4.64014">
        <ele>447</ele>
        <time>2019-08-30T19:30:46Z</time>
      </trkpt>
      <trkpt lat="45.63175" lon="4.64017">
        <ele>444.2</ele>
        <time>2019-08-30T19:31:06Z</time>
      </trkpt>
      <trkpt lat="45.63154" lon="4.6401">
        <ele>442</ele>
        <time>2019-08-30T19:31:26Z</time>
      </trkpt>
      <trkpt lat="45.6313" lon="4.64014">
        <ele>439.2</ele>
        <time>2019-08-30T19:31:46Z</time>
      </trkpt>
      <trkpt lat="45.63104" lon="4.64019">
        <ele>436.3</ele>
        <time>2019-08-30T19:32:06Z</time>
      </trkpt>
      <trkpt lat="45.63077" lon="4.64022">
        <ele>433.2</ele>
        <time>2019-08-30T19:32:26Z</time>
      </trkpt>
      <trkpt lat="45.63049" lon="4.64023">
        <ele>430.2</ele>
        <time>2019-08-30T19:32:46Z</time>
      </trkpt>
      <trkpt lat="45.63023" lon="4.64011">
        <ele>429.8</ele>
        <time>2019-08-30T19:33:06Z</time>
      </trkpt>
      <trkpt lat="45.62991" lon="4.64003">
        <ele>429.4</ele>
        <time>2019-08-30T19:33:26Z</time>
      </trkpt>
      <trkpt lat="45.62949" lon="4.6402">
        <ele>429.5</ele>
        <time>2019-08-30T19:33:46Z</time>
      </trkpt>
      <trkpt lat="45.6291" lon="4.64035">
        <ele>434.5</ele>
        <time>2019-08-30T19:34:06Z</time>
      </trkpt>
      <trkpt lat="45.62855" lon="4.63953">
        <ele>443</ele>
        <time>2019-08-30T19:34:26Z</time>
      </trkpt>
      <trkpt lat="45.62762" lon="4.63872">
        <ele>461.9</ele>
        <time>2019-08-30T19:34:46Z</time>
      </trkpt>
      <trkpt lat="45.6267" lon="4.63791">
        <ele>475.7</ele>
        <time>2019-08-30T19:35:06Z</time>
      </trkpt>
      <trkpt lat="45.62602" lon="4.63592">
        <ele>505.9</ele>
        <time>2019-08-30T19:35:26Z</time>
      </trkpt>
      <trkpt lat="45.6251" lon="4.63456">
        <ele>524.4</ele>
        <time>2019-08-30T19:35:46Z</time>
      </trkpt>
      <trkpt lat="45.62453" lon="4.63479">
        <ele>532.5</ele>
        <time>2019-08-30T19:36:06Z</time>
      </trkpt>
      <trkpt lat="45.62426" lon="4.63374">
        <ele>530.1</ele>
        <time>2019-08-30T19:36:26Z</time>
      </trkpt>
      <trkpt lat="45.62369" lon="4.6327">
        <ele>531.2</ele>
        <time>2019-08-30T19:36:46Z</time>
      </trkpt>
      <trkpt lat="45.62319" lon="4.63145">
        <ele>543.3</ele>
        <time>2019-08-30T19:37:06Z</time>
      </trkpt>
      <trkpt lat="45.62388" lon="4.63054">
        <ele>544.1</ele>
        <time>2019-08-30T19:37:26Z</time>
      </trkpt>
      <trkpt lat="45.62409" lon="4.62993">
        <ele>537.8</ele>
        <time>2019-08-30T19:37:46Z</time>
      </trkpt>
      <trkpt lat="45.62402" lon="4.62942">
        <ele>535.3</ele>
        <time>2019-08-30T19:38:06Z</time>
      </trkpt>
      <trkpt lat="45.62391" lon="4.62906">
        <ele>532.9</ele>
        <time>2019-08-30T19:38:26Z</time>
      </trkpt>
      <trkpt lat="45.62382" lon="4.62863">
        <ele>531</ele>
        <time>2019-08-30T19:38:46Z</time>
      </trkpt>
      <trkpt lat="45.62378" lon="4.62817">
        <ele>532.7</ele>
        <time>2019-08-30T19:39:06Z</time>
      </trkpt>
      <trkpt lat="45.624" lon="4.62772">
        <ele>527.2</ele>
        <time>2019-08-30T19:39:26Z</time>
      </trkpt>
      <trkpt lat="45.6243" lon="4.62747">
        <ele>519.5</ele>
        <time>2019-08-30T19:39:46Z</time>
      </trkpt>
      <trkpt lat="45.62439" lon="4.62712">
        <ele>516</ele>
        <time>2019-08-30T19:40:06Z</time>
      </trkpt>
      <trkpt lat="45.6245" lon="4.62671">
        <ele>508.1</ele>
        <time>2019-08-30T19:40:26Z</time>
      </trkpt>
      <trkpt lat="45.62453" lon="4.62622">
        <ele>500.7</ele>
        <time>2019-08-30T19:40:46Z</time>
      </trkpt>
      <trkpt lat="45.62452" lon="4.62586">
        <ele>497.6</ele>
        <time>2019-08-30T19:41:06Z</time>
      </trkpt>
      <trkpt lat="45.62455" lon="4.62548">
        <ele>494</ele>
        <time>2019-08-30T19:41:26Z</time>
      </trkpt>
      <trkpt lat="45.62472" lon="4.62503">
        <ele>494.6</ele>
        <time>2019-08-30T19:41:46Z</time>
      </trkpt>
      <trkpt lat="45.6251" lon="4.62318">
        <ele>511.8</ele>
        <time>2019-08-30T19:42:06Z</time>
      </trkpt>
      <trkpt lat="45.62442" lon="4.62132">
        <ele>526.6</ele>
        <time>2019-08-30T19:42:26Z</time>
      </trkpt>
      <trkpt lat="45.62333" lon="4.62039">
        <ele>551.4</ele>
        <time>2019-08-30T19:42:46Z</time>
      </trkpt>
      <trkpt lat="45.62246" lon="4.61969">
        <ele>563.5</ele>
        <time>2019-08-30T19:43:06Z</time>
      </trkpt>
      <trkpt lat="45.62254" lon="4.6186">
        <ele>577.8</ele>
        <time>2019-08-30T19:43:26Z</time>
      </trkpt>
      <trkpt lat="45.62267" lon="4.61746">
        <ele>590.7</ele>
        <time>2019-08-30T19:43:46Z</time>
      </trkpt>
      <trkpt lat="45.62362" lon="4.61723">
        <ele>597.1</ele>
        <time>2019-08-30T19:44:06Z</time>
      </trkpt>
      <trkpt lat="45.62425" lon="4.61626">
        <ele>616.3</ele>
        <time>2019-08-30T19:44:26Z</time>
      </trkpt>
      <trkpt lat="45.6235" lon="4.616">
        <ele>620.9</ele>
        <time>2019-08-30T19:44:46Z</time>
      </trkpt>
      <trkpt lat="45.62269" lon="4.61488">
        <ele>638.3</ele>
        <time>2019-08-30T19:45:06Z</time>
      </trkpt>
      <trkpt lat="45.62195" lon="4.61359">
        <ele>658.4</ele>
        <time>2019-08-30T19:45:26Z</time>
      </trkpt>
      <trkpt lat="45.62195" lon="4.61359">
        <ele>658.4</ele>
        <time>2019-08-30T19:45:26Z</time>
      </trkpt>
      <trkpt lat="45.62326" lon="4.61296">
        <ele>696.1</ele>
        <time>2019-08-30T19:45:46Z</time>
      </trkpt>
      <trkpt lat="45.62446" lon="4.61254">
        <ele>718.3</ele>
        <time>2019-08-30T19:46:06Z</time>
      </trkpt>
      <trkpt lat="45.62516" lon="4.61202">
        <ele>742.7</ele>
        <time>2019-08-30T19:46:26Z</time>
      </trkpt>
      <trkpt lat="45.62579" lon="4.61159">
        <ele>756.8</ele>
        <time>2019-08-30T19:46:46Z</time>
      </trkpt>
      <trkpt lat="45.6265" lon="4.61067">
        <ele>778.8</ele>
        <time>2019-08-30T19:47:06Z</time>
      </trkpt>
      <trkpt lat="45.62714" lon="4.60926">
        <ele>799.9</ele>
        <time>2019-08-30T19:47:26Z</time>
      </trkpt>
      <trkpt lat="45.62702" lon="4.60753">
        <ele>815.9</ele>
        <time>2019-08-30T19:47:46Z</time>
      </trkpt>
      <trkpt lat="45.6272" lon="4.60639">
        <ele>822.3</ele>
        <time>2019-08-30T19:48:06Z</time>
      </trkpt>
      <trkpt lat="45.62749" lon="4.60573">
        <ele>826.8</ele>
        <time>2019-08-30T19:48:26Z</time>
      </trkpt>
      <trkpt lat="45.62801" lon="4.60525">
        <ele>826.6</ele>
        <time>2019-08-30T19:48:46Z</time>
      </trkpt>
      <trkpt lat="45.62879" lon="4.60387">
        <ele>836.5</ele>
        <time>2019-08-30T19:49:06Z</time>
      </trkpt>
      <trkpt lat="45.6291" lon="4.60301">
        <ele>837</ele>
        <time>2019-08-30T19:49:26Z</time>
      </trkpt>
      <trkpt lat="45.62951" lon="4.60223">
        <ele>838.1</ele>
        <time>2019-08-30T19:49:46Z</time>
      </trkpt>
      <trkpt lat="45.63021" lon="4.60149">
        <ele>842.7</ele>
        <time>2019-08-30T19:50:06Z</time>
      </trkpt>
      <trkpt lat="45.62997" lon="4.60098">
        <ele>843.1</ele>
        <time>2019-08-30T19:50:26Z</time>
      </trkpt>
      <trkpt lat="45.62997" lon="4.59984">
        <ele>842.9</ele>
        <time>2019-08-30T19:50:46Z</time>
      </trkpt>
      <trkpt lat="45.63074" lon="4.59781">
        <ele>860.9</ele>
        <time>2019-08-30T19:51:06Z</time>
      </trkpt>
      <trkpt lat="45.63172" lon="4.59687">
        <ele>867.5</ele>
        <time>2019-08-30T19:51:26Z</time>
      </trkpt>
      <trkpt lat="45.63249" lon="4.59678">
        <ele>867.6</ele>
        <time>2019-08-30T19:51:46Z</time>
      </trkpt>
      <trkpt lat="45.63319" lon="4.5966">
        <ele>864.3</ele>
        <time>2019-08-30T19:52:06Z</time>
      </trkpt>
      <trkpt lat="45.63389" lon="4.59655">
        <ele>862.9</ele>
        <time>2019-08-30T19:52:26Z</time>
      </trkpt>
      <trkpt lat="45.63446" lon="4.59647">
        <ele>861.6</ele>
        <time>2019-08-30T19:52:46Z</time>
      </trkpt>
      <trkpt lat="45.63503" lon="4.59655">
        <ele>861.3</ele>
        <time>2019-08-30T19:53:06Z</time>
      </trkpt>
      <trkpt lat="45.63539" lon="4.59672">
        <ele>861.4</ele>
        <time>2019-08-30T19:53:26Z</time>
      </trkpt>
      <trkpt lat="45.63547" lon="4.59614">
        <ele>858</ele>
        <time>2019-08-30T19:53:46Z</time>
      </trkpt>
      <trkpt lat="45.63513" lon="4.59537">
        <ele>852.4</ele>
        <time>2019-08-30T19:54:06Z</time>
      </trkpt>
      <trkpt lat="45.63494" lon="4.59423">
        <ele>846</ele>
        <time>2019-08-30T19:54:26Z</time>
      </trkpt>
      <trkpt lat="45.63573" lon="4.59252">
        <ele>867.1</ele>
        <time>2019-08-30T19:54:46Z</time>
      </trkpt>
      <trkpt lat="45.63652" lon="4.59184">
        <ele>881.5</ele>
        <time>2019-08-30T19:55:06Z</time>
      </trkpt>
      <trkpt lat="45.63702" lon="4.59276">
        <ele>899.7</ele>
        <time>2019-08-30T19:55:26Z</time>
      </trkpt>
      <trkpt lat="45.63778" lon="4.59396">
        <ele>922.1</ele>
        <time>2019-08-30T19:55:46Z</time>
      </trkpt>
      <trkpt lat="45.63806" lon="4.59433">
        <ele>923.6</ele>
        <time>2019-08-30T19:56:06Z</time>
      </trkpt>
      <trkpt lat="45.6383" lon="4.59446">
        <ele>925.2</ele>
        <time>2019-08-30T19:56:26Z</time>
      </trkpt>
      <trkpt lat="45.63884" lon="4.59432">
        <ele>931.7</ele>
        <time>2019-08-30T19:56:46Z</time>
      </trkpt>
      <trkpt lat="45.63914" lon="4.59405">
        <ele>931.3</ele>
        <time>2019-08-30T19:57:06Z</time>
      </trkpt>
      <trkpt lat="45.63941" lon="4.59375">
        <ele>929.9</ele>
        <time>2019-08-30T19:57:26Z</time>
      </trkpt>
      <trkpt lat="45.6395" lon="4.59326">
        <ele>924.9</ele>
        <time>2019-08-30T19:57:46Z</time>
      </trkpt>
      <trkpt lat="45.63942" lon="4.59276">
        <ele>922.1</ele>
        <time>2019-08-30T19:58:06Z</time>
      </trkpt>
      <trkpt lat="45.6394" lon="4.59226">
        <ele>919.3</ele>
        <time>2019-08-30T19:58:26Z</time>
      </trkpt>
      <trkpt lat="45.63935" lon="4.59173">
        <ele>917.6</ele>
        <time>2019-08-30T19:58:46Z</time>
      </trkpt>
      <trkpt lat="45.63965" lon="4.59131">
        <ele>912.1</ele>
        <time>2019-08-30T19:59:06Z</time>
      </trkpt>
      <trkpt lat="45.63992" lon="4.59106">
        <ele>905.6</ele>
        <time>2019-08-30T19:59:26Z</time>
      </trkpt>
      <trkpt lat="45.64006" lon="4.59089">
        <ele>901.9</ele>
        <time>2019-08-30T19:59:46Z</time>
      </trkpt>
      <trkpt lat="45.6402" lon="4.5905">
        <ele>896.1</ele>
        <time>2019-08-30T20:00:06Z</time>
      </trkpt>
      <trkpt lat="45.64027" lon="4.59008">
        <ele>892.7</ele>
        <time>2019-08-30T20:00:26Z</time>
      </trkpt>
      <trkpt lat="45.64038" lon="4.58962">
        <ele>889.5</ele>
        <time>2019-08-30T20:00:46Z</time>
      </trkpt>
      <trkpt lat="45.64044" lon="4.58902">
        <ele>887.9</ele>
        <time>2019-08-30T20:01:06Z</time>
      </trkpt>
      <trkpt lat="45.64066" lon="4.58858">
        <ele>883.4</ele>
        <time>2019-08-30T20:01:26Z</time>
      </trkpt>
      <trkpt lat="45.64079" lon="4.58836">
        <ele>880.3</ele>
        <time>2019-08-30T20:01:46Z</time>
      </trkpt>
      <trkpt lat="45.6406" lon="4.58803">
        <ele>883.3</ele>
        <time>2019-08-30T20:02:06Z</time>
      </trkpt>
      <trkpt lat="45.63909" lon="4.58789">
        <ele>895.3</ele>
        <time>2019-08-30T20:02:26Z</time>
      </trkpt>
      <trkpt lat="45.63851" lon="4.58741">
        <ele>895.4</ele>
        <time>2019-08-30T20:02:46Z</time>
      </trkpt>
      <trkpt lat="45.63816" lon="4.58721">
        <ele>891.9</ele>
        <time>2019-08-30T20:03:06Z</time>
      </trkpt>
      <trkpt lat="45.63767" lon="4.587">
        <ele>885.2</ele>
        <time>2019-08-30T20:03:26Z</time>
      </trkpt>
      <trkpt lat="45.63711" lon="4.58718">
        <ele>882.6</ele>
        <time>2019-08-30T20:03:46Z</time>
      </trkpt>
      <trkpt lat="45.63682" lon="4.58716">
        <ele>880.9</ele>
        <time>2019-08-30T20:04:06Z</time>
      </trkpt>
      <trkpt lat="45.63643" lon="4.58709">
        <ele>878.7</ele>
        <time>2019-08-30T20:04:26Z</time>
      </trkpt>
      <trkpt lat="45.63605" lon="4.58697">
        <ele>872.5</ele>
        <time>2019-08-30T20:04:46Z</time>
      </trkpt>
      <trkpt lat="45.63591" lon="4.58663">
        <ele>867.1</ele>
        <time>2019-08-30T20:05:06Z</time>
      </trkpt>
      <trkpt lat="45.6359" lon="4.58622">
        <ele>864.2</ele>
        <time>2019-08-30T20:05:26Z</time>
      </trkpt>
      <trkpt lat="45.636" lon="4.58582">
        <ele>862.7</ele>
        <time>2019-08-30T20:05:46Z</time>
      </trkpt>
      <trkpt lat="45.63609" lon="4.58539">
        <ele>860.5</ele>
        <time>2019-08-30T20:06:06Z</time>
      </trkpt>
      <trkpt lat="45.63614" lon="4.58494">
        <ele>857.2</ele>
        <time>2019-08-30T20:06:26Z</time>
      </trkpt>
      <trkpt lat="45.63638" lon="4.5846">
        <ele>855.9</ele>
        <time>2019-08-30T20:06:46Z</time>
      </trkpt>
      <trkpt lat="45.63605" lon="4.58434">
        <ele>851.9</ele>
        <time>2019-08-30T20:07:06Z</time>
      </trkpt>
      <trkpt lat="45.63572" lon="4.58405">
        <ele>848.6</ele>
        <time>2019-08-30T20:07:26Z</time>
      </trkpt>
      <trkpt lat="45.63542" lon="4.58368">
        <ele>845.6</ele>
        <time>2019-08-30T20:07:46Z</time>
      </trkpt>
      <trkpt lat="45.63516" lon="4.5833">
        <ele>841.8</ele>
        <time>2019-08-30T20:08:06Z</time>
      </trkpt>
      <trkpt lat="45.63487" lon="4.58297">
        <ele>839.8</ele>
        <time>2019-08-30T20:08:26Z</time>
      </trkpt>
      <trkpt lat="45.63455" lon="4.58264">
        <ele>837.7</ele>
        <time>2019-08-30T20:08:46Z</time>
      </trkpt>
      <trkpt lat="45.63419" lon="4.58245">
        <ele>834.3</ele>
        <time>2019-08-30T20:09:06Z</time>
      </trkpt>
      <trkpt lat="45.63383" lon="4.58226">
        <ele>831</ele>
        <time>2019-08-30T20:09:26Z</time>
      </trkpt>
      <trkpt lat="45.63362" lon="4.58193">
        <ele>826.5</ele>
        <time>2019-08-30T20:09:46Z</time>
      </trkpt>
      <trkpt lat="45.63347" lon="4.58168">
        <ele>822.3</ele>
        <time>2019-08-30T20:10:06Z</time>
      </trkpt>
      <trkpt lat="45.6333" lon="4.58149">
        <ele>818.8</ele>
        <time>2019-08-30T20:10:26Z</time>
      </trkpt>
      <trkpt lat="45.63315" lon="4.58128">
        <ele>816.2</ele>
        <time>2019-08-30T20:10:46Z</time>
      </trkpt>
      <trkpt lat="45.63302" lon="4.58108">
        <ele>812.8</ele>
        <time>2019-08-30T20:11:06Z</time>
      </trkpt>
      <trkpt lat="45.63287" lon="4.5808">
        <ele>809</ele>
        <time>2019-08-30T20:11:26Z</time>
      </trkpt>
      <trkpt lat="45.63269" lon="4.58055">
        <ele>806.5</ele>
        <time>2019-08-30T20:11:46Z</time>
      </trkpt>
      <trkpt lat="45.63298" lon="4.5801">
        <ele>803.2</ele>
        <time>2019-08-30T20:12:06Z</time>
      </trkpt>
      <trkpt lat="45.63362" lon="4.57958">
        <ele>803.7</ele>
        <time>2019-08-30T20:12:26Z</time>
      </trkpt>
      <trkpt lat="45.63451" lon="4.5792">
        <ele>807.3</ele>
        <time>2019-08-30T20:12:46Z</time>
      </trkpt>
      <trkpt lat="45.63489" lon="4.57918">
        <ele>806.7</ele>
        <time>2019-08-30T20:13:06Z</time>
      </trkpt>
      <trkpt lat="45.63504" lon="4.57948">
        <ele>810.8</ele>
        <time>2019-08-30T20:13:26Z</time>
      </trkpt>
      <trkpt lat="45.63576" lon="4.57914">
        <ele>806.6</ele>
        <time>2019-08-30T20:13:46Z</time>
      </trkpt>
      <trkpt lat="45.63633" lon="4.57785">
        <ele>798.3</ele>
        <time>2019-08-30T20:14:06Z</time>
      </trkpt>
      <trkpt lat="45.63723" lon="4.57633">
        <ele>812</ele>
        <time>2019-08-30T20:14:26Z</time>
      </trkpt>
      <trkpt lat="45.63758" lon="4.57532">
        <ele>814</ele>
        <time>2019-08-30T20:14:46Z</time>
      </trkpt>
      <trkpt lat="45.63785" lon="4.57489">
        <ele>817.7</ele>
        <time>2019-08-30T20:15:06Z</time>
      </trkpt>
      <trkpt lat="45.6382" lon="4.57461">
        <ele>816.9</ele>
        <time>2019-08-30T20:15:26Z</time>
      </trkpt>
      <trkpt lat="45.63859" lon="4.57452">
        <ele>815</ele>
        <time>2019-08-30T20:15:46Z</time>
      </trkpt>
      <trkpt lat="45.63889" lon="4.57451">
        <ele>812.8</ele>
        <time>2019-08-30T20:16:06Z</time>
      </trkpt>
      <trkpt lat="45.63926" lon="4.57455">
        <ele>809.3</ele>
        <time>2019-08-30T20:16:26Z</time>
      </trkpt>
      <trkpt lat="45.63955" lon="4.57462">
        <ele>806.8</ele>
        <time>2019-08-30T20:16:46Z</time>
      </trkpt>
      <trkpt lat="45.6398" lon="4.57466">
        <ele>803</ele>
        <time>2019-08-30T20:17:06Z</time>
      </trkpt>
      <trkpt lat="45.64006" lon="4.5748">
        <ele>800.4</ele>
        <time>2019-08-30T20:17:26Z</time>
      </trkpt>
      <trkpt lat="45.64026" lon="4.57493">
        <ele>798.9</ele>
        <time>2019-08-30T20:17:46Z</time>
      </trkpt>
      <trkpt lat="45.64058" lon="4.57489">
        <ele>793.4</ele>
        <time>2019-08-30T20:18:06Z</time>
      </trkpt>
      <trkpt lat="45.64095" lon="4.57487">
        <ele>788.1</ele>
        <time>2019-08-30T20:18:26Z</time>
      </trkpt>
      <trkpt lat="45.64135" lon="4.57472">
        <ele>781.2</ele>
        <time>2019-08-30T20:18:46Z</time>
      </trkpt>
      <trkpt lat="45.64171" lon="4.57454">
        <ele>777.8</ele>
        <time>2019-08-30T20:19:06Z</time>
      </trkpt>
      <trkpt lat="45.64206" lon="4.57448">
        <ele>776.4</ele>
        <time>2019-08-30T20:19:26Z</time>
      </trkpt>
      <trkpt lat="45.64236" lon="4.57439">
        <ele>775.4</ele>
        <time>2019-08-30T20:19:46Z</time>
      </trkpt>
      <trkpt lat="45.64301" lon="4.5742">
        <ele>776.6</ele>
        <time>2019-08-30T20:20:06Z</time>
      </trkpt>
      <trkpt lat="45.64413" lon="4.57373">
        <ele>790.8</ele>
        <time>2019-08-30T20:20:26Z</time>
      </trkpt>
      <trkpt lat="45.64558" lon="4.57298">
        <ele>807.3</ele>
        <time>2019-08-30T20:20:46Z</time>
      </trkpt>
      <trkpt lat="45.64645" lon="4.57235">
        <ele>808.9</ele>
        <time>2019-08-30T20:21:06Z</time>
      </trkpt>
      <trkpt lat="45.64725" lon="4.5718">
        <ele>808.1</ele>
        <time>2019-08-30T20:21:26Z</time>
      </trkpt>
      <trkpt lat="45.64791" lon="4.5712">
        <ele>804.7</ele>
        <time>2019-08-30T20:21:46Z</time>
      </trkpt>
      <trkpt lat="45.64844" lon="4.57049">
        <ele>801.7</ele>
        <time>2019-08-30T20:22:06Z</time>
      </trkpt>
      <trkpt lat="45.64897" lon="4.56979">
        <ele>799</ele>
        <time>2019-08-30T20:22:26Z</time>
      </trkpt>
      <trkpt lat="45.64943" lon="4.56892">
        <ele>799.3</ele>
        <time>2019-08-30T20:22:46Z</time>
      </trkpt>
      <trkpt lat="45.64985" lon="4.56817">
        <ele>800</ele>
        <time>2019-08-30T20:23:06Z</time>
      </trkpt>
      <trkpt lat="45.6503" lon="4.56762">
        <ele>799.2</ele>
        <time>2019-08-30T20:23:26Z</time>
      </trkpt>
      <trkpt lat="45.65071" lon="4.56716">
        <ele>797.5</ele>
        <time>2019-08-30T20:23:46Z</time>
      </trkpt>
      <trkpt lat="45.65114" lon="4.56672">
        <ele>796.9</ele>
        <time>2019-08-30T20:24:06Z</time>
      </trkpt>
      <trkpt lat="45.65181" lon="4.56662">
        <ele>792.3</ele>
        <time>2019-08-30T20:24:26Z</time>
      </trkpt>
      <trkpt lat="45.65226" lon="4.56659">
        <ele>788.4</ele>
        <time>2019-08-30T20:24:46Z</time>
      </trkpt>
      <trkpt lat="45.65281" lon="4.56646">
        <ele>783.8</ele>
        <time>2019-08-30T20:25:06Z</time>
      </trkpt>
      <trkpt lat="45.65358" lon="4.56643">
        <ele>784</ele>
        <time>2019-08-30T20:25:26Z</time>
      </trkpt>
      <trkpt lat="45.65399" lon="4.56664">
        <ele>783.8</ele>
        <time>2019-08-30T20:25:46Z</time>
      </trkpt>
      <trkpt lat="45.65436" lon="4.56647">
        <ele>783</ele>
        <time>2019-08-30T20:26:06Z</time>
      </trkpt>
      <trkpt lat="45.65457" lon="4.56648">
        <ele>782.5</ele>
        <time>2019-08-30T20:26:26Z</time>
      </trkpt>
      <trkpt lat="45.65482" lon="4.56654">
        <ele>778.9</ele>
        <time>2019-08-30T20:26:46Z</time>
      </trkpt>
      <trkpt lat="45.65499" lon="4.5666">
        <ele>776.3</ele>
        <time>2019-08-30T20:27:06Z</time>
      </trkpt>
      <trkpt lat="45.65521" lon="4.56654">
        <ele>773.3</ele>
        <time>2019-08-30T20:27:26Z</time>
      </trkpt>
      <trkpt lat="45.65548" lon="4.56643">
        <ele>769.4</ele>
        <time>2019-08-30T20:27:46Z</time>
      </trkpt>
      <trkpt lat="45.6558" lon="4.56634">
        <ele>763.9</ele>
        <time>2019-08-30T20:28:06Z</time>
      </trkpt>
      <trkpt lat="45.65595" lon="4.56617">
        <ele>760.9</ele>
        <time>2019-08-30T20:28:26Z</time>
      </trkpt>
      <trkpt lat="45.65615" lon="4.56601">
        <ele>756.8</ele>
        <time>2019-08-30T20:28:46Z</time>
      </trkpt>
      <trkpt lat="45.65635" lon="4.56582">
        <ele>752.7</ele>
        <time>2019-08-30T20:29:06Z</time>
      </trkpt>
      <trkpt lat="45.65661" lon="4.56565">
        <ele>747.7</ele>
        <time>2019-08-30T20:29:26Z</time>
      </trkpt>
      <trkpt lat="45.65687" lon="4.56547">
        <ele>743.3</ele>
        <time>2019-08-30T20:29:46Z</time>
      </trkpt>
      <trkpt lat="45.65689" lon="4.5652">
        <ele>742.6</ele>
        <time>2019-08-30T20:30:06Z</time>
      </trkpt>
      <trkpt lat="45.65689" lon="4.5652">
        <ele>742.6</ele>
        <time>2019-08-30T20:30:26Z</time>
      </trkpt>
      <trkpt lat="45.65688" lon="4.5652">
        <ele>742.7</ele>
        <time>2019-08-30T20:30:46Z</time>
      </trkpt>
      <trkpt lat="45.65688" lon="4.5652">
        <ele>742.7</ele>
        <time>2019-08-30T20:30:46Z</time>
      </trkpt>
      <trkpt lat="45.65688" lon="4.56519">
        <ele>742.7</ele>
        <time>2019-08-30T20:31:06Z</time>
      </trkpt>
      <trkpt lat="45.65686" lon="4.56518">
        <ele>742.9</ele>
        <time>2019-08-30T20:31:26Z</time>
      </trkpt>
      <trkpt lat="45.65686" lon="4.56518">
        <ele>742.9</ele>
        <time>2019-08-30T20:31:46Z</time>
      </trkpt>
      <trkpt lat="45.65686" lon="4.56517">
        <ele>742.9</ele>
        <time>2019-08-30T20:32:06Z</time>
      </trkpt>
      <trkpt lat="45.65686" lon="4.56517">
        <ele>742.9</ele>
        <time>2019-08-30T20:32:26Z</time>
      </trkpt>
      <trkpt lat="45.65686" lon="4.56517">
        <ele>743</ele>
        <time>2019-08-30T20:32:46Z</time>
      </trkpt>
      <trkpt lat="45.65686" lon="4.56517">
        <ele>743</ele>
        <time>2019-08-30T20:33:06Z</time>
      </trkpt>
      <trkpt lat="45.65686" lon="4.56517">
        <ele>743</ele>
        <time>2019-08-30T20:33:26Z</time>
      </trkpt>
      <trkpt lat="45.65686" lon="4.56517">
        <ele>743</ele>
        <time>2019-08-30T20:33:46Z</time>
      </trkpt>
      <trkpt lat="45.65686" lon="4.56517">
        <ele>743</ele>
        <time>2019-08-30T20:34:06Z</time>
      </trkpt>
      <trkpt lat="45.65686" lon="4.56517">
        <ele>743</ele>
        <time>2019-08-30T20:34:26Z</time>
      </trkpt>
      <trkpt lat="45.65686" lon="4.56517">
        <ele>743</ele>
        <time>2019-08-30T20:34:46Z</time>
      </trkpt>
      <trkpt lat="45.65686" lon="4.56517">
        <ele>743</ele>
        <time>2019-08-30T20:35:06Z</time>
      </trkpt>
      <trkpt lat="45.65686" lon="4.56516">
        <ele>743</ele>
        <time>2019-08-30T20:35:26Z</time>
      </trkpt>
      <trkpt lat="45.65686" lon="4.56516">
        <ele>743</ele>
        <time>2019-08-30T20:35:46Z</time>
      </trkpt>
      <trkpt lat="45.65686" lon="4.56516">
        <ele>743</ele>
        <time>2019-08-30T20:36:06Z</time>
      </trkpt>
      <trkpt lat="45.65686" lon="4.56516">
        <ele>743</ele>
        <time>2019-08-30T20:36:26Z</time>
      </trkpt>
      <trkpt lat="45.65686" lon="4.56515">
        <ele>742.9</ele>
        <time>2019-08-30T20:36:46Z</time>
      </trkpt>
      <trkpt lat="45.65686" lon="4.56515">
        <ele>742.9</ele>
        <time>2019-08-30T20:37:06Z</time>
      </trkpt>
      <trkpt lat="45.65686" lon="4.56515">
        <ele>742.9</ele>
        <time>2019-08-30T20:37:26Z</time>
      </trkpt>
      <trkpt lat="45.65693" lon="4.56516">
        <ele>742</ele>
        <time>2019-08-30T20:37:46Z</time>
      </trkpt>
      <trkpt lat="45.6573" lon="4.5649">
        <ele>737</ele>
        <time>2019-08-30T20:38:06Z</time>
      </trkpt>
      <trkpt lat="45.65765" lon="4.56477">
        <ele>733.1</ele>
        <time>2019-08-30T20:38:26Z</time>
      </trkpt>
      <trkpt lat="45.65816" lon="4.56459">
        <ele>728.5</ele>
        <time>2019-08-30T20:38:46Z</time>
      </trkpt>
      <trkpt lat="45.65854" lon="4.56413">
        <ele>724.7</ele>
        <time>2019-08-30T20:39:06Z</time>
      </trkpt>
      <trkpt lat="45.65867" lon="4.56401">
        <ele>723.9</ele>
        <time>2019-08-30T20:39:26Z</time>
      </trkpt>
      <trkpt lat="45.65925" lon="4.56396">
        <ele>726.6</ele>
        <time>2019-08-30T20:39:46Z</time>
      </trkpt>
      <trkpt lat="45.66037" lon="4.5637">
        <ele>731.7</ele>
        <time>2019-08-30T20:40:06Z</time>
      </trkpt>
      <trkpt lat="45.66147" lon="4.56322">
        <ele>735.4</ele>
        <time>2019-08-30T20:40:26Z</time>
      </trkpt>
      <trkpt lat="45.66265" lon="4.56298">
        <ele>735.9</ele>
        <time>2019-08-30T20:40:46Z</time>
      </trkpt>
      <trkpt lat="45.66303" lon="4.56313">
        <ele>735.8</ele>
        <time>2019-08-30T20:41:06Z</time>
      </trkpt>
      <trkpt lat="45.66339" lon="4.56439">
        <ele>733.3</ele>
        <time>2019-08-30T20:41:26Z</time>
      </trkpt>
      <trkpt lat="45.66388" lon="4.56577">
        <ele>730</ele>
        <time>2019-08-30T20:41:46Z</time>
      </trkpt>
      <trkpt lat="45.66422" lon="4.56771">
        <ele>726.7</ele>
        <time>2019-08-30T20:42:06Z</time>
      </trkpt>
      <trkpt lat="45.66443" lon="4.56928">
        <ele>732.6</ele>
        <time>2019-08-30T20:42:26Z</time>
      </trkpt>
      <trkpt lat="45.66493" lon="4.57009">
        <ele>736.3</ele>
        <time>2019-08-30T20:42:46Z</time>
      </trkpt>
      <trkpt lat="45.66508" lon="4.57127">
        <ele>731.1</ele>
        <time>2019-08-30T20:43:06Z</time>
      </trkpt>
      <trkpt lat="45.66519" lon="4.57211">
        <ele>728.2</ele>
        <time>2019-08-30T20:43:26Z</time>
      </trkpt>
      <trkpt lat="45.6653" lon="4.57247">
        <ele>728.1</ele>
        <time>2019-08-30T20:43:46Z</time>
      </trkpt>
      <trkpt lat="45.66542" lon="4.57255">
        <ele>729.3</ele>
        <time>2019-08-30T20:44:06Z</time>
      </trkpt>
      <trkpt lat="45.66559" lon="4.5728">
        <ele>728.2</ele>
        <time>2019-08-30T20:44:26Z</time>
      </trkpt>
      <trkpt lat="45.66576" lon="4.57299">
        <ele>726.4</ele>
        <time>2019-08-30T20:44:46Z</time>
      </trkpt>
      <trkpt lat="45.66592" lon="4.57319">
        <ele>723.7</ele>
        <time>1975-12-17T09:21:10Z</time>
      </trkpt>
      <trkpt lat="45.66592" lon="4.57319">
        <ele>723.6</ele>
        <time>1975-12-17T09:21:10Z</time>
      </trkpt>
      <trkpt lat="45.66594" lon="4.5732">
        <ele>723.4</ele>
        <time>1975-12-17T09:21:10Z</time>
      </trkpt>
      <trkpt lat="45.66606" lon="4.57317">
        <ele>723.2</ele>
        <time>1975-12-17T09:21:10Z</time>
      </trkpt>
      <trkpt lat="45.66618" lon="4.57311">
        <ele>723.5</ele>
        <time>1975-12-17T09:21:10Z</time>
      </trkpt>
      <trkpt lat="45.66625" lon="4.57317">
        <ele>722.4</ele>
        <time>1975-12-17T09:21:10Z</time>
      </trkpt>
      <trkpt lat="45.66659" lon="4.57339">
        <ele>719.1</ele>
        <time>1975-12-17T09:21:10Z</time>
      </trkpt>
      <trkpt lat="45.6669" lon="4.57352">
        <ele>716.1</ele>
        <time>1975-12-17T09:21:10Z</time>
      </trkpt>
      <trkpt lat="45.66696" lon="4.57348">
        <ele>717</ele>
        <time>1975-12-17T09:21:10Z</time>
      </trkpt>
      <trkpt lat="45.66736" lon="4.57366">
        <ele>712.7</ele>
        <time>1975-12-17T09:21:10Z</time>
      </trkpt>
      <trkpt lat="45.6676" lon="4.57383">
        <ele>708.6</ele>
        <time>1975-12-17T09:21:10Z</time>
      </trkpt>
      <trkpt lat="45.66782" lon="4.5739">
        <ele>707.2</ele>
        <time>1975-12-17T09:21:10Z</time>
      </trkpt>
      <trkpt lat="45.66796" lon="4.574">
        <ele>705.3</ele>
        <time>1975-12-17T09:21:10Z</time>
      </trkpt>
      <trkpt lat="45.66814" lon="4.57405">
        <ele>705.2</ele>
        <time>1975-12-17T09:21:10Z</time>
      </trkpt>
      <trkpt lat="45.66866" lon="4.57391">
        <ele>711.8</ele>
        <time>1975-12-17T09:21:10Z</time>
      </trkpt>
      <trkpt lat="45.66886" lon="4.57397">
        <ele>710.7</ele>
        <time>1975-12-17T09:21:10Z</time>
      </trkpt>
      <trkpt lat="45.66893" lon="4.57403">
        <ele>709.1</ele>
        <time>1975-12-17T09:21:10Z</time>
      </trkpt>
      <trkpt lat="45.669" lon="4.57412">
        <ele>706.9</ele>
        <time>1975-12-17T09:21:10Z</time>
      </trkpt>
      <trkpt lat="45.66902" lon="4.57422">
        <ele>704.7</ele>
        <time>1975-12-17T09:21:10Z</time>
      </trkpt>
      <trkpt lat="45.66899" lon="4.57429">
        <ele>703.2</ele>
        <time>1975-12-17T09:21:10Z</time>
      </trkpt>
      <trkpt lat="45.66889" lon="4.57434">
        <ele>702.3</ele>
        <time>1975-12-17T09:21:10Z</time>
      </trkpt>
      <trkpt lat="45.66889" lon="4.57434">
        <ele>702.3</ele>
        <time>1975-12-17T09:21:10Z</time>
      </trkpt>
      <trkpt lat="45.66871" lon="4.57445">
        <ele>699.8</ele>
        <time>1975-12-17T09:21:10Z</time>
      </trkpt>
      <trkpt lat="45.66864" lon="4.57452">
        <ele>697.7</ele>
        <time>1975-12-17T09:21:10Z</time>
      </trkpt>
      <trkpt lat="45.66863" lon="4.5746">
        <ele>695.6</ele>
        <time>1975-12-17T09:21:10Z</time>
      </trkpt>
      <trkpt lat="45.66865" lon="4.57466">
        <ele>693.6</ele>
        <time>1975-12-17T09:21:10Z</time>
      </trkpt>
      <trkpt lat="45.66869" lon="4.57466">
        <ele>693.9</ele>
        <time>1975-12-17T09:21:10Z</time>
      </trkpt>
      <trkpt lat="45.66887" lon="4.57471">
        <ele>692.6</ele>
        <time>1975-12-17T09:21:10Z</time>
      </trkpt>
      <trkpt lat="45.6692" lon="4.57472">
        <ele>692.1</ele>
        <time>1975-12-17T09:21:10Z</time>
      </trkpt>
      <trkpt lat="45.67021" lon="4.57531">
        <ele>670.6</ele>
        <time>1975-12-17T09:21:10Z</time>
      </trkpt>
      <trkpt lat="45.67048" lon="4.57524">
        <ele>670.4</ele>
        <time>1975-12-17T09:21:10Z</time>
      </trkpt>
      <trkpt lat="45.67054" lon="4.57531">
        <ele>668.9</ele>
        <time>1975-12-17T09:21:10Z</time>
      </trkpt>
      <trkpt lat="45.6706" lon="4.5755">
        <ele>665.2</ele>
        <time>1975-12-17T09:21:10Z</time>
      </trkpt>
      <trkpt lat="45.67067" lon="4.57566">
        <ele>662.5</ele>
        <time>1975-12-17T09:21:10Z</time>
      </trkpt>
      <trkpt lat="45.67068" lon="4.57577">
        <ele>660.6</ele>
        <time>1975-12-17T09:21:10Z</time>
      </trkpt>
      <trkpt lat="45.67066" lon="4.57581">
        <ele>659.8</ele>
        <time>1975-12-17T09:21:10Z</time>
      </trkpt>
      <trkpt lat="45.67066" lon="4.57581">
        <ele>659.8</ele>
        <time>1975-12-17T09:21:10Z</time>
      </trkpt>
      <trkpt lat="45.67048" lon="4.57626">
        <ele>649</ele>
        <time>1975-12-17T09:21:10Z</time>
      </trkpt>
      <trkpt lat="45.67033" lon="4.57649">
        <ele>645.4</ele>
        <time>1975-12-17T09:21:10Z</time>
      </trkpt>
      <trkpt lat="45.67" lon="4.57679">
        <ele>637.6</ele>
        <time>1975-12-17T09:21:10Z</time>
      </trkpt>
      <trkpt lat="45.66996" lon="4.57691">
        <ele>635</ele>
        <time>1975-12-17T09:21:10Z</time>
      </trkpt>
      <trkpt lat="45.66986" lon="4.57747">
        <ele>629.5</ele>
        <time>1975-12-17T09:21:10Z</time>
      </trkpt>
      <trkpt lat="45.66975" lon="4.5778">
        <ele>624.7</ele>
        <time>1975-12-17T09:21:10Z</time>
      </trkpt>
      <trkpt lat="45.66966" lon="4.57821">
        <ele>622.9</ele>
        <time>1975-12-17T09:21:10Z</time>
      </trkpt>
      <trkpt lat="45.66963" lon="4.57851">
        <ele>624.1</ele>
        <time>1975-12-17T09:21:10Z</time>
      </trkpt>
      <trkpt lat="45.66959" lon="4.57902">
        <ele>626.6</ele>
        <time>1975-12-17T09:21:10Z</time>
      </trkpt>
      <trkpt lat="45.6695" lon="4.57999">
        <ele>629.5</ele>
        <time>1975-12-17T09:21:10Z</time>
      </trkpt>
      <trkpt lat="45.66978" lon="4.58161">
        <ele>646.7</ele>
        <time>1975-12-17T09:21:10Z</time>
      </trkpt>
      <trkpt lat="45.66985" lon="4.58185">
        <ele>649.1</ele>
        <time>1975-12-17T09:21:10Z</time>
      </trkpt>
      <trkpt lat="45.67004" lon="4.58232">
        <ele>654.1</ele>
        <time>1975-12-17T09:21:10Z</time>
      </trkpt>
      <trkpt lat="45.67012" lon="4.58251">
        <ele>655.6</ele>
        <time>1975-12-17T09:21:10Z</time>
      </trkpt>
      <trkpt lat="45.67051" lon="4.5829">
        <ele>661.5</ele>
        <time>1975-12-17T09:21:10Z</time>
      </trkpt>
      <trkpt lat="45.67063" lon="4.583">
        <ele>660.6</ele>
        <time>1975-12-17T09:21:10Z</time>
      </trkpt>
      <trkpt lat="45.67075" lon="4.58295">
        <ele>661.7</ele>
        <time>1975-12-17T09:21:10Z</time>
      </trkpt>
      <trkpt lat="45.67104" lon="4.5827">
        <ele>667.3</ele>
        <time>1975-12-17T09:21:10Z</time>
      </trkpt>
      <trkpt lat="45.67107" lon="4.58269">
        <ele>667.7</ele>
        <time>1975-12-17T09:21:10Z</time>
      </trkpt>
      <trkpt lat="45.67107" lon="4.58269">
        <ele>667.7</ele>
        <time>1975-12-17T09:21:10Z</time>
      </trkpt>
      <trkpt lat="45.67115" lon="4.58268">
        <ele>668.6</ele>
        <time>1975-12-17T09:21:10Z</time>
      </trkpt>
      <trkpt lat="45.67121" lon="4.58272">
        <ele>668.2</ele>
        <time>1975-12-17T09:21:10Z</time>
      </trkpt>
      <trkpt lat="45.6713" lon="4.58284">
        <ele>666.6</ele>
        <time>1975-12-17T09:21:10Z</time>
      </trkpt>
      <trkpt lat="45.67144" lon="4.58346">
        <ele>657.7</ele>
        <time>1975-12-17T09:21:10Z</time>
      </trkpt>
      <trkpt lat="45.67154" lon="4.58364">
        <ele>656.5</ele>
        <time>1975-12-17T09:21:10Z</time>
      </trkpt>
      <trkpt lat="45.6716" lon="4.58384">
        <ele>653.5</ele>
        <time>1975-12-17T09:21:10Z</time>
      </trkpt>
      <trkpt lat="45.67174" lon="4.58409">
        <ele>649.7</ele>
        <time>1975-12-17T09:21:10Z</time>
      </trkpt>
      <trkpt lat="45.67192" lon="4.58432">
        <ele>646.7</ele>
        <time>1975-12-17T09:21:10Z</time>
      </trkpt>
      <trkpt lat="45.67197" lon="4.58451">
        <ele>642.3</ele>
        <time>1975-12-17T09:21:10Z</time>
      </trkpt>
      <trkpt lat="45.67199" lon="4.58508">
        <ele>632.6</ele>
        <time>1975-12-17T09:21:10Z</time>
      </trkpt>
      <trkpt lat="45.67204" lon="4.58538">
        <ele>628.7</ele>
        <time>1975-12-17T09:21:10Z</time>
      </trkpt>
      <trkpt lat="45.67216" lon="4.58555">
        <ele>629.7</ele>
        <time>1975-12-17T09:21:10Z</time>
      </trkpt>
      <trkpt lat="45.67238" lon="4.58573">
        <ele>633.8</ele>
        <time>1975-12-17T09:21:10Z</time>
      </trkpt>
      <trkpt lat="45.67269" lon="4.58586">
        <ele>640.7</ele>
        <time>1975-12-17T09:21:10Z</time>
      </trkpt>
      <trkpt lat="45.67292" lon="4.58587">
        <ele>646.9</ele>
        <time>1975-12-17T09:21:10Z</time>
      </trkpt>
      <trkpt lat="45.67371" lon="4.5857">
        <ele>663.8</ele>
        <time>1975-12-17T09:21:10Z</time>
      </trkpt>
      <trkpt lat="45.67411" lon="4.58575">
        <ele>665</ele>
        <time>1975-12-17T09:21:10Z</time>
      </trkpt>
      <trkpt lat="45.67437" lon="4.58589">
        <ele>661.5</ele>
        <time>1975-12-17T09:21:10Z</time>
      </trkpt>
      <trkpt lat="45.67459" lon="4.58609">
        <ele>654.9</ele>
        <time>1975-12-17T09:21:10Z</time>
      </trkpt>
      <trkpt lat="45.6749" lon="4.58633">
        <ele>647.3</ele>
        <time>1975-12-17T09:21:10Z</time>
      </trkpt>
      <trkpt lat="45.67499" lon="4.5863">
        <ele>648</ele>
        <time>1975-12-17T09:21:10Z</time>
      </trkpt>
      <trkpt lat="45.67511" lon="4.58624">
        <ele>649.3</ele>
        <time>1975-12-17T09:21:10Z</time>
      </trkpt>
      <trkpt lat="45.67527" lon="4.58616">
        <ele>651.8</ele>
        <time>1975-12-17T09:21:10Z</time>
      </trkpt>
      <trkpt lat="45.67527" lon="4.58616">
        <ele>651.8</ele>
        <time>1975-12-17T09:21:10Z</time>
      </trkpt>
      <trkpt lat="45.67533" lon="4.58613">
        <ele>652.7</ele>
        <time>1975-12-17T09:21:10Z</time>
      </trkpt>
      <trkpt lat="45.67539" lon="4.58596">
        <ele>657.8</ele>
        <time>1975-12-17T09:21:10Z</time>
      </trkpt>
      <trkpt lat="45.67565" lon="4.58558">
        <ele>664.4</ele>
        <time>1975-12-17T09:21:10Z</time>
      </trkpt>
      <trkpt lat="45.67605" lon="4.58458">
        <ele>679.3</ele>
        <time>1975-12-17T09:21:10Z</time>
      </trkpt>
      <trkpt lat="45.67619" lon="4.58442">
        <ele>677.7</ele>
        <time>1975-12-17T09:21:10Z</time>
      </trkpt>
      <trkpt lat="45.67636" lon="4.58387">
        <ele>678.2</ele>
        <time>1975-12-17T09:21:10Z</time>
      </trkpt>
      <trkpt lat="45.67641" lon="4.5834">
        <ele>682.5</ele>
        <time>1975-12-17T09:21:10Z</time>
      </trkpt>
      <trkpt lat="45.6764" lon="4.58304">
        <ele>687.1</ele>
        <time>1975-12-17T09:21:10Z</time>
      </trkpt>
      <trkpt lat="45.67642" lon="4.58293">
        <ele>688.2</ele>
        <time>1975-12-17T09:21:10Z</time>
      </trkpt>
      <trkpt lat="45.67656" lon="4.58269">
        <ele>690.3</ele>
        <time>1975-12-17T09:21:10Z</time>
      </trkpt>
      <trkpt lat="45.67674" lon="4.58288">
        <ele>684.1</ele>
        <time>1975-12-17T09:21:10Z</time>
      </trkpt>
      <trkpt lat="45.67718" lon="4.58307">
        <ele>675.7</ele>
        <time>1975-12-17T09:21:10Z</time>
      </trkpt>
      <trkpt lat="45.67732" lon="4.58309">
        <ele>676.3</ele>
        <time>1975-12-17T09:21:10Z</time>
      </trkpt>
      <trkpt lat="45.67759" lon="4.58306">
        <ele>678.9</ele>
        <time>1975-12-17T09:21:10Z</time>
      </trkpt>
      <trkpt lat="45.67769" lon="4.58297">
        <ele>681.8</ele>
        <time>1975-12-17T09:21:10Z</time>
      </trkpt>
      <trkpt lat="45.67764" lon="4.58257">
        <ele>692</ele>
        <time>1975-12-17T09:21:10Z</time>
      </trkpt>
      <trkpt lat="45.67834" lon="4.58194">
        <ele>703</ele>
        <time>1975-12-17T09:21:10Z</time>
      </trkpt>
      <trkpt lat="45.6784" lon="4.58184">
        <ele>703.7</ele>
        <time>1975-12-17T09:21:10Z</time>
      </trkpt>
      <trkpt lat="45.67845" lon="4.58169">
        <ele>705.7</ele>
        <time>1975-12-17T09:21:10Z</time>
      </trkpt>
      <trkpt lat="45.67903" lon="4.58157">
        <ele>702.9</ele>
        <time>1975-12-17T09:21:10Z</time>
      </trkpt>
      <trkpt lat="45.67915" lon="4.58156">
        <ele>702.8</ele>
        <time>1975-12-17T09:21:10Z</time>
      </trkpt>
      <trkpt lat="45.67912" lon="4.58159">
        <ele>702.2</ele>
        <time>1975-12-17T09:21:10Z</time>
      </trkpt>
      <trkpt lat="45.67912" lon="4.58159">
        <ele>702.2</ele>
        <time>1975-12-17T09:21:10Z</time>
      </trkpt>
      <trkpt lat="45.67915" lon="4.58156">
        <ele>702.8</ele>
        <time>1975-12-17T09:21:10Z</time>
      </trkpt>
      <trkpt lat="45.6796" lon="4.58133">
        <ele>707.2</ele>
        <time>1975-12-17T09:21:10Z</time>
      </trkpt>
      <trkpt lat="45.67982" lon="4.5813">
        <ele>709.8</ele>
        <time>1975-12-17T09:21:10Z</time>
      </trkpt>
      <trkpt lat="45.68005" lon="4.58153">
        <ele>706.8</ele>
        <time>1975-12-17T09:21:10Z</time>
      </trkpt>
      <trkpt lat="45.68022" lon="4.58189">
        <ele>700.7</ele>
        <time>1975-12-17T09:21:10Z</time>
      </trkpt>
      <trkpt lat="45.68035" lon="4.58195">
        <ele>701</ele>
        <time>1975-12-17T09:21:10Z</time>
      </trkpt>
      <trkpt lat="45.68045" lon="4.58184">
        <ele>704.8</ele>
        <time>1975-12-17T09:21:10Z</time>
      </trkpt>
      <trkpt lat="45.6805" lon="4.58162">
        <ele>710.6</ele>
        <time>1975-12-17T09:21:10Z</time>
      </trkpt>
      <trkpt lat="45.68043" lon="4.58099">
        <ele>724.4</ele>
        <time>1975-12-17T09:21:10Z</time>
      </trkpt>
      <trkpt lat="45.68015" lon="4.5804">
        <ele>741.3</ele>
        <time>1975-12-17T09:21:10Z</time>
      </trkpt>
      <trkpt lat="45.68014" lon="4.58029">
        <ele>744.9</ele>
        <time>1975-12-17T09:21:10Z</time>
      </trkpt>
      <trkpt lat="45.68016" lon="4.58029">
        <ele>745</ele>
        <time>1975-12-17T09:21:10Z</time>
      </trkpt>
      <trkpt lat="45.67977" lon="4.5799">
        <ele>756.3</ele>
        <time>2019-08-30T14:29:33Z</time>
      </trkpt>
      <trkpt lat="45.68071" lon="4.5807">
        <ele>740.3</ele>
        <time>2019-08-30T14:29:53Z</time>
      </trkpt>
      <trkpt lat="45.68162" lon="4.58195">
        <ele>732.8</ele>
        <time>2019-08-30T14:30:13Z</time>
      </trkpt>
      <trkpt lat="45.68166" lon="4.58198">
        <ele>733.3</ele>
        <time>2025-08-15T04:06:16Z</time>
      </trkpt>
      <trkpt lat="45.68166" lon="4.58198">
        <ele>733.3</ele>
        <time>2025-08-15T04:06:16Z</time>
      </trkpt>
      <trkpt lat="45.68166" lon="4.58198">
        <ele>733.3</ele>
        <time>2025-08-15T04:06:16Z</time>
      </trkpt>
      <trkpt lat="45.68166" lon="4.58198">
        <ele>733.3</ele>
        <time>2025-08-15T04:06:16Z</time>
      </trkpt>
      <trkpt lat="45.68215" lon="4.58296">
        <ele>730.3</ele>
        <time>2025-08-15T04:06:16Z</time>
      </trkpt>
      <trkpt lat="45.68215" lon="4.58296">
        <ele>730.3</ele>
        <time>2025-08-15T04:06:16Z</time>
      </trkpt>
      <trkpt lat="45.68215" lon="4.58296">
        <ele>730.3</ele>
        <time>2025-08-15T04:06:16Z</time>
      </trkpt>
      <trkpt lat="45.68215" lon="4.58296">
        <ele>730.3</ele>
        <time>2025-08-15T04:06:16Z</time>
      </trkpt>
      <trkpt lat="45.6823" lon="4.58333">
        <ele>730.4</ele>
        <time>2025-08-15T04:06:16Z</time>
      </trkpt>
      <trkpt lat="45.6823" lon="4.58333">
        <ele>730.4</ele>
        <time>2025-08-15T04:06:16Z</time>
      </trkpt>
      <trkpt lat="45.6823" lon="4.58333">
        <ele>730.4</ele>
        <time>2025-08-15T04:06:16Z</time>
      </trkpt>
      <trkpt lat="45.6823" lon="4.58333">
        <ele>730.4</ele>
        <time>2025-08-15T04:06:16Z</time>
      </trkpt>
      <trkpt lat="45.68269" lon="4.58346">
        <ele>737</ele>
        <time>2025-08-15T04:06:16Z</time>
      </trkpt>
      <trkpt lat="45.68269" lon="4.58346">
        <ele>737</ele>
        <time>2025-08-15T04:06:16Z</time>
      </trkpt>
      <trkpt lat="45.68269" lon="4.58346">
        <ele>737</ele>
        <time>2025-08-15T04:06:16Z</time>
      </trkpt>
      <trkpt lat="45.68269" lon="4.58346">
        <ele>737</ele>
        <time>2025-08-15T04:06:16Z</time>
      </trkpt>
      <trkpt lat="45.68238" lon="4.58501">
        <ele>733.2</ele>
        <time>2025-08-15T04:06:16Z</time>
      </trkpt>
      <trkpt lat="45.68238" lon="4.58501">
        <ele>733.2</ele>
        <time>2025-08-15T04:06:16Z</time>
      </trkpt>
      <trkpt lat="45.68238" lon="4.58501">
        <ele>733.2</ele>
        <time>2025-08-15T04:06:16Z</time>
      </trkpt>
      <trkpt lat="45.68238" lon="4.58501">
        <ele>733.2</ele>
        <time>2025-08-15T04:06:16Z</time>
      </trkpt>
      <trkpt lat="45.68182" lon="4.58575">
        <ele>727.9</ele>
        <time>2025-08-15T04:06:16Z</time>
      </trkpt>
      <trkpt lat="45.68182" lon="4.58575">
        <ele>727.9</ele>
        <time>2025-08-15T04:06:16Z</time>
      </trkpt>
      <trkpt lat="45.68182" lon="4.58575">
        <ele>727.9</ele>
        <time>2025-08-15T04:06:16Z</time>
      </trkpt>
      <trkpt lat="45.68182" lon="4.58575">
        <ele>727.9</ele>
        <time>2025-08-15T04:06:16Z</time>
      </trkpt>
      <trkpt lat="45.68134" lon="4.58606">
        <ele>720.5</ele>
        <time>2025-08-15T04:06:16Z</time>
      </trkpt>
      <trkpt lat="45.68134" lon="4.58606">
        <ele>720.5</ele>
        <time>2025-08-15T04:06:16Z</time>
      </trkpt>
      <trkpt lat="45.68134" lon="4.58606">
        <ele>720.5</ele>
        <time>2025-08-15T04:06:16Z</time>
      </trkpt>
      <trkpt lat="45.68134" lon="4.58606">
        <ele>720.5</ele>
        <time>2025-08-15T04:06:16Z</time>
      </trkpt>
      <trkpt lat="45.681" lon="4.58666">
        <ele>721.2</ele>
        <time>2025-08-15T04:06:16Z</time>
      </trkpt>
      <trkpt lat="45.681" lon="4.58666">
        <ele>721.2</ele>
        <time>2025-08-15T04:06:16Z</time>
      </trkpt>
      <trkpt lat="45.681" lon="4.58666">
        <ele>721.2</ele>
        <time>2025-08-15T04:06:16Z</time>
      </trkpt>
      <trkpt lat="45.681" lon="4.58666">
        <ele>721.2</ele>
        <time>2025-08-15T04:06:16Z</time>
      </trkpt>
      <trkpt lat="45.68098" lon="4.58711">
        <ele>726.3</ele>
        <time>2025-08-15T04:06:16Z</time>
      </trkpt>
      <trkpt lat="45.68098" lon="4.58711">
        <ele>726.3</ele>
        <time>2025-08-15T04:06:16Z</time>
      </trkpt>
      <trkpt lat="45.68098" lon="4.58711">
        <ele>726.3</ele>
        <time>2025-08-15T04:06:16Z</time>
      </trkpt>
      <trkpt lat="45.68098" lon="4.58711">
        <ele>726.3</ele>
        <time>2025-08-15T04:06:16Z</time>
      </trkpt>
      <trkpt lat="45.68117" lon="4.58739">
        <ele>727.9</ele>
        <time>2025-08-15T04:06:16Z</time>
      </trkpt>
      <trkpt lat="45.68117" lon="4.58739">
        <ele>727.9</ele>
        <time>2025-08-15T04:06:16Z</time>
      </trkpt>
      <trkpt lat="45.68117" lon="4.58739">
        <ele>727.9</ele>
        <time>2025-08-15T04:06:16Z</time>
      </trkpt>
      <trkpt lat="45.68117" lon="4.58739">
        <ele>727.9</ele>
        <time>2025-08-15T04:06:16Z</time>
      </trkpt>
      <trkpt lat="45.68202" lon="4.58789">
        <ele>740.1</ele>
        <time>2025-08-15T04:06:16Z</time>
      </trkpt>
      <trkpt lat="45.68202" lon="4.58789">
        <ele>740.1</ele>
        <time>2025-08-15T04:06:16Z</time>
      </trkpt>
      <trkpt lat="45.68202" lon="4.58789">
        <ele>740.1</ele>
        <time>2025-08-15T04:06:16Z</time>
      </trkpt>
      <trkpt lat="45.68202" lon="4.58789">
        <ele>740.1</ele>
        <time>2025-08-15T04:06:16Z</time>
      </trkpt>
      <trkpt lat="45.68227" lon="4.5882">
        <ele>738.5</ele>
        <time>2025-08-15T04:06:16Z</time>
      </trkpt>
      <trkpt lat="45.68227" lon="4.5882">
        <ele>738.5</ele>
        <time>2025-08-15T04:06:16Z</time>
      </trkpt>
      <trkpt lat="45.68227" lon="4.5882">
        <ele>738.5</ele>
        <time>2025-08-15T04:06:16Z</time>
      </trkpt>
      <trkpt lat="45.68227" lon="4.5882">
        <ele>738.5</ele>
        <time>2025-08-15T04:06:16Z</time>
      </trkpt>
      <trkpt lat="45.6823" lon="4.58851">
        <ele>731.7</ele>
        <time>2025-08-15T04:06:16Z</time>
      </trkpt>
      <trkpt lat="45.6823" lon="4.58851">
        <ele>731.7</ele>
        <time>2025-08-15T04:06:16Z</time>
      </trkpt>
      <trkpt lat="45.6823" lon="4.58851">
        <ele>731.7</ele>
        <time>2025-08-15T04:06:16Z</time>
      </trkpt>
      <trkpt lat="45.6823" lon="4.58851">
        <ele>731.7</ele>
        <time>2025-08-15T04:06:16Z</time>
      </trkpt>
      <trkpt lat="45.68242" lon="4.58905">
        <ele>718.8</ele>
        <time>2025-08-15T04:06:16Z</time>
      </trkpt>
      <trkpt lat="45.68242" lon="4.58905">
        <ele>718.8</ele>
        <time>2025-08-15T04:06:16Z</time>
      </trkpt>
      <trkpt lat="45.68242" lon="4.58905">
        <ele>718.8</ele>
        <time>2025-08-15T04:06:16Z</time>
      </trkpt>
      <trkpt lat="45.68242" lon="4.58905">
        <ele>718.8</ele>
        <time>2025-08-15T04:06:16Z</time>
      </trkpt>
      <trkpt lat="45.68277" lon="4.58954">
        <ele>713.6</ele>
        <time>2025-08-15T04:06:16Z</time>
      </trkpt>
      <trkpt lat="45.68277" lon="4.58954">
        <ele>713.6</ele>
        <time>2025-08-15T04:06:16Z</time>
      </trkpt>
      <trkpt lat="45.68277" lon="4.58954">
        <ele>713.6</ele>
        <time>2025-08-15T04:06:16Z</time>
      </trkpt>
      <trkpt lat="45.68277" lon="4.58954">
        <ele>713.6</ele>
        <time>2025-08-15T04:06:16Z</time>
      </trkpt>
      <trkpt lat="45.68294" lon="4.59012">
        <ele>704.4</ele>
        <time>2025-08-15T04:06:16Z</time>
      </trkpt>
      <trkpt lat="45.68294" lon="4.59012">
        <ele>704.4</ele>
        <time>2025-08-15T04:06:16Z</time>
      </trkpt>
      <trkpt lat="45.68294" lon="4.59012">
        <ele>704.4</ele>
        <time>2025-08-15T04:06:16Z</time>
      </trkpt>
      <trkpt lat="45.68294" lon="4.59012">
        <ele>704.4</ele>
        <time>2025-08-15T04:06:16Z</time>
      </trkpt>
      <trkpt lat="45.68305" lon="4.59072">
        <ele>696.8</ele>
        <time>2025-08-15T04:06:16Z</time>
      </trkpt>
      <trkpt lat="45.68305" lon="4.59072">
        <ele>696.8</ele>
        <time>2025-08-15T04:06:16Z</time>
      </trkpt>
      <trkpt lat="45.68305" lon="4.59072">
        <ele>696.8</ele>
        <time>2025-08-15T04:06:16Z</time>
      </trkpt>
      <trkpt lat="45.68305" lon="4.59072">
        <ele>696.8</ele>
        <time>2025-08-15T04:06:16Z</time>
      </trkpt>
      <trkpt lat="45.68299" lon="4.59134">
        <ele>688.7</ele>
        <time>2025-08-15T04:06:16Z</time>
      </trkpt>
      <trkpt lat="45.68299" lon="4.59134">
        <ele>688.7</ele>
        <time>2025-08-15T04:06:16Z</time>
      </trkpt>
      <trkpt lat="45.68299" lon="4.59134">
        <ele>688.7</ele>
        <time>2025-08-15T04:06:16Z</time>
      </trkpt>
      <trkpt lat="45.68299" lon="4.59134">
        <ele>688.7</ele>
        <time>2025-08-15T04:06:16Z</time>
      </trkpt>
      <trkpt lat="45.68266" lon="4.5923">
        <ele>687.7</ele>
        <time>2025-08-15T04:06:16Z</time>
      </trkpt>
      <trkpt lat="45.68266" lon="4.5923">
        <ele>687.7</ele>
        <time>2025-08-15T04:06:16Z</time>
      </trkpt>
      <trkpt lat="45.68266" lon="4.5923">
        <ele>687.7</ele>
        <time>2025-08-15T04:06:16Z</time>
      </trkpt>
      <trkpt lat="45.68266" lon="4.5923">
        <ele>687.7</ele>
        <time>2025-08-15T04:06:16Z</time>
      </trkpt>
      <trkpt lat="45.68303" lon="4.59263">
        <ele>697.5</ele>
        <time>2025-08-15T04:06:16Z</time>
      </trkpt>
      <trkpt lat="45.68303" lon="4.59263">
        <ele>697.5</ele>
        <time>2025-08-15T04:06:16Z</time>
      </trkpt>
      <trkpt lat="45.68303" lon="4.59263">
        <ele>697.5</ele>
        <time>2025-08-15T04:06:16Z</time>
      </trkpt>
      <trkpt lat="45.68303" lon="4.59263">
        <ele>697.5</ele>
        <time>2025-08-15T04:06:16Z</time>
      </trkpt>
      <trkpt lat="45.68304" lon="4.59281">
        <ele>699.1</ele>
        <time>2025-08-15T04:06:16Z</time>
      </trkpt>
      <trkpt lat="45.68304" lon="4.59281">
        <ele>699.1</ele>
        <time>2025-08-15T04:06:16Z</time>
      </trkpt>
      <trkpt lat="45.68304" lon="4.59281">
        <ele>699.1</ele>
        <time>2025-08-15T04:06:16Z</time>
      </trkpt>
      <trkpt lat="45.68304" lon="4.59281">
        <ele>699.1</ele>
        <time>2025-08-15T04:06:16Z</time>
      </trkpt>
      <trkpt lat="45.68359" lon="4.59289">
        <ele>703.8</ele>
        <time>2025-08-15T04:06:16Z</time>
      </trkpt>
      <trkpt lat="45.68359" lon="4.59289">
        <ele>703.8</ele>
        <time>2025-08-15T04:06:16Z</time>
      </trkpt>
      <trkpt lat="45.68359" lon="4.59289">
        <ele>703.8</ele>
        <time>2025-08-15T04:06:16Z</time>
      </trkpt>
      <trkpt lat="45.68359" lon="4.59289">
        <ele>703.8</ele>
        <time>2025-08-15T04:06:16Z</time>
      </trkpt>
      <trkpt lat="45.68414" lon="4.59331">
        <ele>703.8</ele>
        <time>2025-08-15T04:06:16Z</time>
      </trkpt>
      <trkpt lat="45.68414" lon="4.59331">
        <ele>703.8</ele>
        <time>2025-08-15T04:06:16Z</time>
      </trkpt>
      <trkpt lat="45.68414" lon="4.59331">
        <ele>703.8</ele>
        <time>2025-08-15T04:06:16Z</time>
      </trkpt>
      <trkpt lat="45.68414" lon="4.59331">
        <ele>703.8</ele>
        <time>2025-08-15T04:06:16Z</time>
      </trkpt>
      <trkpt lat="45.68469" lon="4.59369">
        <ele>700.2</ele>
        <time>2025-08-15T04:06:16Z</time>
      </trkpt>
      <trkpt lat="45.68469" lon="4.59369">
        <ele>700.2</ele>
        <time>2025-08-15T04:06:16Z</time>
      </trkpt>
      <trkpt lat="45.68469" lon="4.59369">
        <ele>700.2</ele>
        <time>2025-08-15T04:06:16Z</time>
      </trkpt>
      <trkpt lat="45.68469" lon="4.59369">
        <ele>700.2</ele>
        <time>2025-08-15T04:06:16Z</time>
      </trkpt>
      <trkpt lat="45.68445" lon="4.59263">
        <ele>701.2</ele>
        <time>2025-08-15T04:06:16Z</time>
      </trkpt>
      <trkpt lat="45.68445" lon="4.59263">
        <ele>701.2</ele>
        <time>2025-08-15T04:06:16Z</time>
      </trkpt>
      <trkpt lat="45.68445" lon="4.59263">
        <ele>701.2</ele>
        <time>2025-08-15T04:06:16Z</time>
      </trkpt>
      <trkpt lat="45.68445" lon="4.59263">
        <ele>701.2</ele>
        <time>2025-08-15T04:06:16Z</time>
      </trkpt>
      <trkpt lat="45.68505" lon="4.5918">
        <ele>709.3</ele>
        <time>2025-08-15T04:06:16Z</time>
      </trkpt>
      <trkpt lat="45.68505" lon="4.5918">
        <ele>709.3</ele>
        <time>2025-08-15T04:06:16Z</time>
      </trkpt>
      <trkpt lat="45.68505" lon="4.5918">
        <ele>709.3</ele>
        <time>2025-08-15T04:06:16Z</time>
      </trkpt>
    </trkseg>
  </trk>
</gpx>